[[{"header":{"parameterUnit":"m.s-1","parameterCategory":1,"la1":30.6,"la2":29.2853,"lo1":-89.7004,"lo2":-87.6739,"dx":0.0162,"dy":0.0183,"nx":112,"ny":82,"refTime":"2023-01-12T06:00:00:Z","depth":0,"parameterNumber":2,"parameterNumberName":"U-component_of_WINDS"},"data":[0.0,0.0,0.0,0.0,0.0,0.0,0.0,0.0,0.0,0.0,0.0,0.0,0.0,0.0,0.0,0.0,0.0,0.0,0.0,0.0,0.0,0.0,0.0,0.0,0.0,0.0,0.0,0.0,0.0,0.0,0.0,0.0,0.0,0.0,0.0,0.0,0.0,0.0,0.0,0.0,0.0,0.0,0.0,0.0,0.0,0.0,0.0,0.0,0.0,0.0,0.0,0.0,0.0,0.0,0.0,0.0,0.0,0.0,0.0,0.0,0.0,0.0,0.0,0.0,0.0,0.0,0.0,0.0,0.0,0.0,0.0,0.0,0.0,0.0,0.0,0.0,0.0,0.0,0.0,0.0,0.0,0.0,0.0,0.0,0.0,0.0,0.0,0.0,0.0,0.0,2.5083,2.6598,2.8358,2.9363,2.9322,2.9134,2.6959,2.2189,0.0,0.0,0.0,0.0,0.0,0.0,0.0,0.0,0.0,0.0,0.0,0.0,0.0,0.0,0.0,0.0,0.0,0.0,0.0,0.0,0.0,0.0,0.0,0.0,0.0,0.0,0.0,0.0,0.0,0.0,0.0,0.0,0.0,0.0,0.0,0.0,0.0,0.0,0.0,0.0,0.0,0.0,0.0,0.0,0.0,0.0,0.0,0.0,0.0,0.0,0.0,0.0,0.0,0.0,0.0,0.0,0.0,0.0,0.0,0.0,0.0,0.0,0.0,0.0,0.0,0.0,0.0,0.0,0.0,0.0,0.0,0.0,0.0,0.0,0.0,0.0,0.0,0.0,0.0,0.0,0.0,0.0,0.0,0.0,0.0,0.0,0.0,0.0,0.0,0.0,0.0,0.0,0.0,0.0,0.0,0.0,0.0,0.0,0.0,0.0,0.0,0.0,0.0,0.0,2.3148,2.8582,2.9298,2.9328,2.9078,2.901,2.6959,2.2189,0.0,0.0,0.0,0.0,0.0,0.0,0.0,0.0,0.0,0.0,0.0,0.0,0.0,0.0,0.0,0.0,0.0,0.0,0.0,0.0,0.0,0.0,0.0,0.0,0.0,0.0,0.0,0.0,0.0,0.0,0.0,0.0,0.0,0.0,0.0,0.0,0.0,0.0,0.0,0.0,0.0,0.0,0.0,0.0,0.0,0.0,0.0,0.0,0.0,0.0,0.0,0.0,0.0,0.0,0.0,0.0,0.0,0.0,0.0,0.0,0.0,0.0,0.0,0.0,0.0,0.0,0.0,0.0,0.0,0.0,0.0,0.0,0.0,0.0,0.0,0.0,0.0,0.0,0.0,0.0,0.0,0.0,0.0,0.0,0.0,0.0,0.0,0.0,0.0,0.0,0.0,0.0,0.0,0.0,0.0,0.0,0.0,0.0,0.0,0.0,0.0,0.0,0.0,2.3572,2.6009,3.0712,3.0893,3.0671,3.0539,3.0378,2.8062,2.2893,2.253,0.0,0.0,0.0,0.0,0.0,0.0,0.0,0.0,0.0,0.0,0.0,0.0,0.0,0.0,0.0,0.0,0.0,0.0,0.0,0.0,0.0,0.0,0.0,0.0,0.0,0.0,0.0,0.0,0.0,0.0,0.0,0.0,0.0,0.0,0.0,0.0,0.0,0.0,0.0,0.0,0.0,0.0,0.0,0.0,0.0,0.0,0.0,0.0,0.0,0.0,0.0,0.0,0.0,0.0,0.0,0.0,0.0,0.0,0.0,0.0,0.0,0.0,0.0,0.0,0.0,0.0,0.0,0.0,0.0,0.0,0.0,0.0,0.0,0.0,0.0,0.0,0.0,0.0,0.0,0.0,0.0,0.0,0.0,0.0,0.0,0.0,0.0,0.0,0.0,0.0,0.0,0.0,0.0,0.0,0.0,0.0,0.0,0.0,0.0,0.0,0.0,0.0,2.7803,2.962,3.2062,3.2009,3.1771,3.1704,3.1531,2.9019,2.3434,2.2858,0.0,0.0,0.0,0.0,0.0,0.0,0.0,0.0,0.0,0.0,0.0,0.0,0.0,0.0,0.0,0.0,0.0,0.0,0.0,0.0,0.0,0.0,0.0,0.0,0.0,0.0,0.0,0.0,0.0,0.0,0.0,0.0,0.0,0.0,0.0,0.0,0.0,0.0,0.0,0.0,0.0,0.0,0.0,0.0,0.0,0.0,0.0,0.0,0.0,0.0,0.0,0.0,0.0,0.0,0.0,0.0,0.0,0.0,0.0,0.0,0.0,0.0,0.0,0.0,0.0,0.0,0.0,0.0,0.0,0.0,0.0,0.0,0.0,0.0,0.0,0.0,0.0,0.0,0.0,0.0,0.0,0.0,0.0,0.0,0.0,0.0,0.0,0.0,0.0,0.0,0.0,0.0,0.0,0.0,0.0,0.0,0.0,0.0,0.0,0.0,0.0,0.0,2.8287,3.2083,3.1875,3.1815,3.1693,3.1446,3.1409,2.901,2.3355,2.229,0.0,0.0,0.0,0.0,0.0,0.0,0.0,0.0,0.0,0.0,0.0,0.0,0.0,0.0,0.0,0.0,0.0,0.0,0.0,0.0,0.0,0.0,0.0,0.0,0.0,0.0,0.0,0.0,0.0,0.0,0.0,0.0,0.0,0.0,0.0,0.0,0.0,0.0,0.0,0.0,0.0,0.0,0.0,0.0,0.0,0.0,0.0,0.0,0.0,0.0,0.0,0.0,0.0,0.0,0.0,0.0,0.0,0.0,0.0,0.0,0.0,0.0,0.0,0.0,0.0,0.0,0.0,0.0,0.0,0.0,0.0,0.0,0.0,0.0,0.0,0.0,0.0,0.0,0.0,0.0,0.0,0.0,0.0,0.0,0.0,0.0,0.0,0.0,0.0,0.0,0.0,0.0,0.0,0.0,0.0,0.0,0.0,0.0,0.0,0.0,0.0,0.0,2.835,3.1439,0.0,3.3407,3.3177,3.2928,3.2889,3.0551,2.4986,0.0,0.0,0.0,0.0,0.0,0.0,0.0,0.0,0.0,0.0,0.0,0.0,0.0,0.0,0.0,0.0,0.0,0.0,0.0,0.0,0.0,0.0,0.0,0.0,0.0,0.0,0.0,0.0,0.0,0.0,0.0,0.0,0.0,0.0,0.0,0.0,0.0,0.0,0.0,0.0,0.0,0.0,0.0,0.0,0.0,0.0,0.0,0.0,0.0,0.0,0.0,0.0,0.0,0.0,0.0,0.0,0.0,0.0,0.0,0.0,0.0,0.0,0.0,0.0,0.0,0.0,0.0,0.0,0.0,0.0,0.0,0.0,0.0,0.0,0.0,0.0,0.0,0.0,0.0,0.0,0.0,0.0,0.0,0.0,0.0,0.0,0.0,0.0,0.0,0.0,0.0,0.0,0.0,0.0,0.0,0.0,0.0,0.0,0.0,0.0,0.0,0.0,2.5828,2.9458,3.2465,0.0,3.4894,3.4683,3.4224,3.4174,3.1715,2.5881,0.0,0.0,0.0,0.0,0.0,0.0,0.0,0.0,0.0,0.0,0.0,0.0,0.0,0.0,0.0,0.0,0.0,0.0,0.0,0.0,0.0,0.0,0.0,0.0,0.0,0.0,0.0,0.0,0.0,0.0,0.0,0.0,0.0,0.0,0.0,0.0,0.0,0.0,0.0,0.0,0.0,0.0,0.0,0.0,0.0,0.0,0.0,0.0,0.0,0.0,0.0,0.0,0.0,0.0,0.0,0.0,0.0,0.0,0.0,0.0,0.0,0.0,0.0,0.0,0.0,0.0,0.0,0.0,0.0,0.0,0.0,0.0,0.0,0.0,0.0,0.0,0.0,0.0,0.0,0.0,0.0,0.0,0.0,0.0,0.0,0.0,0.0,0.0,0.0,0.0,0.0,0.0,0.0,0.0,0.0,0.0,0.0,0.0,0.0,0.0,0.0,0.0,2.5958,3.1881,3.5791,3.554,3.5987,3.595,3.5092,3.5004,3.2265,0.0,0.0,0.0,0.0,0.0,0.0,0.0,0.0,0.0,0.0,0.0,0.0,0.0,0.0,0.0,0.0,0.0,0.0,0.0,0.0,0.0,0.0,0.0,0.0,0.0,0.0,0.0,0.0,0.0,0.0,0.0,0.0,0.0,0.0,0.0,0.0,0.0,0.0,0.0,0.0,0.0,0.0,0.0,0.0,0.0,0.0,0.0,0.0,0.0,0.0,0.0,0.0,0.0,0.0,0.0,0.0,0.0,0.0,0.0,0.0,0.0,0.0,0.0,0.0,0.0,0.0,0.0,0.0,0.0,0.0,0.0,0.0,0.0,0.0,0.0,0.0,0.0,0.0,0.0,0.0,0.0,0.0,0.0,0.0,0.0,0.0,0.0,0.0,0.0,0.0,0.0,0.0,0.0,0.0,0.0,0.0,0.0,0.0,0.0,0.0,0.0,0.0,0.0,2.7897,3.3226,3.6804,3.6975,3.7141,3.7052,3.6587,3.6336,3.3696,2.7829,0.0,0.0,0.0,0.0,0.0,0.0,0.0,0.0,0.0,0.0,0.0,0.0,0.0,0.0,0.0,0.0,0.0,0.0,0.0,0.0,0.0,0.0,0.0,0.0,0.0,0.0,0.0,0.0,0.0,0.0,0.0,0.0,0.0,0.0,0.0,0.0,0.0,0.0,0.0,0.0,0.0,0.0,0.0,0.0,0.0,0.0,0.0,0.0,0.0,0.0,0.0,0.0,0.0,0.0,0.0,0.0,0.0,0.0,0.0,0.0,0.0,0.0,0.0,0.0,0.0,0.0,0.0,0.0,0.0,0.0,0.0,0.0,0.0,0.0,0.0,0.0,0.0,0.0,0.0,0.0,0.0,0.0,0.0,0.0,0.0,0.0,0.0,0.0,0.0,0.0,0.0,0.0,0.0,0.0,0.0,0.0,0.0,0.0,0.0,0.0,0.0,0.0,2.9285,3.4696,3.8515,3.9023,3.8826,3.8482,3.8033,3.769,3.5366,3.033,0.0,0.0,0.0,0.0,0.0,0.0,0.0,0.0,0.0,0.0,0.0,0.0,0.0,0.0,0.0,0.0,0.0,0.0,0.0,0.0,0.0,0.0,0.0,0.0,0.0,0.0,0.0,0.0,0.0,0.0,0.0,0.0,0.0,0.0,0.0,0.0,0.0,0.0,0.0,0.0,0.0,0.0,0.0,0.0,0.0,0.0,0.0,0.0,0.0,0.0,0.0,0.0,0.0,0.0,0.0,0.0,0.0,0.0,0.0,0.0,0.0,0.0,0.0,0.0,0.0,0.0,0.0,0.0,0.0,0.0,0.0,0.0,0.0,0.0,0.0,0.0,0.0,0.0,0.0,0.0,0.0,0.0,0.0,0.0,0.0,0.0,0.0,0.0,0.0,0.0,0.0,0.0,0.0,0.0,0.0,0.0,0.0,0.0,0.0,0.0,0.0,0.0,3.0308,3.6247,4.0624,4.1454,4.0967,4.0313,3.9746,3.926,3.7279,3.3235,0.0,0.0,0.0,0.0,0.0,0.0,0.0,0.0,0.0,0.0,0.0,0.0,0.0,0.0,0.0,0.0,0.0,0.0,0.0,0.0,0.0,0.0,0.0,0.0,0.0,0.0,0.0,0.0,0.0,0.0,0.0,0.0,0.0,0.0,0.0,0.0,0.0,0.0,0.0,0.0,0.0,0.0,0.0,0.0,0.0,0.0,0.0,0.0,0.0,0.0,0.0,0.0,0.0,0.0,0.0,0.0,0.0,0.0,0.0,0.0,2.1561,0.0,0.0,0.0,0.0,0.0,0.0,0.0,0.0,0.0,0.0,0.0,0.0,0.0,0.0,0.0,0.0,0.0,0.0,0.0,0.0,0.0,0.0,0.0,0.0,0.0,0.0,0.0,0.0,0.0,0.0,0.0,0.0,0.0,0.0,0.0,0.0,0.0,0.0,0.0,0.0,0.0,3.1251,3.7414,4.2098,4.3145,4.2862,4.2758,4.3246,4.1857,3.9514,3.6049,3.3093,0.0,0.0,0.0,0.0,0.0,0.0,0.0,0.0,0.0,0.0,0.0,0.0,0.0,0.0,0.0,0.0,0.0,0.0,0.0,0.0,0.0,0.0,0.0,0.0,0.0,0.0,0.0,0.0,0.0,0.0,0.0,0.0,0.0,0.0,0.0,0.0,0.0,0.0,0.0,0.0,0.0,0.0,0.0,0.0,0.0,0.0,0.0,0.0,0.0,0.0,0.0,0.0,0.0,0.0,0.0,0.0,0.0,0.0,0.0,0.0,2.2192,0.0,0.0,0.0,0.0,0.0,0.0,0.0,0.0,0.0,0.0,0.0,0.0,0.0,0.0,0.0,0.0,0.0,0.0,0.0,0.0,0.0,0.0,0.0,0.0,0.0,0.0,0.0,0.0,0.0,0.0,0.0,0.0,0.0,0.0,0.0,0.0,0.0,0.0,0.0,0.0,3.2782,3.9471,4.4574,4.5722,4.5152,4.485,4.5305,4.4144,4.2313,3.9842,3.6771,0.0,0.0,0.0,0.0,0.0,0.0,0.0,0.0,0.0,0.0,0.0,0.0,0.0,0.0,0.0,0.0,0.0,0.0,0.0,0.0,0.0,0.0,0.0,0.0,0.0,0.0,0.0,0.0,0.0,0.0,0.0,0.0,0.0,0.0,0.0,0.0,0.0,0.0,0.0,0.0,0.0,0.0,0.0,0.0,0.0,0.0,0.0,0.0,0.0,0.0,0.0,0.0,0.0,2.5692,2.5929,2.6065,2.6065,2.7063,2.8669,2.6826,2.6793,2.7775,2.4503,0.0,0.0,0.0,0.0,0.0,0.0,0.0,0.0,0.0,0.0,0.0,0.0,0.0,0.0,0.0,0.0,0.0,0.0,0.0,0.0,0.0,0.0,0.0,0.0,3.3462,3.4635,0.0,0.0,0.0,0.0,0.0,0.0,0.0,0.0,0.0,0.0,0.0,0.0,3.5364,4.1963,4.6948,4.8106,4.7286,4.6736,4.6912,4.6129,4.5058,4.3703,4.0568,3.8196,0.0,0.0,0.0,0.0,0.0,0.0,0.0,0.0,0.0,0.0,0.0,0.0,0.0,0.0,0.0,0.0,0.0,0.0,0.0,0.0,0.0,0.0,0.0,0.0,0.0,0.0,0.0,0.0,0.0,0.0,0.0,0.0,1.9988,2.0722,0.0,0.0,0.0,0.0,0.0,0.0,0.0,0.0,0.0,0.0,0.0,0.0,0.0,2.4203,2.4508,2.642,2.7706,2.8434,3.0364,3.1616,3.2239,3.2239,3.2408,3.2645,3.2341,0.0,2.8825,2.8476,0.0,0.0,0.0,0.0,0.0,0.0,0.0,0.0,0.0,0.0,0.0,0.0,0.0,0.0,0.0,0.0,0.0,0.0,0.0,0.0,0.0,0.0,3.8521,3.9375,3.9874,4.0079,0.0,3.5366,3.1447,3.1066,3.0879,0.0,0.0,0.0,0.0,0.0,0.0,0.0,4.0231,4.4671,4.7781,4.8632,4.8289,4.8318,4.9008,4.7706,4.6773,4.6547,4.4774,4.2484,3.9692,3.875,0.0,0.0,0.0,0.0,0.0,0.0,0.0,0.0,0.0,0.0,0.0,0.0,0.0,0.0,0.0,0.0,0.0,0.0,0.0,0.0,0.0,0.0,0.0,0.0,0.0,0.0,0.0,0.0,0.0,1.8882,2.0125,2.1271,2.0166,1.892,0.0,0.0,0.0,0.0,0.0,0.0,0.0,0.0,0.0,2.6285,2.6809,2.7622,2.8874,3.0243,3.1103,3.1461,3.2442,3.3085,3.3423,3.3423,3.3423,3.3423,3.3423,3.2916,3.1975,3.0562,2.9093,2.7646,0.0,0.0,0.0,0.0,2.7246,2.7537,3.087,3.1719,0.0,3.1614,0.0,0.0,0.0,0.0,0.0,0.0,0.0,0.0,0.0,0.0,3.8432,4.0581,4.1462,4.1772,4.1772,4.0357,3.8173,0.0,3.3474,3.1259,2.6851,0.0,0.0,0.0,0.0,3.965,4.1915,4.6173,4.906,4.9186,4.9479,4.9619,4.9495,4.907,4.8516,4.7823,4.7106,4.5924,4.4104,4.1791,3.8925,0.0,0.0,0.0,0.0,0.0,0.0,0.0,0.0,0.0,0.0,0.0,0.0,0.0,0.0,0.0,0.0,0.0,0.0,0.0,0.0,0.0,0.0,0.0,0.0,0.0,0.0,0.0,0.0,2.0722,2.1229,2.2149,2.2084,2.1259,0.0,0.0,0.0,0.0,0.0,0.0,2.5625,2.5828,2.6962,2.9176,2.9803,3.0939,3.2564,3.3119,3.3491,3.3694,3.3694,3.3795,3.3964,3.3964,3.3964,3.3964,3.3964,3.4269,3.4629,3.2412,3.137,3.0932,2.9451,2.877,2.8806,3.0076,3.0362,3.0734,3.4659,3.5667,3.5206,3.5577,0.0,3.399,3.1592,0.0,0.0,0.0,0.0,3.371,3.7,3.7845,3.8505,4.1111,4.2323,4.291,4.291,4.3586,4.3082,0.0,3.7431,3.5004,3.0452,0.0,0.0,0.0,0.0,4.3103,4.4417,4.8074,5.044,5.016,5.0659,5.0746,5.0174,5.0518,5.0317,4.9282,4.9411,4.925,4.8564,4.5525,4.3295,4.2068,0.0,0.0,0.0,0.0,0.0,0.0,0.0,0.0,0.0,0.0,0.0,0.0,0.0,0.0,0.0,0.0,0.0,0.0,0.0,0.0,0.0,0.0,0.0,0.0,0.0,0.0,0.0,0.0,0.0,2.4614,2.575,0.0,0.0,0.0,0.0,2.4338,2.5101,2.6488,2.8671,2.9431,3.0852,3.3051,3.3152,3.322,3.3355,3.3389,3.3761,3.4438,3.4438,3.481,3.5498,3.5498,3.5498,3.5498,3.5498,3.5498,3.5464,3.4629,3.3673,3.2655,3.2571,3.1427,3.0088,3.2455,3.3282,3.3809,3.7593,3.8865,3.9043,4.0321,3.8689,3.6119,3.5973,3.4321,0.0,0.0,3.6611,3.7933,4.1148,4.1992,4.2213,4.3184,4.3975,4.4599,4.4599,4.3607,4.3019,0.0,4.48,4.4005,4.0059,0.0,4.0114,4.1054,4.2282,4.4828,4.9663,5.1186,5.1813,5.1759,5.1828,5.1805,5.1759,5.2199,5.2254,5.1752,5.2487,5.2762,5.2323,5.1319,4.8723,4.4261,4.2852,0.0,0.0,0.0,0.0,0.0,0.0,0.0,0.0,0.0,0.0,0.0,0.0,0.0,0.0,0.0,0.0,0.0,0.0,0.0,0.0,0.0,0.0,0.0,0.0,0.0,0.0,0.0,0.0,2.538,2.6249,0.0,2.4361,2.5663,2.6607,2.6607,2.8653,3.0262,3.1075,3.1833,3.2611,3.3389,3.3863,3.41,3.41,3.4585,3.4957,3.5194,3.6231,3.6569,3.64,3.7347,3.7787,3.7753,3.7313,3.7347,3.7719,3.6975,3.6186,3.5436,3.589,3.5852,3.564,3.6911,3.7536,3.8062,3.9797,4.0404,4.0474,4.0936,4.0325,3.9496,4.001,3.9533,3.9239,4.1185,4.1919,4.2506,4.4195,4.4635,4.4672,4.4966,4.5259,4.548,4.548,4.5478,4.5624,4.614,4.4886,4.2987,4.0503,4.2811,4.446,4.2916,4.5707,4.8865,5.1224,5.1997,5.2257,5.2001,5.2435,5.2514,5.2016,5.259,5.28,5.2395,5.287,5.3151,5.3004,5.2708,5.1753,5.0048,4.9603,4.5332,0.0,0.0,0.0,0.0,0.0,0.0,0.0,0.0,0.0,0.0,0.0,0.0,0.0,0.0,0.0,0.0,0.0,0.0,0.0,0.0,0.0,0.0,0.0,0.0,0.0,0.0,2.6811,2.5729,2.7253,2.7648,2.5779,2.7638,2.9041,2.9296,3.1176,3.253,3.3038,3.3728,3.4269,3.4539,3.525,3.5757,3.6028,3.6502,3.685,3.7121,3.8159,3.8396,3.7956,3.8903,3.9377,3.9343,3.887,3.8937,3.9368,3.9106,3.8734,3.8261,3.799,3.8196,3.8699,3.9271,3.9808,4.0366,4.1202,4.1699,4.1919,4.1919,4.1919,4.2066,4.2873,4.313,4.3387,4.4745,4.5112,4.5223,4.5773,4.5883,4.5957,4.625,4.6324,4.6471,4.7021,4.7352,4.7663,4.825,4.6303,4.4247,4.3459,4.6106,4.7478,4.5006,4.8452,5.1296,5.1134,5.2352,5.3144,5.2885,5.3324,5.3416,5.29,5.2679,5.2736,5.3207,5.2947,5.3074,5.382,5.2613,5.1933,5.1933,5.1625,4.7894,4.0546,0.0,0.0,0.0,0.0,0.0,0.0,0.0,0.0,0.0,0.0,0.0,0.0,0.0,0.0,0.0,0.0,0.0,0.0,0.0,0.0,0.0,0.0,0.0,2.5863,2.6945,2.7384,2.5931,2.8991,3.0345,2.8128,2.9905,3.1515,3.2293,3.2361,3.3004,3.4472,3.5261,3.6028,3.6829,3.755,3.8294,3.8971,3.9005,3.9377,4.0096,4.0155,4.0155,4.013,4.0189,4.0189,4.0197,4.0164,4.0189,4.0282,4.0933,4.1238,4.1035,3.8894,3.8379,3.8903,3.9453,3.999,4.0655,4.2004,4.2947,4.3608,4.3662,4.3662,4.3791,4.4599,4.4801,4.4984,4.5773,4.5993,4.603,4.603,4.6067,4.625,4.7039,4.7223,4.77,4.9317,4.904,4.893,5.0545,4.9554,4.871,4.9556,4.9703,4.9306,4.8073,5.0629,0.0,4.9875,5.2529,5.4522,5.4462,5.4425,5.4425,5.444,5.2531,5.2243,5.4434,5.2982,5.2949,5.5032,5.1546,4.9586,4.9586,4.8625,4.7278,4.5633,0.0,0.0,0.0,0.0,0.0,0.0,0.0,0.0,0.0,0.0,0.0,0.0,0.0,0.0,0.0,0.0,0.0,0.0,0.0,0.0,0.0,0.0,2.7655,2.7249,2.8991,3.0108,2.9702,3.0581,3.0954,3.0345,3.0818,3.1732,3.2983,3.3592,3.4561,3.6084,3.6874,3.7381,3.7584,3.8294,3.8802,3.9005,3.9546,3.9918,4.0087,4.117,4.1407,4.0933,4.2016,4.2489,4.2462,4.1948,4.2016,4.2489,4.2117,4.1982,4.1967,4.1856,4.1899,4.2149,4.3194,4.3896,4.451,4.5462,4.5938,4.6195,4.6801,4.6985,4.7021,4.7241,4.7315,4.7498,4.8343,4.8545,4.8673,4.9297,4.9444,4.9517,4.9738,5.0215,5.0765,5.1242,5.161,5.2013,5.2454,5.2197,5.1862,5.1844,5.2326,5.292,5.3461,5.4333,0.0,5.4867,5.5675,5.541,5.3262,5.3062,5.3185,5.3539,5.2456,5.3042,5.6115,5.527,5.494,5.5516,5.4545,5.3972,5.3972,5.0087,4.7586,0.0,0.0,0.0,0.0,0.0,0.0,0.0,0.0,0.0,0.0,0.0,0.0,0.0,0.0,0.0,0.0,0.0,0.0,0.0,0.0,0.0,0.0,2.7774,2.921,2.921,3.0345,3.119,3.119,3.119,3.1326,3.165,3.1935,3.2747,3.4213,3.5013,3.6017,3.7178,3.7956,3.8497,3.8811,3.9546,4.0223,4.0832,4.1245,4.1644,4.2008,4.2855,4.3031,4.2658,4.3504,4.4079,0.0,4.391,4.4147,4.479,4.435,4.4181,0.0,0.0,0.0,0.0,0.0,4.6395,4.6985,4.7443,4.759,4.7663,4.8159,4.8306,4.8379,4.871,4.882,4.9003,4.9848,5.0068,5.0141,5.0655,5.1059,5.1389,5.172,5.216,5.2674,5.3335,5.3335,5.3387,5.4069,5.4216,0.0,5.4652,5.437,5.4148,5.436,5.5442,5.601,5.54,5.6425,5.6474,5.4556,5.4328,5.4538,5.5004,5.361,0.0,0.0,0.0,5.5011,5.4664,5.4664,0.0,0.0,0.0,0.0,0.0,0.0,0.0,0.0,4.5163,4.3948,0.0,0.0,0.0,0.0,0.0,0.0,0.0,0.0,0.0,0.0,0.0,0.0,0.0,0.0,0.0,0.0,2.9803,3.1326,3.1326,3.1393,3.1427,3.1326,3.1326,3.1596,3.2361,3.3085,3.4134,3.56,3.6468,3.728,3.8091,0.0,0.0,0.0,0.0,4.1982,4.3375,4.3504,4.391,4.4615,4.4615,4.4615,4.4615,4.4615,4.4993,4.5703,4.5703,4.6109,4.6786,4.6786,4.6844,4.6627,4.4055,4.3847,4.5261,4.7057,4.8088,4.86,4.871,0.0,0.0,4.882,4.8857,4.9003,4.9774,5.0014,5.0178,5.0986,5.1206,5.1242,5.1316,5.1867,5.2601,5.3298,5.3555,5.3995,5.5427,5.4693,5.4179,5.5574,5.589,5.6227,5.736,5.6055,5.4506,5.3348,5.5483,5.6342,5.4025,5.6071,5.743,5.661,0.0,0.0,5.7263,5.5208,5.5186,5.8219,5.6242,5.4587,5.3818,5.378,5.378,5.378,5.378,5.528,5.8319,5.8396,5.8396,5.8088,4.9048,4.6817,0.0,0.0,0.0,0.0,0.0,0.0,0.0,0.0,0.0,0.0,0.0,0.0,0.0,0.0,0.0,2.7722,3.0209,3.209,3.209,3.2611,3.2747,3.2158,3.209,3.2395,3.3119,3.3863,3.4912,3.6434,3.7246,3.8261,3.9605,3.9808,4.0223,4.0967,4.1711,4.2523,4.3375,4.4045,4.4445,4.4615,0.0,0.0,4.4615,4.4615,4.4993,4.5703,4.5703,4.6109,4.6786,4.6786,4.7096,4.7575,4.756,4.8354,4.9601,4.9971,5.0188,5.0398,5.1059,5.1279,5.1389,5.205,5.2249,5.2307,5.2454,5.2491,0.0,5.3482,5.3702,5.3849,5.4509,5.4766,5.4935,5.5097,5.5647,5.6198,5.6492,5.6822,5.7152,5.7483,5.7519,5.7602,5.7862,5.7894,5.7913,5.803,5.8528,5.8608,5.7734,5.8146,5.7398,5.4541,5.4603,5.4979,5.5459,5.48,5.5753,5.9038,5.8204,5.7511,5.7319,5.7319,5.7319,5.7319,5.7319,5.7627,5.8319,5.8934,5.8934,5.8242,5.628,5.5818,0.0,0.0,0.0,0.0,0.0,0.0,0.0,0.0,0.0,0.0,0.0,2.334,0.0,0.0,2.8755,2.9871,3.163,3.2848,3.2848,3.3186,3.3254,3.2882,3.2848,3.3288,3.4382,3.5182,3.6288,3.7811,3.8565,3.9309,4.0079,4.0113,4.062,4.1711,4.2117,4.2828,4.3978,4.4412,4.4615,4.4615,4.4615,4.4615,4.4615,4.4959,4.5534,4.6278,4.665,4.7225,4.7902,4.7902,4.8309,4.8972,4.9696,5.0319,5.0918,5.1297,5.1688,5.205,5.2454,5.2601,5.2747,5.3555,5.3812,5.3885,5.4289,5.4399,5.4473,5.4876,5.4987,5.5097,5.55,5.5904,5.6198,5.6198,5.6822,5.7409,5.7409,5.7703,5.7997,5.7997,5.7997,5.7997,5.7997,5.8172,5.8439,5.8673,5.8913,5.8874,5.8397,5.8756,5.8315,5.6382,5.6553,5.703,5.7492,5.7594,5.8357,6.005,5.9781,5.955,5.955,5.955,5.955,5.955,5.955,5.955,5.955,5.9935,5.9935,5.955,6.0012,5.9742,0.0,0.0,0.0,0.0,0.0,0.0,0.0,0.0,2.1565,2.3356,2.3732,2.4757,2.8055,2.9194,3.0262,3.2192,3.3119,3.3626,3.3626,3.3761,3.3829,3.3829,3.3694,3.4201,3.569,3.6535,3.7574,3.8903,3.9673,4.0113,4.0113,4.0113,4.079,4.2252,4.2286,4.3031,4.4581,4.4615,4.4615,4.4615,4.4615,4.4615,4.4649,4.5365,4.6109,4.6853,4.7733,4.8477,4.9018,4.9018,4.9406,5.009,5.0823,5.1151,5.1316,5.2036,5.2702,5.3203,5.3408,5.3424,5.3592,5.4363,5.462,5.473,5.539,5.5596,5.5633,5.5794,5.5831,5.5868,5.6014,5.6565,5.7042,5.7042,5.7519,5.7997,5.7997,5.7997,5.7997,5.7997,5.7997,5.7997,5.7997,5.7997,5.7997,5.7997,5.8397,5.8549,5.8172,5.8874,5.9248,5.8874,5.9248,5.9744,6.0189,6.0597,6.0858,6.105,6.105,6.1127,6.1281,6.1281,6.1281,6.1281,6.1281,6.1281,6.1281,6.1281,6.1281,6.1281,6.2012,6.1512,1.8039,0.0,0.0,1.9615,2.0447,2.1483,0.0,0.0,2.4321,2.7173,2.7772,2.857,3.1301,3.1887,3.2226,3.3119,3.3897,3.437,3.437,3.4945,3.5329,3.5329,3.4776,3.4979,3.6524,3.7347,3.8125,3.8937,3.9673,4.0113,4.0113,4.0113,4.079,4.2252,4.2286,4.3031,4.4581,4.4615,4.4615,4.4615,4.4615,4.4615,4.4649,4.5365,4.6109,4.6887,4.8274,4.8917,4.9018,4.9018,4.9406,5.009,5.0823,5.1483,5.2074,5.2777,5.3124,5.3298,5.4032,5.4289,5.4399,5.5207,5.5464,5.5464,5.5596,5.5596,5.5757,5.6455,5.6675,5.6822,5.7556,5.7813,5.7886,5.7886,5.7923,5.7997,5.7997,5.7997,5.7997,5.7997,5.7997,5.7997,5.7997,5.7997,5.7997,5.7997,5.8397,5.8693,5.8632,5.9103,5.9372,5.9319,5.976,6.0203,6.0671,6.0769,6.1127,6.1908,6.1947,6.2281,6.3012,6.3012,6.3012,6.3012,6.3012,6.3012,6.3012,6.3012,6.3012,6.3012,6.3128,6.2666,2.0274,0.0,0.0,0.0,2.2194,2.2835,2.4784,2.4652,2.4943,2.7817,2.8736,2.9686,3.1907,3.3004,3.3681,0.0,3.4675,3.5148,3.5148,3.5397,3.56,3.56,3.5329,3.5757,3.728,3.7719,3.8396,3.9571,3.9943,4.0113,4.0113,4.0113,4.079,4.2252,4.2286,4.3031,4.4581,4.4615,4.4615,4.4615,4.4615,4.4615,4.4649,4.5805,4.6989,4.8105,4.8748,4.9018,4.9018,4.9018,4.9168,4.9521,5.0662,5.1266,5.1643,5.2769,5.3518,5.3959,5.4289,5.4693,5.5207,5.6051,5.6308,5.6381,5.6859,5.7005,5.7079,5.7409,5.7483,5.7593,5.7923,5.7997,5.7997,5.7997,5.7997,5.7997,5.7997,5.7997,5.7997,5.7997,5.7997,5.7997,5.7997,5.7997,5.7997,5.7997,5.8397,5.8796,5.9047,5.9509,5.9916,6.0175,6.0378,6.0789,6.1512,6.1562,6.1897,6.2743,6.2781,6.2935,6.3269,6.3308,6.3308,6.3308,6.3308,6.3308,6.3308,6.3308,6.3308,6.3308,6.382,6.3897,2.1036,0.0,0.0,2.2697,2.3363,2.4112,2.519,2.5268,2.5843,2.8435,2.9377,3.0423,3.2513,3.3783,3.4573,3.4776,3.5228,3.56,3.56,3.56,3.56,3.56,3.56,3.6208,3.7753,3.7922,3.8497,4.0011,4.0113,4.0113,4.0113,4.0113,4.079,4.2252,4.2286,4.3031,4.4581,4.4615,4.4615,4.4615,4.4615,4.4716,4.4925,4.6413,4.78,4.9018,4.9018,4.9018,4.9018,4.9018,4.9107,4.9406,5.0608,5.1357,5.184,5.3075,5.3922,5.4473,5.4913,5.5427,5.6051,5.6859,5.7152,5.7262,5.7813,5.7997,5.7997,5.7997,5.7997,5.7997,5.7997,5.7997,5.7997,5.7997,5.7997,5.7997,5.7997,5.7997,5.7997,5.7997,5.7997,5.7997,5.7997,5.7997,5.8065,5.8186,5.8503,5.8874,5.9337,5.9916,6.0405,6.0757,6.1012,6.1408,6.2062,6.2293,6.2781,6.3628,6.3666,6.3782,6.4012,6.4012,6.4012,6.4012,6.4012,6.4012,6.4012,6.4012,6.4012,6.4051,6.4666,6.4974,0.0,0.0,2.1833,2.2312,2.379,2.5346,2.6181,2.6753,2.7732,2.9996,3.0436,3.1277,3.3938,3.4472,3.4742,3.543,3.56,3.56,3.56,3.56,3.56,3.56,3.56,3.6208,0.0,3.7922,3.8497,4.0011,4.0113,4.0113,4.0113,4.0113,4.079,4.2252,4.2286,4.3031,4.4581,4.4615,4.4615,4.4615,4.4615,4.4959,4.5737,4.7162,4.8277,4.9018,4.9018,4.9018,4.9018,4.9018,4.9372,5.0061,5.0796,5.1983,5.3339,5.407,5.4363,5.462,5.6198,5.6748,5.6895,5.7703,5.796,5.796,5.7997,5.7997,5.7997,5.7997,5.7997,5.7997,5.7997,5.7997,5.7997,5.7997,5.7997,5.7997,5.7997,5.7997,5.7997,5.7997,5.7997,5.7997,5.7997,5.7997,5.8164,5.8611,5.8713,5.8874,5.9337,6.0203,6.0769,6.0781,6.1562,6.2062,6.2101,6.282,6.3628,6.4512,6.4551,6.4936,6.5782,6.582,6.582,6.582,6.582,6.582,6.582,6.582,6.582,6.582,6.5859,6.5859,0.0,0.0,2.2789,2.4602,2.5924,2.697,2.7589,2.8288,2.9242,3.0831,3.1182,3.1686,3.3446,3.4167,3.4573,3.4844,3.5261,3.56,3.56,3.56,3.56,3.56,3.56,0.0,0.0,0.0,0.0,4.0011,4.0113,4.0113,4.0113,4.0561,4.1271,4.2252,4.276,4.3538,4.4581,4.4615,4.4615,4.4615,4.5094,4.5703,4.6447,4.7462,4.8308,4.9018,4.9018,4.9018,4.9015,4.9492,4.9809,5.0181,5.1876,5.2845,5.3508,5.5336,5.6014,5.6088,5.6602,5.7152,5.7629,5.7923,5.7997,5.7997,5.7997,5.7997,5.7997,5.7997,5.7997,5.7997,5.7997,5.7997,5.7997,5.7997,5.7997,5.7997,5.7997,5.7997,5.7997,5.7997,5.7997,5.7997,5.7997,5.7997,5.8164,5.8632,5.8971,5.9212,5.9372,6.0134,6.0675,6.0675,6.1735,6.2658,6.3193,6.3796,6.4551,6.5397,6.5474,6.559,6.5897,6.5897,6.5897,6.5897,6.5897,6.5897,6.5897,6.5897,6.6167,6.6705,6.6705,6.7013,0.0,2.3305,2.3537,2.5886,2.7193,2.8004,2.8376,2.9193,3.0266,3.1598,3.1478,3.1575,3.311,3.3795,3.4201,3.4438,3.5351,3.6028,3.6028,3.6028,3.5926,3.5633,3.56,3.6309,0.0,0.0,0.0,4.0011,4.035,4.0493,4.0493,4.117,4.2049,4.3064,4.3301,4.4045,4.5393,4.4886,4.4615,4.4615,4.5602,4.6346,4.6819,4.7834,4.8578,4.9018,4.9018,4.9018,4.9046,4.9722,5.0313,5.0982,5.2659,5.3796,5.4722,5.6246,5.6969,5.7226,5.7226,5.7556,5.7997,5.7997,5.7997,5.7997,5.7997,5.7997,5.7997,5.7997,5.7997,5.7997,5.7997,5.7997,5.7997,5.7997,5.7997,5.7997,5.7997,5.7997,5.7997,5.7997,5.7997,5.7997,5.7997,5.7997,5.8097,5.8397,5.8937,5.944,5.9789,6.0259,6.0712,6.0996,6.2222,6.3253,6.3749,6.4573,6.5282,6.5859,6.5897,6.5897,6.5897,6.5897,6.5897,6.5897,6.5897,6.5897,6.5897,6.6205,6.659,6.709,6.7398,6.7859,2.3005,2.3564,2.4072,2.6163,2.7604,2.8573,2.8677,2.9633,3.0903,3.2247,3.139,3.0969,0.0,0.0,3.3558,3.4201,3.5712,3.6761,3.6761,3.6761,3.6468,0.0,0.0,0.0,0.0,0.0,0.0,4.0146,0.0,4.1271,4.1271,4.1948,4.3058,4.4513,4.3876,4.4587,4.6718,4.5359,4.4682,4.4682,4.6109,4.6786,4.6853,4.8342,4.9018,4.9018,4.9018,4.9018,4.908,4.9756,5.0969,5.236,5.312,5.4794,5.6822,5.6859,5.7336,5.7997,5.7997,5.7997,5.7997,5.7997,5.7997,5.7997,5.7997,5.7997,5.7997,5.7997,5.7997,5.7997,5.7997,5.7997,5.7997,5.7997,5.7997,5.7997,5.7997,5.7997,5.7997,5.7997,5.7997,5.7997,5.7997,5.7997,5.7997,5.807,5.8731,5.9523,6.0398,6.0602,6.0941,6.175,6.3023,6.3848,6.3863,6.5123,6.5897,6.5897,6.5897,6.5897,6.5897,6.5897,6.5897,6.5897,6.5897,6.5897,6.5974,6.6744,6.7128,6.7244,6.809,6.8513,2.3595,2.4263,2.4855,2.7458,2.9056,3.0012,3.0021,3.1083,3.1977,3.1731,3.0919,3.0242,0.0,0.0,0.0,3.2104,3.4235,0.0,3.5926,3.5926,0.0,3.5633,0.0,3.7144,3.8836,3.9503,0.0,0.0,4.1914,4.2016,4.2016,4.2726,4.3301,4.3707,4.4621,4.5399,4.5974,4.5602,4.5432,4.5432,4.6346,4.6786,4.6853,4.8342,4.9018,4.9018,4.9018,4.9018,4.9114,5.0341,5.1459,5.2502,5.4353,5.5789,5.6859,5.7483,5.7813,5.7997,5.7997,5.7997,5.7997,5.7997,5.7997,5.7997,5.7997,5.7997,5.7997,5.7997,5.7997,5.7997,5.7997,5.7997,5.7997,5.7997,5.7997,5.7997,5.7997,5.7997,5.7997,5.7997,5.7997,5.7997,5.7997,5.7997,5.8217,5.8804,5.9074,5.9301,5.9523,6.0603,6.156,6.2197,6.3427,6.4393,6.4724,6.5468,6.5897,6.5897,6.5897,6.5897,6.5897,6.5897,6.5897,6.5897,6.5897,6.6205,6.6782,6.7013,6.7782,6.9052,6.9283,6.9706,2.4259,2.5107,2.5936,2.8409,3.006,3.0891,3.0265,3.0945,3.1415,3.0275,2.9143,0.0,0.0,0.0,0.0,0.0,0.0,0.0,3.6129,3.6129,3.5994,0.0,3.6299,0.0,3.9309,4.0155,4.1339,0.0,4.2963,4.2794,4.2794,4.3504,4.4215,4.4891,4.5432,4.5872,4.6177,4.6515,4.6346,4.5703,4.6786,4.7124,4.6853,4.8342,4.9018,4.9018,0.0,4.9168,4.956,5.1065,5.2305,5.3504,5.545,5.6645,5.7373,5.7813,5.7997,5.7997,5.7997,5.7997,5.7997,5.7997,5.7997,5.7997,5.7997,5.7997,5.7997,5.7997,5.7997,5.7997,5.7997,5.7997,5.7997,5.7997,5.7997,5.7997,5.7997,5.7997,5.7997,5.7997,5.7997,5.7997,5.7997,5.829,5.8694,5.9111,5.9795,6.0272,6.0272,6.1269,6.2197,6.2864,6.3973,6.4799,6.5083,6.5583,6.5897,6.5897,6.5897,6.5897,6.5897,6.5897,6.5897,6.5897,6.6244,6.6628,6.709,6.7859,6.8744,6.9706,7.0052,7.0475,2.4993,2.6021,2.7031,2.9178,3.0593,3.1133,2.9877,2.9977,2.9906,2.8313,0.0,2.5999,2.6336,2.8349,3.0209,3.092,0.0,3.6524,3.6626,3.666,3.64,3.5825,3.6535,3.7922,4.0028,4.1001,4.2354,4.4445,4.3944,4.3572,4.3572,4.4215,4.5292,4.6752,4.6278,4.6346,4.709,4.7721,4.7348,4.6007,4.7382,4.7653,4.6989,4.8376,4.9018,4.9018,4.9018,0.0,5.0131,5.1665,5.3226,5.4737,5.6244,5.7304,5.7997,5.7997,5.7997,5.7997,5.7997,5.7997,5.7997,5.7997,5.7997,5.7997,5.7997,5.7997,5.7997,5.7997,5.7997,5.7997,5.7997,5.7997,5.7997,5.7997,5.7997,5.7997,5.7997,5.7997,5.7997,5.7997,5.7997,5.8033,5.8143,5.8767,5.9258,5.9478,6.0713,6.1655,6.1825,6.2279,6.2854,6.3627,6.4554,6.513,6.5177,6.5649,6.5897,6.5897,6.5897,6.5897,6.5897,6.6013,6.6051,6.6051,6.6859,6.7321,6.7436,6.8975,6.9744,6.9898,7.0552,7.0898,2.5785,2.663,2.7591,2.9801,3.0543,3.0508,2.9768,2.9252,0.0,0.0,2.5779,2.5199,2.4942,2.725,2.945,3.0176,0.0,0.0,0.0,0.0,3.5994,0.0,0.0,0.0,0.0,0.0,0.0,0.0,0.0,4.4384,4.4384,4.4513,4.5292,4.6752,4.7293,4.7868,4.8612,4.8689,4.8312,4.753,4.834,4.838,4.7767,4.8612,4.9018,4.9018,4.9018,0.0,5.0108,5.1697,5.3262,5.476,5.628,5.734,5.7997,5.7997,5.7997,5.7997,5.7997,5.7997,5.7997,5.7997,5.7997,5.7997,5.7997,5.7997,5.7997,5.7997,5.7997,5.7997,5.7997,5.7997,5.7997,5.7997,5.7997,5.7997,5.7997,5.7997,5.7997,5.7997,5.7997,5.8217,5.8854,5.9111,5.9625,6.097,6.141,6.2008,6.3111,6.3341,6.3617,6.4197,6.4765,6.5276,6.5703,6.5872,6.5897,6.5897,6.5897,6.5897,6.5897,6.6551,6.6898,6.6898,6.7744,6.8552,6.9244,6.9552,7.0052,7.0706,7.0821,7.0898,2.6383,2.6939,2.7611,2.9924,3.0478,3.004,2.866,0.0,0.0,0.0,2.4008,2.37,2.3425,0.0,0.0,0.0,0.0,0.0,0.0,0.0,0.0,0.0,0.0,0.0,0.0,0.0,0.0,0.0,0.0,4.4615,4.4615,4.5326,4.6041,4.6786,4.7902,4.8646,4.9018,4.9286,4.8942,4.7902,4.8971,4.8942,4.7906,4.868,4.9018,4.9018,4.9018,0.0,5.0721,5.232,5.3823,5.5275,5.6855,5.7703,5.7997,5.7997,5.7997,5.7997,5.7997,5.7997,5.7997,5.7997,5.7997,5.7997,5.7997,5.7997,5.7997,5.7997,5.7997,5.7997,5.7997,5.7997,5.7997,5.7997,5.7997,5.7997,5.7997,5.7997,5.7997,5.7997,5.8327,5.8767,5.9111,5.9905,6.0713,6.1484,6.2177,6.2849,6.3512,6.4059,6.45,6.4731,6.5215,6.5597,6.5885,6.5897,6.5897,6.5897,6.5897,6.609,6.6513,6.6898,6.7321,6.7782,6.8629,6.9283,6.9706,7.0129,7.0514,7.0898,7.0898,7.0898,2.6979,2.7383,2.788,3.0132,3.0631,3.0015,2.7936,2.7156,0.0,0.0,2.2523,2.2371,2.27,0.0,0.0,0.0,0.0,0.0,0.0,0.0,0.0,0.0,0.0,0.0,0.0,0.0,0.0,0.0,0.0,0.0,4.4615,4.5974,4.6874,4.7014,4.8477,4.9195,4.9195,5.0033,4.9721,4.8345,4.9786,4.9809,4.8612,4.9184,4.9365,4.9195,4.9195,0.0,0.0,5.283,5.4345,5.578,5.7373,5.7997,5.7997,5.7997,5.7997,5.7997,5.7997,5.7997,5.7997,5.7997,5.7997,5.7997,5.7997,5.7997,5.7997,5.7997,5.7997,5.7997,5.7997,5.7997,5.7997,5.7997,5.7997,5.7997,5.7997,5.7997,5.8033,5.8217,5.8767,5.9294,5.9625,6.075,6.1667,6.1814,6.284,6.3637,6.3766,6.4554,6.5146,6.5261,6.5663,6.5897,6.5897,6.5897,6.5897,6.5897,6.5897,6.6244,6.7051,6.7282,6.7782,6.8667,6.9513,6.9975,6.9975,7.0591,7.0898,7.0898,7.0898,7.0898,2.7639,2.845,2.9233,3.0955,3.1393,3.0848,2.8744,0.0,0.0,2.3917,2.2281,2.1794,2.3897,0.0,0.0,0.0,0.0,3.3478,0.0,0.0,0.0,0.0,0.0,0.0,0.0,0.0,0.0,0.0,0.0,0.0,4.4615,4.5974,4.7101,4.7699,4.9124,4.989,4.989,5.1266,5.1205,4.9815,5.131,5.1599,5.0806,5.0926,5.061,4.989,4.989,0.0,0.0,5.283,5.4345,5.578,5.7373,5.7997,5.7997,5.7997,5.7997,5.7997,5.7997,5.7997,5.7997,5.7997,5.7997,5.7997,5.7997,5.7997,5.7997,5.7997,5.7997,5.7997,5.7997,5.7997,5.7997,5.7997,5.7997,5.7997,5.7997,5.7997,5.8217,5.8951,5.9148,5.9685,6.1117,6.1484,6.1851,6.2585,6.3187,6.3787,6.4255,6.4765,6.5291,6.5781,6.5885,6.5897,6.5897,6.5897,6.5897,6.5897,6.5897,6.6244,6.7051,6.7859,6.8706,6.9552,7.0398,7.0783,7.0783,7.086,7.0898,7.0898,7.0898,7.0898,2.8044,2.8104,2.8136,3.0837,3.0689,2.9599,2.8425,0.0,2.5783,2.3901,2.2933,2.2715,2.3669,0.0,0.0,0.0,0.0,0.0,0.0,0.0,0.0,0.0,0.0,0.0,0.0,0.0,0.0,0.0,0.0,0.0,4.5229,4.6635,4.7748,4.8432,4.9478,5.0004,5.0004,5.1008,5.1008,5.0004,5.1525,5.2086,5.1794,5.1381,5.1296,5.1357,5.0873,0.0,0.0,5.3498,5.4725,5.578,5.7373,5.7997,5.7997,5.7997,5.7997,5.7997,5.7997,5.7997,5.7997,5.7997,5.7997,5.7997,5.7997,5.7997,5.7997,5.7997,5.7997,5.7997,5.7997,5.7997,5.7997,5.7997,5.7997,5.7997,5.7997,5.7997,5.8253,5.9038,5.9588,6.0272,6.141,6.1998,6.2438,6.2743,6.3262,6.3659,6.3892,6.4626,6.5177,6.5403,6.5703,6.5897,6.5897,6.5897,6.5897,6.5897,6.6359,6.7013,6.7859,6.8706,6.959,7.0398,7.0744,7.0898,7.0898,7.0898,7.0898,7.0898,7.0898,7.0898,2.8107,2.8002,2.7934,3.0807,3.0539,2.9406,0.0,0.0,2.6073,2.4117,2.3253,2.304,2.3632,0.0,0.0,0.0,0.0,3.163,0.0,0.0,0.0,0.0,0.0,0.0,0.0,0.0,0.0,0.0,0.0,0.0,4.5974,4.7155,4.8228,4.9211,5.0107,5.0635,5.0635,5.1343,5.1343,5.0635,5.1926,5.2652,5.2885,5.215,5.2087,5.2559,5.1749,0.0,0.0,5.3905,5.5013,5.578,5.7373,5.7997,5.7997,5.7997,5.7997,5.7997,5.7997,5.7997,5.7997,5.7997,5.7997,5.7997,5.7997,5.7997,5.7997,5.7997,5.7997,5.7997,5.7997,5.7997,5.7997,5.7997,5.7997,5.807,5.829,5.8364,5.8657,5.9722,6.0382,6.1006,6.1814,6.2438,6.278,6.278,6.3262,6.3609,6.3609,6.437,6.4971,6.5099,6.5432,6.5717,6.5897,6.5897,6.5897,6.5897,6.6667,6.7475,6.8359,6.9244,7.009,7.0898,7.0898,7.0898,7.0898,7.0898,7.0898,7.0898,7.0898,7.0898,2.7769,2.8564,2.938,3.1102,3.1447,3.0985,0.0,0.0,0.0,2.4708,2.2976,2.221,2.4127,2.4508,0.0,0.0,0.0,0.0,0.0,0.0,0.0,0.0,0.0,0.0,0.0,0.0,0.0,0.0,0.0,0.0,4.6718,4.743,4.8469,4.9918,5.1346,5.2089,5.2089,5.2791,5.2791,5.2089,5.2908,5.3652,5.4334,5.3621,5.3281,0.0,0.0,0.0,0.0,5.3905,5.5013,5.578,5.7373,5.7997,5.7997,5.7997,5.7997,5.7997,5.7997,5.7997,5.7997,5.7997,5.7997,5.7997,5.7997,5.7997,5.7997,5.7997,5.7997,5.7997,5.7997,5.7997,5.7997,5.7997,5.7997,5.8217,5.9001,5.9184,5.9685,6.1263,6.1557,6.1851,6.2658,6.278,6.278,6.278,6.3262,6.3609,6.3609,6.4059,6.4572,6.5067,6.5115,6.5321,6.5833,6.5897,6.5897,6.5897,6.6667,6.7475,6.8359,6.9244,7.009,7.0898,7.0898,7.0898,7.0898,7.0898,7.0898,7.0898,7.0898,7.0898,2.6273,2.658,2.6776,2.8862,2.8872,2.8217,2.7655,0.0,0.0,0.0,0.0,0.0,2.4391,2.532,2.6894,2.9668,0.0,0.0,0.0,0.0,0.0,0.0,0.0,0.0,0.0,0.0,0.0,0.0,0.0,0.0,4.6718,4.7916,4.9003,4.9978,5.0414,5.0929,5.1419,5.1654,5.1874,5.2089,5.2908,5.3964,5.5222,5.446,5.4389,0.0,0.0,0.0,0.0,5.461,5.5418,5.578,5.7373,5.7997,5.7997,5.7997,5.7997,5.7997,5.7997,5.7997,5.7997,5.7997,5.7997,5.7997,5.7997,5.7997,5.7997,5.7997,5.7997,5.7997,5.7997,5.7997,5.7997,5.7997,5.7997,5.807,5.8327,5.8804,5.9515,6.0566,6.1227,6.1851,6.2658,6.278,6.278,6.278,6.2941,6.3062,6.3062,6.3543,6.3934,6.4059,6.4407,6.4971,6.5808,6.5897,6.6128,6.6667,6.7513,6.8398,6.9244,7.009,7.0629,7.0898,7.0898,7.0898,7.0898,7.0898,7.0898,7.0898,7.0898,7.1206,0.0,2.5878,2.6246,2.8179,2.7995,2.7232,0.0,0.0,0.0,0.0,0.0,0.0,0.0,0.0,2.6928,2.8906,2.9499,0.0,0.0,0.0,0.0,0.0,0.0,0.0,0.0,0.0,0.0,0.0,0.0,0.0,4.7085,4.8266,4.9231,4.9998,5.0527,5.1034,5.1469,5.1469,5.185,5.2509,5.3365,5.4395,5.5588,5.5137,5.5346,0.0,0.0,0.0,0.0,5.5831,5.6308,5.6198,5.7813,5.8253,5.7997,5.7997,5.7997,5.7997,5.7997,5.7997,5.7997,5.7997,5.7997,5.7997,5.7997,5.7997,5.7997,5.7997,5.7997,5.7997,5.7997,5.7997,5.7997,5.7997,5.7997,5.818,5.8767,5.9318,5.9955,6.108,6.1704,6.2218,6.2732,6.278,6.278,6.278,6.278,6.278,6.278,6.3073,6.3363,6.3587,6.4059,6.4734,6.5542,6.5583,6.6035,6.7051,6.7936,6.8783,6.9667,7.0475,7.0898,7.0898,7.0898,7.0898,7.0898,7.0898,7.0898,7.0898,7.1245,7.1668,0.0,2.5908,2.706,2.8346,2.8125,2.7434,0.0,0.0,0.0,0.0,0.0,0.0,0.0,0.0,2.6201,2.779,2.8653,0.0,0.0,0.0,0.0,0.0,0.0,0.0,0.0,0.0,0.0,0.0,0.0,0.0,4.7664,4.8474,4.9236,4.997,5.1343,5.2042,5.2042,5.2042,5.244,5.3277,5.4108,5.4918,5.5684,5.5765,5.614,0.0,0.0,0.0,0.0,5.7299,5.7556,5.7116,5.8524,5.8731,5.8143,5.8033,5.807,5.8143,5.8033,5.8033,5.807,5.8033,5.7997,5.7997,5.7997,5.7997,5.7997,5.7997,5.7997,5.7997,5.7997,5.7997,5.7997,5.7997,5.7997,5.8437,5.9979,6.0382,6.086,6.2438,6.2768,6.278,6.278,6.278,6.278,6.278,6.278,6.278,6.278,6.278,6.299,6.3498,6.3998,6.4536,6.5019,6.5115,6.5733,6.7115,6.7936,6.8821,6.9744,7.0514,7.0898,7.0898,7.0898,7.0898,7.0898,7.0898,7.0937,7.1014,7.1745,7.2206,2.243,0.0,2.3589,2.4328,2.4612,2.4594,0.0,0.0,0.0,0.0,0.0,0.0,0.0,0.0,0.0,0.0,0.0,0.0,0.0,0.0,0.0,0.0,0.0,0.0,0.0,0.0,0.0,0.0,0.0,4.6094,4.7009,4.823,4.9236,4.997,5.0876,5.1343,5.1343,5.1343,5.2294,5.4142,5.4362,5.5208,5.6506,5.6599,5.6685,0.0,0.0,0.0,5.6565,5.6932,5.7703,5.8597,5.8364,5.8914,5.9685,5.8437,5.8767,5.9648,5.8437,5.84,5.8841,5.8217,5.7997,5.7997,5.7997,5.7997,5.7997,5.7997,5.7997,5.7997,5.7997,5.7997,5.7997,5.7997,5.7997,5.8253,5.9258,5.9979,6.0676,6.1704,6.2401,6.278,6.278,6.278,6.278,6.278,6.278,6.278,6.278,6.278,6.2855,6.2965,6.3476,6.3978,6.4518,6.5261,6.6396,6.8,6.8282,6.909,7.0552,7.0783,7.0898,7.0898,7.0898,7.0898,7.0898,7.0898,7.1245,7.186,7.1398,7.2245,2.1013,2.2195,2.3428,2.4468,2.4414,2.4127,2.4363,0.0,0.0,0.0,0.0,0.0,0.0,0.0,0.0,0.0,0.0,0.0,0.0,0.0,0.0,0.0,0.0,0.0,0.0,0.0,0.0,0.0,0.0,4.6656,4.7683,4.8803,4.9617,5.0004,5.0716,5.1241,5.1544,5.1544,5.2509,5.4399,5.4834,5.566,5.6799,5.7242,5.7375,0.0,0.0,0.0,5.7923,5.8327,5.8744,5.9221,5.9538,5.9722,5.9795,5.9281,5.9648,6.0236,5.8988,5.8584,5.8584,5.8143,5.7997,5.7997,5.7997,5.7997,5.7997,5.7997,5.7997,5.7997,5.7997,5.7997,5.7997,5.7997,5.829,5.8767,5.9575,6.0382,6.119,6.1998,6.2511,6.278,6.278,6.278,6.278,6.278,6.278,6.278,6.278,6.278,6.278,6.278,6.352,6.4209,6.4898,6.5864,6.7013,6.8321,6.8783,6.959,7.086,7.0898,7.0898,7.0898,7.0898,7.1091,7.1514,7.1514,7.1937,7.2783,7.2706,7.3399,2.0181,2.2285,2.4485,2.5547,2.4975,2.4269,0.0,0.0,0.0,0.0,0.0,0.0,0.0,0.0,0.0,0.0,0.0,0.0,0.0,0.0,0.0,0.0,0.0,0.0,0.0,0.0,0.0,0.0,0.0,4.7379,4.8659,4.9453,4.989,5.0004,5.0716,5.1419,5.2089,5.2112,5.2875,5.4415,5.52,5.6043,5.6832,5.762,5.7997,5.7997,0.0,0.0,5.9404,6.0015,6.0052,5.9845,6.097,6.0676,5.9648,6.0199,6.0419,6.0272,5.9478,5.8694,5.7997,5.7997,5.7997,5.7997,5.7997,5.7997,5.7997,5.7997,5.7997,5.7997,5.7997,5.7997,5.7997,5.7997,5.8621,5.9404,6.0236,6.1043,6.1851,6.2658,6.278,6.278,6.278,6.278,6.278,6.278,6.278,6.278,6.278,6.278,6.278,6.278,6.368,6.4595,6.537,6.6491,6.7537,6.8346,6.9206,7.0052,7.086,7.0898,7.0975,7.1091,7.1091,7.1514,7.2399,7.2399,7.2822,7.3707,7.4284,7.4668,2.0852,2.2711,2.3983,2.2291,2.2134,2.2362,0.0,0.0,0.0,0.0,0.0,0.0,0.0,0.0,0.0,0.0,0.0,0.0,0.0,0.0,0.0,0.0,0.0,0.0,0.0,0.0,0.0,0.0,0.0,0.0,4.8014,4.8761,4.9402,4.9976,5.0716,5.1419,5.2089,5.2112,5.2894,5.4508,5.5254,5.6035,5.6884,5.7653,5.7997,5.7997,0.0,5.8841,6.0162,5.9588,6.0505,6.212,6.1043,6.086,6.1153,6.0603,6.0419,6.0272,5.9478,5.8694,5.7997,5.7997,5.7997,5.7997,5.7997,5.7997,5.7997,5.7997,5.7997,5.7997,5.7997,5.7997,5.7997,5.7997,5.8621,5.9404,6.0236,6.1043,6.1851,6.2658,6.278,6.278,6.278,6.278,6.278,6.278,6.278,6.278,6.278,6.278,6.278,6.278,6.334,6.395,6.4539,6.6383,6.7752,6.8371,6.9206,7.0052,7.086,7.0898,7.1245,7.1975,7.2014,7.2437,7.3322,7.3322,7.3707,7.4514,7.3937,7.4437,2.0562,2.1553,2.2366,2.2274,2.3759,0.0,0.0,0.0,0.0,0.0,0.0,0.0,0.0,0.0,0.0,0.0,0.0,0.0,0.0,0.0,0.0,0.0,0.0,0.0,0.0,0.0,0.0,0.0,0.0,0.0,4.8477,4.8815,4.9316,4.9976,5.0716,5.1241,5.1544,5.2318,5.3291,5.4506,5.5683,5.6499,5.6938,5.7679,5.7997,5.7997,0.0,5.8657,5.9735,5.9808,6.0493,6.152,6.1667,6.141,6.0896,6.0529,6.0419,6.0272,5.9478,5.8694,5.7997,5.7997,5.7997,5.7997,5.7997,5.7997,5.7997,5.7997,5.7997,5.7997,5.7997,5.7997,5.7997,5.7997,5.8951,5.9942,6.0309,6.1374,6.2365,6.2732,6.278,6.278,6.278,6.278,6.278,6.278,6.278,6.278,6.278,6.278,6.278,6.278,6.3285,6.4166,6.5653,6.6885,6.8227,6.964,7.0129,7.0514,7.0898,7.0898,7.1091,7.1475,7.1937,7.2629,7.3514,7.3937,7.4591,7.5399,7.5014,7.5245,2.0268,2.0758,2.1503,0.0,0.0,0.0,0.0,0.0,0.0,0.0,0.0,0.0,0.0,0.0,0.0,0.0,0.0,0.0,0.0,0.0,0.0,0.0,0.0,0.0,0.0,0.0,0.0,0.0,0.0,0.0,4.8951,4.9018,4.9316,4.9976,5.0716,5.1086,5.1086,5.2709,5.3684,5.4025,5.5704,5.6552,5.6642,5.757,5.7997,5.7997,5.8217,5.8731,5.9515,6.0346,6.0786,6.108,6.2108,6.1777,6.0639,6.0272,6.0382,6.0529,5.9355,5.8657,5.8253,5.807,5.7997,5.8033,5.8217,5.8143,5.8033,5.8217,5.8143,5.7997,5.7997,5.7997,5.7997,5.7997,5.9245,6.0419,6.0419,6.1667,6.278,6.278,6.278,6.278,6.278,6.278,6.278,6.278,6.278,6.278,6.278,6.278,6.278,6.278,6.3353,6.4672,6.6973,6.7749,6.8908,7.0769,7.0898,7.0898,7.0898,7.0898,7.1091,7.1514,7.2168,7.3014,7.4091,7.4707,7.5361,7.6015,7.6015,7.6015,2.0505,2.1595,0.0,0.0,0.0,0.0,0.0,0.0,0.0,0.0,0.0,0.0,0.0,0.0,0.0,0.0,0.0,0.0,0.0,0.0,0.0,0.0,0.0,0.0,0.0,0.0,0.0,0.0,0.0,0.0,4.8951,4.9018,4.9316,4.9976,5.0716,5.1086,5.1086,5.3319,5.3735,5.2467,5.4723,5.5773,5.5836,5.7315,5.7997,5.8033,5.8804,5.9551,6.0382,6.119,6.1961,6.256,6.1924,6.163,6.1337,5.9832,6.0236,6.119,5.8877,5.8547,5.8964,5.8253,5.7997,5.8143,5.8914,5.8584,5.8143,5.8891,5.8584,5.7997,5.7997,5.7997,5.7997,5.7997,5.9245,6.0419,6.0419,6.1667,6.278,6.278,6.278,6.278,6.278,6.278,6.278,6.278,6.278,6.278,6.278,6.278,6.278,6.278,6.3553,6.5147,6.7801,6.8967,6.9948,7.086,7.0898,7.0898,7.0898,7.0898,7.1668,7.3283,7.336,7.4207,7.5822,7.5861,7.5938,7.6015,7.6015,7.6015,2.0019,2.1355,0.0,0.0,0.0,0.0,0.0,0.0,0.0,0.0,0.0,0.0,0.0,0.0,0.0,0.0,0.0,0.0,0.0,0.0,0.0,0.0,0.0,0.0,0.0,0.0,0.0,0.0,0.0,0.0,0.0,4.9018,4.9316,4.9976,5.0251,5.0662,5.1186,5.2453,5.3083,5.3077,5.5365,5.6433,5.6474,5.7522,5.7997,5.8033,5.8877,5.9368,5.9758,6.1043,6.1777,6.2034,6.1704,6.1594,6.141,5.9771,6.0236,6.1263,5.8841,5.8841,5.9722,5.8437,5.8327,5.8804,5.9111,5.8657,5.818,5.8964,5.8621,5.7997,5.7997,5.7997,5.7997,5.7997,5.9245,6.0419,6.0419,6.1667,6.278,6.278,6.278,6.278,6.278,6.278,6.278,6.278,6.278,6.278,6.278,6.278,6.278,6.278,6.4339,6.5911,6.7218,6.8943,7.0218,7.0846,7.0898,7.0898,7.0898,7.0898,7.1475,7.2668,7.3206,7.4053,7.5207,7.5745,7.6015,7.6015,7.6015,7.6015,2.0322,2.1297,0.0,0.0,0.0,0.0,0.0,0.0,0.0,0.0,0.0,0.0,0.0,0.0,0.0,0.0,0.0,0.0,0.0,0.0,0.0,0.0,0.0,0.0,0.0,0.0,0.0,0.0,0.0,0.0,0.0,4.9018,4.9316,4.9976,5.0247,5.0628,5.1182,5.2186,5.3063,5.3847,5.5648,5.6642,5.6938,5.7679,5.7997,5.807,5.9134,5.9588,5.9698,6.1337,6.1667,6.1263,6.1777,6.1667,6.1117,6.0272,6.0823,6.163,5.9208,5.9281,6.0126,5.851,5.8364,5.8877,5.9111,5.8657,5.818,5.8964,5.8621,5.7997,5.7997,5.7997,5.7997,5.7997,5.9245,6.0419,6.0419,6.1667,6.278,6.278,6.278,6.278,6.278,6.278,6.278,6.278,6.278,6.278,6.278,6.278,6.3,6.3539,6.511,6.6528,6.7577,6.9165,7.033,7.0871,7.0898,7.0898,7.0898,7.0898,7.1437,7.2591,7.3206,7.4053,7.513,7.5707,7.6015,7.6015,7.6015,7.6015,2.1613,0.0,0.0,0.0,0.0,0.0,0.0,0.0,0.0,0.0,0.0,0.0,0.0,0.0,0.0,0.0,0.0,0.0,0.0,0.0,0.0,0.0,0.0,0.0,0.0,0.0,0.0,0.0,0.0,0.0,0.0,0.0,4.9316,4.9976,5.0766,5.1216,5.1216,5.2675,5.3788,5.4611,5.5334,5.6114,5.6938,5.7679,5.7997,5.807,5.9722,6.0419,6.0529,6.2144,6.1851,6.0566,6.2181,6.1814,6.0493,6.13,6.2108,6.2413,6.0028,5.9735,6.0126,5.8547,5.7997,5.818,5.8964,5.8657,5.818,5.8964,5.8621,5.7997,5.7997,5.7997,5.7997,5.7997,5.9245,6.0419,6.0419,6.1667,6.278,6.278,6.278,6.278,6.278,6.278,6.278,6.278,6.278,6.278,6.278,6.278,6.3441,6.5118,6.5777,6.6955,6.9121,6.9793,7.033,7.0871,7.0898,7.0898,7.0898,7.0898,7.1706,7.3476,7.3514,7.4322,7.6015,7.6015,7.6015,7.6015,7.6015,7.6015,1.9586,0.0,0.0,0.0,0.0,0.0,0.0,0.0,0.0,0.0,0.0,0.0,0.0,0.0,0.0,0.0,0.0,0.0,0.0,0.0,0.0,0.0,0.0,0.0,0.0,0.0,0.0,0.0,0.0,0.0,0.0,0.0,0.0,0.0,5.0305,5.0918,5.1943,5.242,5.3275,5.462,5.4799,5.5893,5.7679,5.7904,5.7997,5.807,5.9722,6.0419,6.0529,6.2144,6.1851,6.0566,6.2181,6.1459,5.9722,6.108,6.1741,6.1704,5.9845,6.0126,6.0896,5.8694,5.8767,5.9722,5.9979,5.9501,5.9134,6.0493,5.9501,5.8143,5.8694,5.8437,5.7997,5.7997,5.9245,6.0419,6.0419,6.1667,6.278,6.278,6.278,6.278,6.278,6.278,6.278,6.278,6.278,6.278,6.278,6.278,6.2964,6.3477,6.4745,6.6105,6.75,6.8791,6.9939,7.0857,7.0898,7.0898,7.0898,7.0898,7.1706,7.3476,7.3514,7.4322,7.6015,7.6015,7.6015,7.6015,7.6015,7.6015,0.0,0.0,0.0,0.0,0.0,0.0,0.0,0.0,0.0,0.0,0.0,0.0,0.0,0.0,0.0,0.0,0.0,0.0,0.0,0.0,0.0,0.0,0.0,0.0,0.0,0.0,0.0,0.0,0.0,0.0,0.0,0.0,0.0,0.0,5.0371,5.1116,5.23,5.2604,5.3403,5.4606,5.4606,5.5638,5.7546,5.7546,5.7726,5.807,5.9722,6.0786,6.1447,6.2401,6.2034,6.1006,6.2328,6.1496,5.9845,6.1484,6.1851,6.1447,6.0493,6.0566,6.0823,5.9061,5.9134,5.9869,5.9538,5.9355,5.9404,6.0382,5.9355,5.8253,5.9391,5.8841,5.7997,5.7997,5.9245,6.0419,6.0419,6.1667,6.278,6.278,6.278,6.278,6.278,6.278,6.278,6.278,6.278,6.278,6.278,6.278,6.2952,6.3282,6.453,6.5853,6.7273,6.8578,6.9757,7.0819,7.0898,7.0898,7.0898,7.1245,7.2052,7.3476,7.3822,7.463,7.6015,7.6015,7.6015,7.6015,7.6015,7.6015,0.0,0.0,0.0,0.0,0.0,0.0,0.0,0.0,0.0,0.0,0.0,0.0,0.0,0.0,0.0,0.0,0.0,0.0,0.0,0.0,0.0,0.0,0.0,0.0,0.0,0.0,0.0,0.0,0.0,0.0,0.0,0.0,0.0,5.0168,5.0913,5.1657,5.2401,5.3145,5.3849,0.0,5.4513,5.5297,5.6773,5.6861,5.7375,5.829,5.9832,6.1374,6.278,6.278,6.2328,6.1667,6.2511,6.1777,6.0493,6.2108,6.2181,6.1484,6.1484,6.1006,6.0272,5.9441,5.9258,5.9148,5.8364,5.8731,5.9404,5.9404,5.8804,5.8474,6.0089,5.9245,5.8033,5.8107,5.9281,6.0419,6.0419,6.1667,6.278,6.278,6.278,6.278,6.278,6.278,6.278,6.278,6.278,6.278,6.278,6.278,6.3135,6.4016,6.4824,6.6038,6.7932,6.8822,6.9757,7.0819,7.0898,7.0898,7.0898,7.1745,7.2591,7.3462,7.4284,7.513,7.6015,7.6015,7.6015,7.6015,7.6015,7.6015,0.0,0.0,0.0,0.0,0.0,0.0,0.0,0.0,0.0,0.0,0.0,0.0,0.0,0.0,0.0,0.0,0.0,0.0,0.0,0.0,0.0,0.0,0.0,0.0,0.0,0.0,0.0,0.0,0.0,0.0,0.0,0.0,0.0,5.0947,5.1691,5.2435,5.3247,5.3416,5.3584,0.0,5.375,5.4516,5.5976,5.6616,5.7981,5.9942,6.0933,6.1887,6.278,6.278,6.2328,6.1667,6.2511,6.1423,5.9625,6.1263,6.1337,6.0676,6.0676,6.0529,6.0272,5.9441,5.9648,6.0015,5.9184,5.9942,6.108,6.108,6.0052,5.9318,6.0933,5.9685,5.8143,5.8804,5.9685,6.0419,6.0419,6.1667,6.278,6.278,6.278,6.278,6.278,6.278,6.278,6.278,6.278,6.278,6.278,6.278,6.3135,6.4016,6.4824,6.6038,6.7932,6.8822,6.9757,7.0819,7.0898,7.0898,7.0898,7.1745,7.2591,7.3462,7.4284,7.513,7.6015,7.6015,7.6015,7.6015,7.6015,7.6015,0.0,0.0,0.0,0.0,0.0,0.0,0.0,0.0,0.0,0.0,0.0,0.0,0.0,0.0,0.0,0.0,0.0,0.0,0.0,0.0,0.0,0.0,0.0,0.0,0.0,0.0,0.0,0.0,0.0,0.0,0.0,4.9898,5.0608,5.1691,5.2097,5.2706,5.3484,5.3518,5.3518,5.3518,5.3112,5.3714,5.5249,5.7118,5.8896,6.0456,6.1263,6.2071,6.2743,6.2401,6.2218,6.2144,6.1814,6.1117,6.0419,6.086,6.075,6.0456,6.086,6.0456,5.9905,6.0236,6.0126,5.9758,5.9331,6.0052,6.0933,6.0566,5.9869,5.9478,6.0713,5.9501,5.8217,5.9001,5.9832,6.0419,6.0419,6.1667,6.278,6.278,6.278,6.278,6.278,6.278,6.278,6.278,6.278,6.278,6.278,6.278,6.3135,6.4016,6.5053,6.6356,6.7952,6.9077,7.0044,7.0857,7.0898,7.0898,7.0898,7.2129,7.3053,7.35,7.4707,7.5553,7.6015,7.6015,7.6015,7.6015,7.6015,7.6015,0.0,0.0,0.0,0.0,0.0,0.0,0.0,0.0,0.0,0.0,0.0,0.0,0.0,0.0,0.0,0.0,0.0,0.0,0.0,0.0,0.0,0.0,0.0,0.0,0.0,0.0,0.0,0.0,0.0,0.0,5.0067,5.0338,5.1048,5.2266,5.2435,5.2841,5.3484,5.3518,5.345,5.3281,5.3034,5.3567,5.4901,5.8153,5.9905,6.0456,6.141,6.2181,6.2768,6.1924,6.1998,6.2475,6.097,6.0823,6.13,6.0493,6.0382,6.0676,6.119,6.0529,5.9625,6.1117,6.0603,5.9368,5.9221,5.9979,6.0639,5.9661,5.9515,5.9795,6.0419,5.9428,5.8364,5.9038,5.9698,6.0236,6.0382,6.1667,6.278,6.278,6.278,6.278,6.278,6.278,6.278,6.278,6.278,6.278,6.278,6.2952,6.3356,6.42,6.5517,6.6843,6.8198,6.9431,7.033,7.0871,7.0898,7.0898,7.0898,7.2591,7.3514,7.3514,7.5168,7.6015,7.6015,7.6015,7.6015,7.6015,7.6015,7.6015,0.0,0.0,0.0,0.0,0.0,0.0,0.0,0.0,0.0,0.0,0.0,0.0,0.0,0.0,0.0,0.0,0.0,0.0,0.0,0.0,0.0,0.0,0.0,0.0,0.0,0.0,0.0,0.0,0.0,0.0,5.0067,5.1319,5.2097,5.23,5.2976,5.3382,5.3518,5.3518,5.3145,5.2502,5.4395,5.5423,5.5692,5.9517,6.097,6.0493,6.1998,6.267,6.2768,6.1924,6.1667,6.1667,6.075,6.0456,6.0456,5.9685,6.0236,6.1374,6.075,6.0419,6.0382,6.13,6.097,6.0126,5.9404,6.0725,6.2181,6.0676,6.075,6.13,6.141,6.0236,5.9074,5.9148,5.9258,5.9551,6.0272,6.1667,6.278,6.278,6.278,6.278,6.278,6.278,6.278,6.278,6.278,6.278,6.278,6.3466,6.4237,6.5044,6.6345,6.7681,6.9046,6.9717,7.033,7.0871,7.0898,7.0898,7.0898,7.2591,7.3514,7.3514,7.5168,7.6015,7.6015,7.6015,7.6015,7.6015,7.6015,7.6015,0.0,0.0,0.0,0.0,0.0,0.0,0.0,0.0,0.0,0.0,0.0,0.0,0.0,0.0,0.0,0.0,0.0,0.0,0.0,0.0,0.0,0.0,0.0,0.0,0.0,0.0,0.0,0.0,0.0,5.027,5.071,5.1725,5.2503,5.2976,5.3315,5.3281,5.2841,5.3281,5.331,5.2972,5.4425,5.5348,5.5844,5.8908,6.0309,6.0493,6.2108,6.2548,6.2108,6.1741,6.1337,6.0896,6.0529,6.0676,6.0933,5.9685,6.0236,6.1484,6.0676,6.0126,5.9992,6.1741,6.1117,5.9832,6.0382,6.097,6.13,6.0603,6.0639,6.0823,6.0382,5.9735,5.9074,5.8621,5.9245,5.9979,6.0309,6.13,6.2254,6.2732,6.278,6.278,6.278,6.278,6.278,6.278,6.278,6.2989,6.3466,6.387,6.4683,6.6235,6.7218,6.8286,6.9625,7.025,7.0652,7.0885,7.0898,7.1129,7.1591,7.2822,7.3692,7.4168,7.5399,7.6015,7.6015,7.6015,7.6015,7.6015,7.6015,7.6015,0.0,0.0,0.0,0.0,0.0,0.0,0.0,0.0,0.0,0.0,0.0,0.0,0.0,0.0,0.0,0.0,0.0,0.0,0.0,0.0,0.0,0.0,0.0,0.0,0.0,0.0,0.0,0.0,0.0,5.0608,5.1183,5.2097,5.2875,5.3484,5.3518,5.3112,5.23,5.2536,5.3124,5.4072,5.4465,5.5231,5.6442,5.8518,5.9722,6.0199,6.1814,6.2034,6.13,6.13,6.0823,6.0126,6.0126,6.0456,6.086,5.9625,6.0236,6.1447,6.0456,5.9832,5.9845,6.1851,6.1153,5.9795,6.1153,6.119,6.0676,6.0456,6.0566,6.0456,5.9441,5.9478,5.9501,5.829,5.9245,6.0529,6.0933,6.1484,6.2071,6.2695,6.278,6.278,6.278,6.278,6.278,6.278,6.278,6.3135,6.398,6.4273,6.5176,6.7063,6.7948,6.8868,6.9985,7.0608,7.0898,7.0898,7.0898,7.1283,7.2168,7.3053,7.3899,7.4668,7.5553,7.6015,7.6015,7.6015,7.6015,7.6015,7.6015,7.6015,0.0,0.0,0.0,0.0,0.0,0.0,0.0,0.0,0.0,0.0,0.0,0.0,0.0,0.0,0.0,0.0,0.0,0.0,0.0,0.0,0.0,0.0,0.0,0.0,0.0,0.0,0.0,0.0,0.0,5.1183,5.1185,5.2638,5.345,5.3518,5.3518,5.3112,5.23,5.0947,5.2066,5.5596,5.4993,5.5841,5.795,5.9588,5.9942,5.9331,6.097,6.119,6.0456,6.0456,6.0015,5.9258,5.9258,5.9294,5.9294,5.9221,6.0236,6.1374,5.9832,5.9735,6.0493,6.1374,6.1043,6.0493,6.1337,6.1557,6.1374,6.0603,6.0933,6.119,5.9588,6.0346,6.0896,5.8547,5.9245,6.0823,6.2365,6.2732,6.2743,6.278,6.278,6.278,6.278,6.278,6.278,6.278,6.278,6.3135,6.398,6.4787,6.5778,6.7137,6.8452,6.9493,7.0061,7.0608,7.0898,7.0898,7.0898,7.1283,7.2168,7.3053,7.3899,7.4668,7.5553,7.6015,7.6015,7.6015,7.6015,7.6015,7.6015,7.6015,0.0,0.0,0.0,0.0,0.0,0.0,0.0,0.0,0.0,0.0,0.0,0.0,0.0,0.0,0.0,0.0,0.0,0.0,0.0,0.0,0.0,0.0,0.0,0.0,0.0,0.0,0.0,0.0,0.0,0.0,5.1894,5.2435,5.2739,5.2739,5.2266,5.1894,5.1623,5.0135,5.127,5.4973,5.4248,5.5374,5.8033,5.8584,5.8694,5.851,5.9612,5.9905,5.9661,6.0199,5.9612,5.8584,6.0126,6.0126,5.9258,5.9795,6.0676,6.1374,5.9735,5.9735,6.0456,6.075,6.0309,5.9795,6.0603,6.0456,6.0236,6.097,6.0639,6.0052,6.0015,6.0015,5.9979,5.9612,6.0382,6.1484,6.256,6.278,6.278,6.278,6.278,6.278,6.278,6.278,6.278,6.278,6.278,6.3319,6.4677,6.5118,6.6137,6.835,6.9001,6.9664,7.0524,7.0791,7.0898,7.0898,7.0898,7.1552,7.2976,7.3322,7.413,7.5515,7.5822,7.6015,7.6015,7.6015,7.6015,7.6015,7.6015,7.6015,0.0,0.0,0.0,0.0,0.0,0.0,0.0,0.0,0.0,0.0,0.0,0.0,0.0,0.0,0.0,0.0,0.0,0.0,0.0,0.0,0.0,0.0,0.0,0.0,0.0,0.0,0.0,0.0,0.0,0.0,5.2266,5.2063,5.1928,5.1928,5.1217,5.0947,5.1185,4.9999,5.115,5.4633,5.3859,5.4955,5.7604,5.735,5.7364,5.7655,5.8178,5.8701,5.9221,5.9795,5.9391,5.8547,6.0162,5.9979,5.8914,5.9722,6.0346,6.0603,5.9281,5.9318,6.0015,6.0015,5.9625,5.9331,6.0162,5.9832,5.9404,6.0493,6.0015,5.9258,5.9538,5.9391,5.9478,6.0566,6.119,6.1814,6.2658,6.278,6.278,6.278,6.278,6.278,6.278,6.278,6.278,6.278,6.3062,6.3759,6.5118,6.5558,6.6544,6.8784,6.919,6.9664,7.0578,7.0791,7.0898,7.0898,7.0898,7.1668,7.3423,7.3514,7.4284,7.5976,7.6015,7.6015,7.6015,7.6015,7.6015,7.6015,7.6015,7.6015,0.0,0.0,0.0,0.0,0.0,0.0,0.0,0.0,0.0,0.0,0.0,0.0,0.0,0.0,0.0,0.0,0.0,0.0,0.0,0.0,0.0,0.0,0.0,0.0,0.0,0.0,0.0,0.0,0.0,5.0744,5.2232,5.1589,5.1183,5.115,5.0439,5.0405,5.1117,5.0439,5.1657,5.4626,5.3871,5.468,5.6843,5.6042,5.6114,5.6912,5.6912,5.7763,5.9184,5.9148,5.9148,5.9148,5.9184,5.8731,5.8107,5.8891,5.9184,5.9074,5.829,5.8547,5.9184,5.9148,5.9184,5.9331,6.0126,5.9795,5.9184,5.9184,5.9184,5.8964,5.8217,5.8621,5.9648,6.119,6.1594,6.1851,6.2658,6.278,6.278,6.278,6.278,6.278,6.278,6.278,6.278,6.278,6.3503,6.4347,6.5191,6.5999,6.6994,6.8366,6.8978,6.953,7.0061,7.0608,7.0898,7.0898,7.0898,7.1668,7.3423,7.3514,7.4284,7.5976,7.6015,7.6015,7.6015,7.6015,7.6015,7.6015,7.6015,7.6015,1.5591,0.0,0.0,0.0,0.0,0.0,0.0,0.0,0.0,0.0,0.0,0.0,0.0,0.0,0.0,0.0,0.0,0.0,0.0,0.0,0.0,0.0,0.0,0.0,0.0,0.0,0.0,0.0,5.0304,5.0744,5.2232,5.1082,5.0168,4.9627,4.9424,4.939,4.9627,4.9932,5.108,5.3033,5.3355,5.44,5.6007,5.5794,5.6114,5.6912,5.6912,5.7763,5.9148,5.8584,5.8327,5.84,5.8964,5.8731,5.8107,5.8891,5.9184,5.9074,5.829,5.8547,5.9074,5.851,5.8731,5.9111,5.8767,5.8914,5.9184,5.9184,5.8804,5.829,5.807,5.9024,6.0199,6.0639,6.163,6.2548,6.2743,6.278,6.278,6.278,6.278,6.278,6.278,6.278,6.278,6.278,6.3025,6.3686,6.5118,6.5485,6.6367,6.8291,6.8978,6.953,7.0061,7.0608,7.0898,7.0898,7.0898,7.1668,7.3423,7.3514,7.4284,7.5976,7.6015,7.6015,7.6015,7.6015,7.6015,7.6015,7.6015,7.6015,0.0,0.0,0.0,0.0,0.0,0.0,0.0,0.0,0.0,0.0,0.0,0.0,0.0,0.0,0.0,0.0,0.0,0.0,0.0,0.0,0.0,0.0,0.0,0.0,0.0,0.0,0.0,4.9664,4.9729,4.9999,5.0879,5.0405,4.9763,4.9018,4.9018,4.9154,4.9458,5.0202,5.1133,5.2351,5.3141,5.3977,5.4757,5.4757,5.5385,5.6394,5.6394,5.7293,5.8657,5.818,5.8217,5.851,5.8657,5.84,5.807,5.8547,5.8694,5.8621,5.8143,5.8327,5.8621,5.8143,5.8327,5.8621,5.8143,5.8327,5.8694,5.8694,5.8364,5.807,5.84,5.9465,6.0493,6.0823,6.1887,6.278,6.278,6.278,6.278,6.278,6.278,6.278,6.278,6.278,6.278,6.278,6.3429,6.42,6.5191,6.5888,6.678,6.8037,6.8862,6.9433,6.9738,7.0463,7.0898,7.0898,7.0898,7.1668,7.3423,7.3514,7.4284,7.5976,7.6015,7.6015,7.6015,7.6015,7.6015,7.6015,7.6015,7.6015,0.0,0.0,0.0,0.0,0.0,0.0,0.0,0.0,0.0,0.0,0.0,0.0,0.0,0.0,0.0,0.0,0.0,0.0,0.0,0.0,0.0,0.0,0.0,0.0,0.0,4.6887,4.7736,4.8007,4.8714,4.9086,4.9018,4.9627,4.9661,4.9018,4.9018,4.9357,5.0067,5.0845,5.1589,5.23,5.3112,5.3518,5.3518,5.3584,5.4391,5.5724,5.5808,5.6659,5.7997,5.7997,5.8437,5.9024,5.829,5.7997,5.7997,5.7997,5.7997,5.7997,5.7997,5.7997,5.7997,5.7997,5.807,5.8107,5.8033,5.807,5.8107,5.8033,5.7997,5.818,5.8964,5.9795,6.0603,6.141,6.2218,6.278,6.278,6.278,6.278,6.278,6.278,6.278,6.278,6.278,6.278,6.278,6.4163,6.5191,6.5301,6.6623,6.7577,6.7687,6.859,6.9231,6.9292,7.0233,7.0857,7.0898,7.0898,7.1629,7.3283,7.3437,7.4245,7.5822,7.5938,7.6015,7.6015,7.6015,7.6015,7.6015,7.6015,7.6015,0.0,0.0,0.0,0.0,0.0,0.0,0.0,0.0,0.0,0.0,0.0,0.0,0.0,0.0,0.0,0.0,0.0,0.0,0.0,0.0,0.0,0.0,0.0,0.0,0.0,4.5974,4.6887,4.8646,4.9458,4.9627,4.9052,4.9154,4.9154,4.9018,4.9018,4.9357,5.0067,5.0845,5.1589,5.23,5.3112,5.3518,5.3517,5.4106,5.4878,5.5752,5.6367,5.7166,5.7997,5.7997,5.8107,5.8217,5.807,5.7997,5.7997,5.7997,5.7997,5.7997,5.7997,5.7997,5.7997,5.7997,5.8437,5.8877,5.8217,5.8437,5.8817,5.818,5.7997,5.818,5.8964,5.9795,6.0603,6.141,6.2218,6.278,6.278,6.278,6.278,6.278,6.278,6.278,6.278,6.278,6.278,6.278,6.3686,6.4567,6.5228,6.6145,6.699,6.7614,6.8284,6.884,6.9272,6.9865,7.0448,7.0885,7.0898,7.136,7.2399,7.3129,7.3976,7.4938,7.563,7.6015,7.6015,7.6015,7.6015,7.6015,7.6015,7.6015,0.0,0.0,0.0,1.968,0.0,0.0,0.0,0.0,0.0,0.0,0.0,0.0,0.0,0.0,0.0,0.0,0.0,0.0,0.0,0.0,0.0,0.0,0.0,0.0,0.0,4.5466,4.6481,4.8308,4.912,4.939,4.9018,4.9018,4.9018,4.9018,4.9018,4.9526,5.0642,5.1014,5.1792,5.2909,5.3315,5.3518,5.3551,5.4264,5.4994,5.5752,5.6563,5.7327,5.7997,5.7997,5.7997,5.7997,5.7997,5.7997,5.7997,5.7997,5.7997,5.7997,5.7997,5.7997,5.7997,5.7997,5.8253,5.8547,5.8107,5.829,5.851,5.8107,5.7997,5.829,5.9501,6.0126,6.0713,6.1924,6.2511,6.278,6.278,6.278,6.278,6.278,6.278,6.278,6.278,6.278,6.2952,6.3392,6.4163,6.5007,6.5778,6.6586,6.7247,6.765,6.8161,6.8728,6.9251,6.9793,7.033,7.0871,7.0898,7.1283,7.2168,7.3053,7.4091,7.5322,7.5784,7.6015,7.6015,7.6015,7.6015,7.6015,7.6015,7.6015,0.0,0.0,0.0,0.0,0.0,2.1,0.0,0.0,0.0,0.0,0.0,0.0,0.0,0.0,0.0,0.0,0.0,0.0,0.0,0.0,0.0,0.0,0.0,0.0,0.0,4.4181,4.5466,4.753,4.7699,4.8105,4.8951,4.9018,4.9018,4.9018,4.9018,4.9729,5.1217,5.1185,5.1995,5.3518,5.3518,5.3518,5.3551,5.4264,5.4939,5.5552,5.6313,5.7091,5.7774,5.7774,5.7844,5.7997,5.7997,5.7997,5.7997,5.7997,5.7997,5.7997,5.7997,5.7997,5.7997,5.7997,5.7997,5.7997,5.7997,5.7997,5.7997,5.7997,5.8107,5.8584,6.0015,6.0529,6.1006,6.245,6.278,6.278,6.278,6.278,6.278,6.278,6.278,6.278,6.278,6.278,6.3099,6.398,6.4787,6.5595,6.6402,6.7173,6.7687,6.7687,6.8097,6.8544,6.9106,6.9645,7.0162,7.0695,7.0819,7.1206,7.1898,7.2937,7.4284,7.5976,7.6015,7.6015,7.6015,7.6015,7.6015,7.6015,7.6015,7.6015,0.0,0.0,0.0,0.0,2.1807,0.0,0.0,0.0,0.0,0.0,0.0,0.0,0.0,0.0,0.0,0.0,0.0,0.0,0.0,0.0,0.0,0.0,0.0,0.0,0.0,0.0,4.2482,4.6616,4.4519,4.479,4.8781,4.9018,4.9018,4.9018,4.9018,4.9729,5.1217,5.1185,5.1995,5.3518,5.3518,5.3518,5.3551,5.4264,5.4634,5.4757,5.5524,5.6286,5.7015,5.7015,5.7401,5.7997,5.7997,5.7997,5.7997,5.7997,5.7997,5.7997,5.7997,5.7997,5.7997,5.7997,5.7997,5.7997,5.7997,5.7997,5.7997,5.7997,5.851,5.9258,6.0162,6.0933,6.1704,6.2585,6.278,6.278,6.278,6.278,6.278,6.278,6.278,6.278,6.278,6.278,6.3099,6.398,6.4787,6.5595,6.6402,6.7173,6.7687,6.7687,6.7731,6.8033,6.8558,6.9085,6.9626,7.0145,7.0637,7.0937,7.1052,7.2629,7.4284,7.5976,7.6015,7.6015,7.6015,7.6015,7.6015,7.6015,7.6015,7.6015,0.0,0.0,0.0,0.0,0.0,0.0,2.0665,0.0,2.0498,0.0,0.0,0.0,0.0,0.0,0.0,0.0,0.0,0.0,0.0,0.0,0.0,0.0,0.0,0.0,0.0,0.0,0.0,0.0,0.0,4.4248,4.8748,4.9018,4.9018,4.9018,4.9424,5.0135,5.1217,5.1623,5.2401,5.3518,5.3518,5.3518,5.3551,5.4264,5.4606,5.4634,5.5379,5.5893,5.6259,5.6695,5.7065,5.7401,5.7821,5.7997,5.7997,5.7997,5.7997,5.7997,5.7997,5.7997,5.7997,5.7997,5.7997,5.7997,5.7997,5.7997,5.7997,5.7997,5.8584,5.9368,6.0199,6.1006,6.1777,6.2622,6.278,6.278,6.278,6.278,6.278,6.278,6.278,6.278,6.278,6.278,6.3246,6.4604,6.5081,6.5778,6.7026,6.7467,6.7687,6.7687,6.7687,6.7904,6.8464,6.8978,6.953,7.0078,7.0608,7.136,7.236,7.3129,7.4284,7.5976,7.6015,7.6015,7.6015,7.6015,7.6015,7.6015,7.6015,7.6015,2.1265,0.0,0.0,0.0,0.0,0.0,0.0,0.0,0.0,0.0,0.0,0.0,0.0,0.0,0.0,0.0,0.0,0.0,0.0,0.0,0.0,0.0,0.0,0.0,0.0,0.0,0.0,0.0,0.0,0.0,4.868,4.9018,4.9018,4.9018,4.9729,5.0439,5.1185,5.1928,5.2706,5.3518,5.3518,5.3518,5.3551,5.4042,5.4388,5.4637,5.4969,5.532,5.5752,5.634,5.6695,5.6964,5.7726,5.7997,5.7997,5.7997,5.7997,5.7997,5.7997,5.7997,5.7997,5.7997,5.7997,5.7997,5.7997,5.7997,5.7997,5.7997,5.8731,5.9685,6.0272,6.1153,6.2071,6.2658,6.278,6.278,6.278,6.278,6.278,6.278,6.278,6.278,6.278,6.278,6.3392,6.5044,6.5301,6.5888,6.7467,6.7687,6.7687,6.7687,6.7687,6.7863,6.8235,6.8891,6.9588,7.0282,7.0666,7.1668,7.3423,7.3514,7.4284,7.5976,7.6015,7.6015,7.6015,7.6015,7.6015,7.6015,7.6015,7.6015,0.0,0.0,0.0,2.2054,0.0,0.0,0.0,0.0,2.2951,0.0,0.0,0.0,0.0,0.0,0.0,0.0,0.0,0.0,0.0,0.0,0.0,0.0,0.0,0.0,0.0,0.0,0.0,0.0,0.0,0.0,4.8545,4.9018,4.9018,4.9018,4.9729,5.0439,5.1185,5.1928,5.2706,5.3518,5.3518,5.3518,5.3518,5.3517,5.3913,5.4575,5.3848,5.4391,5.5724,5.5752,5.6204,5.6964,5.7726,5.7997,5.7997,5.7997,5.7997,5.7997,5.7997,5.7997,5.7997,5.7997,5.7997,5.7997,5.7997,5.7997,5.7997,5.7997,5.9134,6.0382,6.0382,6.1594,6.2743,6.278,6.278,6.278,6.278,6.278,6.278,6.278,6.278,6.278,6.278,6.278,6.3392,6.5044,6.5301,6.5888,6.7467,6.7687,6.7687,6.7687,6.7687,6.7714,6.7741,6.8682,6.9738,7.0791,7.0885,7.1668,7.3423,7.3514,7.4284,7.5976,7.6015,7.6015,7.6015,7.6015,7.6015,7.6015,7.6015,7.6015,0.0,0.0,2.7597,2.4435,0.0,0.0,0.0,0.0,0.0,0.0,0.0,0.0,0.0,0.0,0.0,0.0,0.0,0.0,0.0,0.0,0.0,0.0,0.0,0.0,0.0,0.0,0.0,0.0,0.0,0.0,0.0,4.9018,4.9018,4.9018,5.0202,5.0947,5.1185,5.2469,5.3247,5.3518,5.3518,5.3518,5.3518,5.3518,5.3651,5.3848,5.3618,5.3783,5.4328,5.5291,5.5865,5.6259,5.7522,5.7997,5.7997,5.7997,5.7997,5.7997,5.7997,5.7997,5.7997,5.7997,5.7997,5.7997,5.7997,5.7997,5.8107,5.8657,5.9575,6.0529,6.1043,6.1998,6.278,6.278,6.278,6.278,6.278,6.278,6.278,6.278,6.278,6.278,6.278,6.3282,6.4016,6.5154,6.5301,6.5888,6.7467,6.7687,6.7687,6.7687,6.7687,6.7687,6.7687,6.8682,6.9607,7.033,7.0681,7.1668,7.3423,7.3514,7.4284,7.5976,7.6015,7.6015,7.6015,7.6015,7.6015,7.6015,7.6015,7.6015,2.8624,2.9252,0.0,2.6381,2.5892,0.0,2.2488,0.0,0.0,0.0,0.0,0.0,0.0,0.0,0.0,0.0,0.0,0.0,0.0,0.0,0.0,0.0,0.0,0.0,0.0,0.0,0.0,0.0,0.0,0.0,0.0,0.0,4.9018,4.9018,5.0439,5.1185,5.1185,5.2739,5.3518,5.3518,5.3518,5.3518,5.3518,5.3518,5.3651,5.3881,5.3618,5.3816,5.4359,5.5291,5.5865,5.6259,5.7522,5.7997,5.7997,5.7997,5.7997,5.7997,5.7997,5.7997,5.7997,5.7997,5.7997,5.7997,5.7997,5.7997,5.8107,5.8621,5.9575,6.0529,6.1043,6.1998,6.278,6.278,6.278,6.278,6.278,6.278,6.278,6.278,6.278,6.278,6.278,6.3503,6.4347,6.5191,6.5558,6.6219,6.7504,6.7687,6.7687,6.7687,6.7687,6.7757,6.7982,6.8795,6.953,7.0078,7.0608,7.1668,7.3423,7.3514,7.413,7.5515,7.5822,7.5861,7.5553,7.5861,7.6015,7.6015,7.6015,7.6015]},{"header":{"parameterUnit":"m.s-1","parameterCategory":1,"la1":30.6,"la2":29.2853,"lo1":-89.7004,"lo2":-87.6739,"dx":0.0162,"dy":0.0183,"nx":112,"ny":82,"refTime":"2023-01-12T06:00:00:Z","depth":0,"parameterNumber":3,"parameterNumberName":"V-component_of_WINDS"},"data":[0.0,0.0,0.0,0.0,0.0,0.0,0.0,0.0,0.0,0.0,0.0,0.0,0.0,0.0,0.0,0.0,0.0,0.0,0.0,0.0,0.0,0.0,0.0,0.0,0.0,0.0,0.0,0.0,0.0,0.0,0.0,0.0,0.0,0.0,0.0,0.0,0.0,0.0,0.0,0.0,0.0,0.0,0.0,0.0,0.0,0.0,0.0,0.0,0.0,0.0,0.0,0.0,0.0,0.0,0.0,0.0,0.0,0.0,0.0,0.0,0.0,0.0,0.0,0.0,0.0,0.0,0.0,0.0,0.0,0.0,0.0,0.0,0.0,0.0,0.0,0.0,0.0,0.0,0.0,0.0,0.0,0.0,0.0,0.0,0.0,0.0,0.0,0.0,0.0,0.0,0.4847,0.6171,0.8098,0.9364,0.9492,1.0174,0.9646,0.7424,0.0,0.0,0.0,0.0,0.0,0.0,0.0,0.0,0.0,0.0,0.0,0.0,0.0,0.0,0.0,0.0,0.0,0.0,0.0,0.0,0.0,0.0,0.0,0.0,0.0,0.0,0.0,0.0,0.0,0.0,0.0,0.0,0.0,0.0,0.0,0.0,0.0,0.0,0.0,0.0,0.0,0.0,0.0,0.0,0.0,0.0,0.0,0.0,0.0,0.0,0.0,0.0,0.0,0.0,0.0,0.0,0.0,0.0,0.0,0.0,0.0,0.0,0.0,0.0,0.0,0.0,0.0,0.0,0.0,0.0,0.0,0.0,0.0,0.0,0.0,0.0,0.0,0.0,0.0,0.0,0.0,0.0,0.0,0.0,0.0,0.0,0.0,0.0,0.0,0.0,0.0,0.0,0.0,0.0,0.0,0.0,0.0,0.0,0.0,0.0,0.0,0.0,0.0,0.0,0.4762,0.7425,0.8644,0.96,1.0333,1.0523,0.9646,0.7424,0.0,0.0,0.0,0.0,0.0,0.0,0.0,0.0,0.0,0.0,0.0,0.0,0.0,0.0,0.0,0.0,0.0,0.0,0.0,0.0,0.0,0.0,0.0,0.0,0.0,0.0,0.0,0.0,0.0,0.0,0.0,0.0,0.0,0.0,0.0,0.0,0.0,0.0,0.0,0.0,0.0,0.0,0.0,0.0,0.0,0.0,0.0,0.0,0.0,0.0,0.0,0.0,0.0,0.0,0.0,0.0,0.0,0.0,0.0,0.0,0.0,0.0,0.0,0.0,0.0,0.0,0.0,0.0,0.0,0.0,0.0,0.0,0.0,0.0,0.0,0.0,0.0,0.0,0.0,0.0,0.0,0.0,0.0,0.0,0.0,0.0,0.0,0.0,0.0,0.0,0.0,0.0,0.0,0.0,0.0,0.0,0.0,0.0,0.0,0.0,0.0,0.0,0.0,0.4635,0.5766,0.7444,0.8895,0.9892,1.0292,1.0757,1.0041,0.766,0.7758,0.0,0.0,0.0,0.0,0.0,0.0,0.0,0.0,0.0,0.0,0.0,0.0,0.0,0.0,0.0,0.0,0.0,0.0,0.0,0.0,0.0,0.0,0.0,0.0,0.0,0.0,0.0,0.0,0.0,0.0,0.0,0.0,0.0,0.0,0.0,0.0,0.0,0.0,0.0,0.0,0.0,0.0,0.0,0.0,0.0,0.0,0.0,0.0,0.0,0.0,0.0,0.0,0.0,0.0,0.0,0.0,0.0,0.0,0.0,0.0,0.0,0.0,0.0,0.0,0.0,0.0,0.0,0.0,0.0,0.0,0.0,0.0,0.0,0.0,0.0,0.0,0.0,0.0,0.0,0.0,0.0,0.0,0.0,0.0,0.0,0.0,0.0,0.0,0.0,0.0,0.0,0.0,0.0,0.0,0.0,0.0,0.0,0.0,0.0,0.0,0.0,0.0,0.5973,0.6974,0.7845,0.9254,1.017,1.0378,1.1011,1.0383,0.8012,0.8122,0.0,0.0,0.0,0.0,0.0,0.0,0.0,0.0,0.0,0.0,0.0,0.0,0.0,0.0,0.0,0.0,0.0,0.0,0.0,0.0,0.0,0.0,0.0,0.0,0.0,0.0,0.0,0.0,0.0,0.0,0.0,0.0,0.0,0.0,0.0,0.0,0.0,0.0,0.0,0.0,0.0,0.0,0.0,0.0,0.0,0.0,0.0,0.0,0.0,0.0,0.0,0.0,0.0,0.0,0.0,0.0,0.0,0.0,0.0,0.0,0.0,0.0,0.0,0.0,0.0,0.0,0.0,0.0,0.0,0.0,0.0,0.0,0.0,0.0,0.0,0.0,0.0,0.0,0.0,0.0,0.0,0.0,0.0,0.0,0.0,0.0,0.0,0.0,0.0,0.0,0.0,0.0,0.0,0.0,0.0,0.0,0.0,0.0,0.0,0.0,0.0,0.0,0.6498,0.7925,0.9707,1.0031,1.0412,1.1252,1.1354,1.0523,0.8472,0.8085,0.0,0.0,0.0,0.0,0.0,0.0,0.0,0.0,0.0,0.0,0.0,0.0,0.0,0.0,0.0,0.0,0.0,0.0,0.0,0.0,0.0,0.0,0.0,0.0,0.0,0.0,0.0,0.0,0.0,0.0,0.0,0.0,0.0,0.0,0.0,0.0,0.0,0.0,0.0,0.0,0.0,0.0,0.0,0.0,0.0,0.0,0.0,0.0,0.0,0.0,0.0,0.0,0.0,0.0,0.0,0.0,0.0,0.0,0.0,0.0,0.0,0.0,0.0,0.0,0.0,0.0,0.0,0.0,0.0,0.0,0.0,0.0,0.0,0.0,0.0,0.0,0.0,0.0,0.0,0.0,0.0,0.0,0.0,0.0,0.0,0.0,0.0,0.0,0.0,0.0,0.0,0.0,0.0,0.0,0.0,0.0,0.0,0.0,0.0,0.0,0.0,0.0,0.6741,0.8387,0.0,1.0174,1.09,1.1863,1.1971,1.0969,0.8664,0.0,0.0,0.0,0.0,0.0,0.0,0.0,0.0,0.0,0.0,0.0,0.0,0.0,0.0,0.0,0.0,0.0,0.0,0.0,0.0,0.0,0.0,0.0,0.0,0.0,0.0,0.0,0.0,0.0,0.0,0.0,0.0,0.0,0.0,0.0,0.0,0.0,0.0,0.0,0.0,0.0,0.0,0.0,0.0,0.0,0.0,0.0,0.0,0.0,0.0,0.0,0.0,0.0,0.0,0.0,0.0,0.0,0.0,0.0,0.0,0.0,0.0,0.0,0.0,0.0,0.0,0.0,0.0,0.0,0.0,0.0,0.0,0.0,0.0,0.0,0.0,0.0,0.0,0.0,0.0,0.0,0.0,0.0,0.0,0.0,0.0,0.0,0.0,0.0,0.0,0.0,0.0,0.0,0.0,0.0,0.0,0.0,0.0,0.0,0.0,0.0,0.0,0.5108,0.7311,0.908,0.0,1.0918,1.1816,1.2414,1.2438,1.1426,0.8943,0.0,0.0,0.0,0.0,0.0,0.0,0.0,0.0,0.0,0.0,0.0,0.0,0.0,0.0,0.0,0.0,0.0,0.0,0.0,0.0,0.0,0.0,0.0,0.0,0.0,0.0,0.0,0.0,0.0,0.0,0.0,0.0,0.0,0.0,0.0,0.0,0.0,0.0,0.0,0.0,0.0,0.0,0.0,0.0,0.0,0.0,0.0,0.0,0.0,0.0,0.0,0.0,0.0,0.0,0.0,0.0,0.0,0.0,0.0,0.0,0.0,0.0,0.0,0.0,0.0,0.0,0.0,0.0,0.0,0.0,0.0,0.0,0.0,0.0,0.0,0.0,0.0,0.0,0.0,0.0,0.0,0.0,0.0,0.0,0.0,0.0,0.0,0.0,0.0,0.0,0.0,0.0,0.0,0.0,0.0,0.0,0.0,0.0,0.0,0.0,0.0,0.0,0.5993,0.8245,1.0094,1.1078,1.2348,1.304,1.2772,1.2784,1.1744,0.0,0.0,0.0,0.0,0.0,0.0,0.0,0.0,0.0,0.0,0.0,0.0,0.0,0.0,0.0,0.0,0.0,0.0,0.0,0.0,0.0,0.0,0.0,0.0,0.0,0.0,0.0,0.0,0.0,0.0,0.0,0.0,0.0,0.0,0.0,0.0,0.0,0.0,0.0,0.0,0.0,0.0,0.0,0.0,0.0,0.0,0.0,0.0,0.0,0.0,0.0,0.0,0.0,0.0,0.0,0.0,0.0,0.0,0.0,0.0,0.0,0.0,0.0,0.0,0.0,0.0,0.0,0.0,0.0,0.0,0.0,0.0,0.0,0.0,0.0,0.0,0.0,0.0,0.0,0.0,0.0,0.0,0.0,0.0,0.0,0.0,0.0,0.0,0.0,0.0,0.0,0.0,0.0,0.0,0.0,0.0,0.0,0.0,0.0,0.0,0.0,0.0,0.0,0.5517,0.8015,0.9647,0.9133,0.9433,0.9928,1.0578,1.1413,1.0948,0.8774,0.0,0.0,0.0,0.0,0.0,0.0,0.0,0.0,0.0,0.0,0.0,0.0,0.0,0.0,0.0,0.0,0.0,0.0,0.0,0.0,0.0,0.0,0.0,0.0,0.0,0.0,0.0,0.0,0.0,0.0,0.0,0.0,0.0,0.0,0.0,0.0,0.0,0.0,0.0,0.0,0.0,0.0,0.0,0.0,0.0,0.0,0.0,0.0,0.0,0.0,0.0,0.0,0.0,0.0,0.0,0.0,0.0,0.0,0.0,0.0,0.0,0.0,0.0,0.0,0.0,0.0,0.0,0.0,0.0,0.0,0.0,0.0,0.0,0.0,0.0,0.0,0.0,0.0,0.0,0.0,0.0,0.0,0.0,0.0,0.0,0.0,0.0,0.0,0.0,0.0,0.0,0.0,0.0,0.0,0.0,0.0,0.0,0.0,0.0,0.0,0.0,0.0,0.5329,0.7732,0.9247,0.8607,0.9456,1.0176,1.0637,1.1793,1.1747,0.9928,0.0,0.0,0.0,0.0,0.0,0.0,0.0,0.0,0.0,0.0,0.0,0.0,0.0,0.0,0.0,0.0,0.0,0.0,0.0,0.0,0.0,0.0,0.0,0.0,0.0,0.0,0.0,0.0,0.0,0.0,0.0,0.0,0.0,0.0,0.0,0.0,0.0,0.0,0.0,0.0,0.0,0.0,0.0,0.0,0.0,0.0,0.0,0.0,0.0,0.0,0.0,0.0,0.0,0.0,0.0,0.0,0.0,0.0,0.0,0.0,0.0,0.0,0.0,0.0,0.0,0.0,0.0,0.0,0.0,0.0,0.0,0.0,0.0,0.0,0.0,0.0,0.0,0.0,0.0,0.0,0.0,0.0,0.0,0.0,0.0,0.0,0.0,0.0,0.0,0.0,0.0,0.0,0.0,0.0,0.0,0.0,0.0,0.0,0.0,0.0,0.0,0.0,0.5378,0.7581,0.9146,0.919,1.1313,1.2566,1.2152,1.3279,1.3385,1.1933,0.0,0.0,0.0,0.0,0.0,0.0,0.0,0.0,0.0,0.0,0.0,0.0,0.0,0.0,0.0,0.0,0.0,0.0,0.0,0.0,0.0,0.0,0.0,0.0,0.0,0.0,0.0,0.0,0.0,0.0,0.0,0.0,0.0,0.0,0.0,0.0,0.0,0.0,0.0,0.0,0.0,0.0,0.0,0.0,0.0,0.0,0.0,0.0,0.0,0.0,0.0,0.0,0.0,0.0,0.0,0.0,0.0,0.0,0.0,0.0,1.2105,0.0,0.0,0.0,0.0,0.0,0.0,0.0,0.0,0.0,0.0,0.0,0.0,0.0,0.0,0.0,0.0,0.0,0.0,0.0,0.0,0.0,0.0,0.0,0.0,0.0,0.0,0.0,0.0,0.0,0.0,0.0,0.0,0.0,0.0,0.0,0.0,0.0,0.0,0.0,0.0,0.0,0.5651,0.8638,1.0545,0.9862,1.1185,1.216,1.2299,1.2997,1.2887,1.167,1.1153,0.0,0.0,0.0,0.0,0.0,0.0,0.0,0.0,0.0,0.0,0.0,0.0,0.0,0.0,0.0,0.0,0.0,0.0,0.0,0.0,0.0,0.0,0.0,0.0,0.0,0.0,0.0,0.0,0.0,0.0,0.0,0.0,0.0,0.0,0.0,0.0,0.0,0.0,0.0,0.0,0.0,0.0,0.0,0.0,0.0,0.0,0.0,0.0,0.0,0.0,0.0,0.0,0.0,0.0,0.0,0.0,0.0,0.0,0.0,0.0,1.2812,0.0,0.0,0.0,0.0,0.0,0.0,0.0,0.0,0.0,0.0,0.0,0.0,0.0,0.0,0.0,0.0,0.0,0.0,0.0,0.0,0.0,0.0,0.0,0.0,0.0,0.0,0.0,0.0,0.0,0.0,0.0,0.0,0.0,0.0,0.0,0.0,0.0,0.0,0.0,0.0,0.5965,0.8751,1.0444,0.9406,1.0372,1.113,1.1243,1.271,1.324,1.2371,1.2348,0.0,0.0,0.0,0.0,0.0,0.0,0.0,0.0,0.0,0.0,0.0,0.0,0.0,0.0,0.0,0.0,0.0,0.0,0.0,0.0,0.0,0.0,0.0,0.0,0.0,0.0,0.0,0.0,0.0,0.0,0.0,0.0,0.0,0.0,0.0,0.0,0.0,0.0,0.0,0.0,0.0,0.0,0.0,0.0,0.0,0.0,0.0,0.0,0.0,0.0,0.0,0.0,0.0,1.4796,1.4933,1.5011,1.5011,1.5625,1.6594,1.5488,1.5469,1.5955,1.2824,0.0,0.0,0.0,0.0,0.0,0.0,0.0,0.0,0.0,0.0,0.0,0.0,0.0,0.0,0.0,0.0,0.0,0.0,0.0,0.0,0.0,0.0,0.0,0.0,1.1034,1.1715,0.0,0.0,0.0,0.0,0.0,0.0,0.0,0.0,0.0,0.0,0.0,0.0,0.6395,0.8681,1.0033,0.9025,0.9943,1.0629,1.0561,1.2576,1.3615,1.3101,1.3181,1.3012,0.0,0.0,0.0,0.0,0.0,0.0,0.0,0.0,0.0,0.0,0.0,0.0,0.0,0.0,0.0,0.0,0.0,0.0,0.0,0.0,0.0,0.0,0.0,0.0,0.0,0.0,0.0,0.0,0.0,0.0,0.0,0.0,1.4489,1.3846,0.0,0.0,0.0,0.0,0.0,0.0,0.0,0.0,0.0,0.0,0.0,0.0,0.0,1.3938,1.4114,1.5254,1.5996,1.6375,1.7486,1.8208,1.8613,1.8613,1.8711,1.8848,1.8672,0.0,1.6558,1.5582,0.0,0.0,0.0,0.0,0.0,0.0,0.0,0.0,0.0,0.0,0.0,0.0,0.0,0.0,0.0,0.0,0.0,0.0,0.0,0.0,0.0,0.0,1.3973,1.4137,1.4365,1.4488,0.0,1.1747,0.9502,0.9276,0.922,0.0,0.0,0.0,0.0,0.0,0.0,0.0,0.7139,0.9088,1.0429,1.0559,1.1705,1.2552,1.2846,1.2727,1.2588,1.2527,1.205,1.1086,0.9529,1.0383,0.0,0.0,0.0,0.0,0.0,0.0,0.0,0.0,0.0,0.0,0.0,0.0,0.0,0.0,0.0,0.0,0.0,0.0,0.0,0.0,0.0,0.0,0.0,0.0,0.0,0.0,0.0,0.0,0.0,1.3283,1.4027,1.4079,1.3411,1.2464,0.0,0.0,0.0,0.0,0.0,0.0,0.0,0.0,0.0,1.5176,1.5439,1.5907,1.6629,1.7461,1.8003,1.8164,1.873,1.9102,1.9297,1.9297,1.9297,1.9297,1.9297,1.9004,1.8368,1.6897,1.5591,1.4315,0.0,0.0,0.0,0.0,1.139,1.0882,1.2121,1.2415,0.0,1.1702,0.0,0.0,0.0,0.0,0.0,0.0,0.0,0.0,0.0,0.0,1.3988,1.4821,1.5142,1.5204,1.5204,1.4291,1.2958,0.0,1.0354,0.9037,0.6944,0.0,0.0,0.0,0.0,0.8292,0.8718,0.992,1.1157,1.2149,1.1253,1.1341,1.3146,1.2291,1.1928,1.2591,1.2402,1.1823,1.0894,1.0323,0.921,0.0,0.0,0.0,0.0,0.0,0.0,0.0,0.0,0.0,0.0,0.0,0.0,0.0,0.0,0.0,0.0,0.0,0.0,0.0,0.0,0.0,0.0,0.0,0.0,0.0,0.0,0.0,0.0,1.3846,1.4421,1.4591,1.4548,1.374,0.0,0.0,0.0,0.0,0.0,0.0,1.4757,1.4874,1.5566,1.6887,1.7207,1.7818,1.8754,1.9121,1.9336,1.9453,1.9453,1.9512,1.9609,1.9609,1.9609,1.9609,1.9609,1.9785,1.9943,1.8151,1.721,1.6708,1.5331,1.3993,1.29,1.3312,1.2849,1.2145,1.3261,1.3468,1.3251,1.3037,0.0,1.2371,1.1538,0.0,0.0,0.0,0.0,1.2228,1.3467,1.3774,1.4015,1.4963,1.5404,1.5618,1.5618,1.5703,1.5256,0.0,1.2343,1.0827,0.8732,0.0,0.0,0.0,0.0,1.0547,1.0766,1.1431,1.2284,1.3382,1.1521,1.1134,1.3327,1.2128,1.179,1.3032,1.2377,1.2051,1.2221,1.0667,0.9549,0.8942,0.0,0.0,0.0,0.0,0.0,0.0,0.0,0.0,0.0,0.0,0.0,0.0,0.0,0.0,0.0,0.0,0.0,0.0,0.0,0.0,0.0,0.0,0.0,0.0,0.0,0.0,0.0,0.0,0.0,1.6176,1.6722,0.0,0.0,0.0,0.0,1.4016,1.4492,1.5293,1.6512,1.6992,1.7812,1.9082,1.9141,1.918,1.9258,1.9277,1.9492,1.9883,1.9883,2.0098,2.0546,2.0546,2.0546,2.0546,2.0546,2.0546,2.0527,1.9943,1.8858,1.7546,1.7455,1.6273,1.4675,1.5524,1.5786,1.5766,1.5909,1.59,1.5774,1.5075,1.4082,1.3146,1.3093,1.2492,0.0,0.0,1.328,1.376,1.4977,1.5284,1.5364,1.5664,1.6005,1.6233,1.6233,1.5175,1.4603,0.0,1.6251,1.5691,1.3598,0.0,1.2937,1.1724,1.1975,1.259,1.3423,1.3775,1.4004,1.4051,1.3948,1.3881,1.4051,1.2652,1.2425,1.3928,1.1216,1.0256,1.178,1.1436,1.0134,0.7904,0.9011,0.0,0.0,0.0,0.0,0.0,0.0,0.0,0.0,0.0,0.0,0.0,0.0,0.0,0.0,0.0,0.0,0.0,0.0,0.0,0.0,0.0,0.0,0.0,0.0,0.0,0.0,0.0,0.0,1.5477,1.6522,0.0,1.4746,1.5079,1.54,1.54,1.6543,1.7428,1.7896,1.8379,1.8828,1.9277,1.9551,1.9687,1.9687,2.0018,2.0233,2.037,2.0918,2.1113,2.1016,2.1562,2.1816,2.1797,2.1543,2.1562,2.1777,2.1348,2.0682,1.9947,2.0254,1.9517,1.816,1.7705,1.7106,1.6402,1.5676,1.5408,1.5334,1.5102,1.4727,1.4376,1.4563,1.4389,1.4282,1.499,1.5257,1.5471,1.6086,1.6246,1.6259,1.6366,1.6473,1.6553,1.6553,1.6328,1.6268,1.6794,1.5895,1.4697,1.3749,1.4117,1.3965,1.2458,1.2783,1.338,1.3785,1.3145,1.2908,1.3752,1.2166,1.1822,1.3695,1.1659,1.0862,1.2337,1.0517,0.9671,1.0243,1.0126,0.9709,0.8825,0.9305,0.8555,0.0,0.0,0.0,0.0,0.0,0.0,0.0,0.0,0.0,0.0,0.0,0.0,0.0,0.0,0.0,0.0,0.0,0.0,0.0,0.0,0.0,0.0,0.0,0.0,0.0,0.0,1.643,1.4967,1.6456,1.686,1.4959,1.5957,1.6809,1.6914,1.7954,1.8734,1.9026,1.9473,1.9785,1.9941,2.0352,2.0644,2.0801,2.1074,2.1329,2.1486,2.2031,2.2168,2.1914,2.2461,2.2734,2.2715,2.2441,2.248,2.2672,2.2578,2.2363,2.209,2.1934,2.1172,1.9985,1.8836,1.7672,1.6566,1.5507,1.5177,1.5257,1.5257,1.5257,1.5311,1.5605,1.5698,1.5792,1.6286,1.642,1.646,1.666,1.67,1.6727,1.6834,1.686,1.6914,1.7114,1.7235,1.7407,1.7621,1.634,1.5236,1.5123,1.5595,1.5427,1.3652,1.4123,1.4407,1.3821,1.3174,1.3066,1.3924,1.2311,1.1903,1.3866,1.1618,1.0789,1.2467,1.0532,0.9657,1.034,0.9573,0.9157,0.9157,0.9103,0.8445,0.7149,0.0,0.0,0.0,0.0,0.0,0.0,0.0,0.0,0.0,0.0,0.0,0.0,0.0,0.0,0.0,0.0,0.0,0.0,0.0,0.0,0.0,0.0,0.0,1.497,1.5596,1.585,1.5009,1.6738,1.7519,1.6281,1.7266,1.8149,1.8598,1.8637,1.9007,1.9902,2.041,2.0801,2.121,2.168,2.2109,2.25,2.2519,2.2734,2.3208,2.3184,2.3184,2.3227,2.3203,2.3203,2.3266,2.3247,2.3203,2.3198,2.3633,2.3809,2.3691,2.2399,2.1165,1.9929,1.8818,1.7648,1.6477,1.5705,1.5631,1.5872,1.5838,1.5838,1.5939,1.6233,1.6362,1.6429,1.666,1.674,1.6754,1.6754,1.6767,1.6834,1.7179,1.7246,1.742,1.7889,1.7849,1.7809,1.8397,1.8036,1.7729,1.7915,1.7968,1.7339,1.562,1.5963,0.0,1.3832,1.4198,1.4609,1.4529,1.4519,1.4519,1.446,1.2611,1.2302,1.4331,1.1141,1.0113,1.2012,0.9961,0.8743,0.8743,0.8574,0.8336,0.7995,0.0,0.0,0.0,0.0,0.0,0.0,0.0,0.0,0.0,0.0,0.0,0.0,0.0,0.0,0.0,0.0,0.0,0.0,0.0,0.0,0.0,0.0,1.6007,1.5772,1.6738,1.7383,1.7148,1.7656,1.7871,1.7519,1.7793,1.832,1.9043,1.9394,1.9904,2.0781,2.1289,2.1582,2.1699,2.2109,2.2402,2.2519,2.2832,2.3047,2.3144,2.3769,2.3906,2.3633,2.4258,2.4531,2.4578,2.4219,2.4258,2.4531,2.4316,2.4238,2.4108,2.2785,2.2044,2.1476,1.9288,1.7735,1.6697,1.6715,1.6777,1.6871,1.7034,1.7101,1.7114,1.7194,1.7221,1.7288,1.7595,1.7609,1.7716,1.7943,1.7996,1.8023,1.8103,1.8277,1.8477,1.8651,1.8784,1.8931,1.9092,1.8998,1.8429,1.7033,1.6939,1.6622,1.5078,1.5004,0.0,1.483,1.4983,1.4459,1.291,1.2739,1.2218,1.0954,1.0196,1.025,1.1226,1.0244,0.9873,1.0415,0.9863,0.9517,0.9517,0.8832,0.8391,0.0,0.0,0.0,0.0,0.0,0.0,0.0,0.0,0.0,0.0,0.0,0.0,0.0,0.0,0.0,0.0,0.0,0.0,0.0,0.0,0.0,0.0,1.6035,1.6907,1.6907,1.7519,1.8008,1.8008,1.8008,1.8086,1.8227,1.8437,1.8906,1.9803,2.0215,2.0742,2.1465,2.1914,2.2227,2.2464,2.2832,2.3223,2.3574,2.3873,2.4043,2.4192,2.468,2.4844,2.4629,2.5117,2.5449,0.0,2.5352,2.5488,2.5859,2.5605,2.5508,0.0,0.0,0.0,0.0,0.0,1.8217,1.7101,1.7326,1.738,1.7407,1.7528,1.7582,1.7609,1.7729,1.7769,1.7836,1.8143,1.8223,1.825,1.8437,1.8584,1.8704,1.8824,1.8985,1.9172,1.9412,1.9412,1.9497,1.9679,1.9733,0.0,1.7363,1.76,1.7528,1.5909,1.5245,1.4942,1.5104,1.4592,1.4081,1.3539,1.3483,1.2779,1.1003,1.0603,0.0,0.0,0.0,0.97,0.9639,0.9639,0.0,0.0,0.0,0.0,0.0,0.0,0.0,0.0,0.7963,0.765,0.0,0.0,0.0,0.0,0.0,0.0,0.0,0.0,0.0,0.0,0.0,0.0,0.0,0.0,0.0,0.0,1.7207,1.8086,1.8086,1.8125,1.8144,1.8086,1.8086,1.8242,1.8637,1.9102,1.9707,2.0605,2.1055,2.1523,2.1992,0.0,0.0,0.0,0.0,2.4238,2.5106,2.5117,2.5352,2.5693,2.5693,2.5693,2.5693,2.5693,2.5977,2.6387,2.6387,2.6621,2.7012,2.7012,2.691,2.6582,2.4862,2.3621,2.2504,2.04,1.8821,1.7689,1.7729,0.0,0.0,1.7769,1.7782,1.7836,1.8116,1.8142,1.8263,1.8557,1.8637,1.8651,1.8677,1.8878,1.9145,1.9399,1.9492,1.9653,2.0174,1.9907,1.972,2.0227,2.0273,1.9911,1.8638,1.9096,1.9034,1.7334,1.6106,1.5361,1.5237,1.424,1.412,1.5566,0.0,0.0,1.2957,1.2303,1.1479,1.0397,0.9917,0.9625,0.949,0.9483,0.9483,0.9483,0.9483,0.9747,1.0283,1.0297,1.0297,1.0243,0.8648,0.8255,0.0,0.0,0.0,0.0,0.0,0.0,0.0,0.0,0.0,0.0,0.0,0.0,0.0,0.0,0.0,1.6046,1.7441,1.8481,1.8481,1.8828,1.8906,1.852,1.8481,1.8656,1.9121,1.9551,2.0156,2.1035,2.1504,2.209,2.2808,2.2925,2.3223,2.3652,2.4082,2.4551,2.5106,2.543,2.5596,2.5693,0.0,0.0,2.5693,2.5693,2.5977,2.6387,2.6387,2.6621,2.7012,2.7012,2.6307,2.5097,2.3583,2.1528,1.9351,1.8932,1.8577,1.8343,1.8584,1.8664,1.8704,1.8945,1.9082,1.9038,1.9092,1.9105,0.0,1.9466,1.9546,1.9599,1.984,1.9933,1.9927,2.0054,2.0254,2.0454,2.0561,2.0681,2.0802,2.0922,2.0935,2.0823,2.0561,1.9512,1.8191,1.6435,1.5957,1.6253,1.7582,1.7569,1.7343,1.7197,1.5915,1.4411,1.2613,1.1025,1.0207,1.0476,1.0263,1.0141,1.0107,1.0107,1.0107,1.0107,1.0107,1.0161,1.0283,1.0392,1.0392,1.027,0.9924,0.9842,0.0,0.0,0.0,0.0,0.0,0.0,0.0,0.0,0.0,0.0,0.0,1.4691,0.0,0.0,1.6602,1.7246,1.8262,1.8965,1.8965,1.916,1.9199,1.8984,1.8965,1.9219,1.9901,2.0312,2.0898,2.1775,2.2266,2.2695,2.3081,2.3101,2.3393,2.4082,2.4316,2.4727,2.5391,2.5577,2.5693,2.5693,2.5693,2.5693,2.5693,2.5957,2.6289,2.6719,2.6934,2.7266,2.7656,2.7656,2.6778,2.529,2.3837,2.1814,1.9737,1.9948,1.9583,1.8945,1.9092,1.9145,1.9199,1.9492,1.9586,1.9613,1.976,1.98,1.9826,1.9973,2.0013,2.0054,2.0201,2.0347,2.0454,2.0454,2.0681,2.0895,2.0895,2.1002,2.1109,2.1109,2.1109,2.1109,2.1109,2.0386,1.9483,1.864,1.7731,1.7859,1.961,1.8244,1.7412,1.798,1.6484,1.4749,1.3009,1.1195,1.029,1.0588,1.0541,1.05,1.05,1.05,1.05,1.05,1.05,1.05,1.05,1.0568,1.0568,1.05,1.0582,1.0534,0.0,0.0,0.0,0.0,0.0,0.0,0.0,0.0,1.4341,1.5386,1.5597,1.581,1.6484,1.6855,1.7428,1.8539,1.9121,1.9414,1.9414,1.9492,1.9531,1.9531,1.9453,1.9746,2.0605,2.1094,2.1639,2.2461,2.2847,2.3101,2.3101,2.3101,2.3491,2.4394,2.4414,2.4844,2.5674,2.5693,2.5693,2.5693,2.5693,2.5693,2.5713,2.6191,2.6621,2.7051,2.7559,2.7988,2.8301,2.8301,2.7457,2.5936,2.4378,2.264,2.1059,2.1156,2.0429,1.943,1.9439,1.9511,1.9506,1.9786,1.988,1.992,2.016,2.0167,2.018,2.0307,2.0321,2.0334,2.0388,2.0588,2.0762,2.0762,2.0935,2.1109,2.1109,2.1109,2.1109,2.1109,2.1109,2.1109,2.1109,2.1109,2.1109,2.1109,1.961,1.9024,2.0386,1.7859,1.6431,1.7859,1.6431,1.4688,1.2931,1.1505,1.0731,1.0765,1.0765,1.0778,1.0806,1.0806,1.0806,1.0806,1.0806,1.0806,1.0806,1.0806,1.0806,1.0806,1.0934,1.0846,1.5925,0.0,0.0,1.5119,1.4855,1.5288,0.0,0.0,1.7228,1.8807,1.9177,1.9045,1.8438,1.8364,1.8559,1.9121,1.957,1.9844,1.9844,2.0176,2.0449,2.0449,2.0078,2.0195,2.1034,2.1562,2.2012,2.248,2.2847,2.3101,2.3101,2.3101,2.3491,2.4394,2.4414,2.4844,2.5674,2.5693,2.5693,2.5693,2.5693,2.5693,2.5713,2.6191,2.6621,2.707,2.7871,2.8242,2.8301,2.8301,2.7457,2.5936,2.4378,2.2855,2.1371,2.0127,1.9533,1.9399,1.9666,1.976,1.98,2.0094,2.0187,2.0187,2.0167,2.0167,2.0294,2.0548,2.0628,2.0681,2.0949,2.1042,2.1069,2.1069,2.1082,2.1109,2.1109,2.1109,2.1109,2.1109,2.1109,2.1109,2.1109,2.1109,2.1109,2.1109,1.961,1.8576,1.8768,1.7087,1.5978,1.6172,1.4623,1.2865,1.1108,1.0784,1.0778,1.0847,1.0853,1.0982,1.1111,1.1111,1.1111,1.1111,1.1111,1.1111,1.1111,1.1111,1.1111,1.1111,1.1131,1.105,1.9493,0.0,0.0,0.0,1.6762,1.7013,1.8255,1.8367,1.8499,1.9523,1.9981,1.9836,1.8795,1.9007,1.9397,0.0,2.0019,2.0293,2.0293,2.0488,2.0605,2.0605,2.0449,2.0644,2.1523,2.1777,2.2168,2.2789,2.3003,2.3101,2.3101,2.3101,2.3491,2.4394,2.4414,2.4844,2.5674,2.5693,2.5693,2.5693,2.5693,2.5693,2.5713,2.6445,2.7129,2.7773,2.8144,2.8301,2.8301,2.8301,2.796,2.7168,2.471,2.3431,2.2589,2.0256,1.9479,1.9639,1.976,1.9907,2.0094,2.0401,2.0494,2.0521,2.0695,2.0748,2.0775,2.0895,2.0922,2.0962,2.1082,2.1109,2.1109,2.1109,2.1109,2.1109,2.1109,2.1109,2.1109,2.1109,2.1109,2.1109,2.1109,2.1109,2.1109,2.1109,1.961,1.8116,1.7141,1.5459,1.397,1.2997,1.2215,1.1541,1.0846,1.0786,1.0914,1.1063,1.107,1.1097,1.1227,1.1234,1.1234,1.1234,1.1234,1.1234,1.1234,1.1234,1.1234,1.1234,1.1253,1.1267,2.0447,0.0,0.0,1.7773,1.7806,1.8046,1.8428,1.8783,1.9254,2.0003,2.0427,2.028,1.9152,1.9455,1.9961,2.0078,2.039,2.0605,2.0605,2.0605,2.0605,2.0605,2.0605,2.0957,2.1797,2.1894,2.2227,2.3042,2.3101,2.3101,2.3101,2.3101,2.3491,2.4394,2.4414,2.4844,2.5674,2.5693,2.5693,2.5693,2.5693,2.5752,2.5937,2.6797,2.7598,2.8301,2.8301,2.8301,2.8301,2.8301,2.8067,2.7457,2.482,2.3608,2.3013,2.044,1.9626,1.9826,1.9987,2.0174,2.0401,2.0695,2.0802,2.0842,2.1042,2.1109,2.1109,2.1109,2.1109,2.1109,2.1109,2.1109,2.1109,2.1109,2.1109,2.1109,2.1109,2.1109,2.1109,2.1109,2.1109,2.1109,2.1109,2.1109,2.0919,2.0462,1.9291,1.7859,1.6108,1.397,1.2084,1.085,1.0758,1.0759,1.0873,1.0914,1.107,1.1219,1.1226,1.1246,1.1287,1.1287,1.1287,1.1287,1.1287,1.1287,1.1287,1.1287,1.1287,1.1294,1.1402,1.1457,0.0,0.0,1.8038,1.7315,1.7364,1.8079,1.9908,1.9796,1.9644,2.0906,2.1163,2.0899,2.0041,1.9902,2.0059,2.0507,2.0605,2.0605,2.0605,2.0605,2.0605,2.0605,2.0605,2.0957,0.0,2.1894,2.2227,2.3042,2.3101,2.3101,2.3101,2.3101,2.3491,2.4394,2.4414,2.4844,2.5674,2.5693,2.5693,2.5693,2.5693,2.5957,2.6406,2.7297,2.7943,2.8301,2.8301,2.8301,2.8301,2.8301,2.7438,2.5991,2.4433,2.3076,2.189,2.0351,1.9786,1.988,2.0454,2.0655,2.0708,2.1002,2.1096,2.1096,2.1109,2.1109,2.1109,2.1109,2.1109,2.1109,2.1109,2.1109,2.1109,2.1109,2.1109,2.1109,2.1109,2.1109,2.1109,2.1109,2.1109,2.1109,2.1109,2.1109,2.0526,1.8832,1.8512,1.7859,1.6108,1.2865,1.0784,1.0717,1.0786,1.0873,1.088,1.1077,1.1219,1.1375,1.1382,1.145,1.1599,1.1606,1.1606,1.1606,1.1606,1.1606,1.1606,1.1606,1.1606,1.1606,1.1613,1.1613,0.0,0.0,1.981,1.9395,1.9535,2.0094,2.1218,2.1462,2.149,2.1688,2.1732,2.1272,1.98,1.9727,1.9961,2.0117,2.041,2.0605,2.0605,2.0605,2.0605,2.0605,2.0605,0.0,0.0,0.0,0.0,2.3042,2.3101,2.3101,2.3101,2.3418,2.3828,2.4394,2.4687,2.5137,2.5674,2.5693,2.5693,2.5693,2.6035,2.6387,2.6816,2.7402,2.7891,2.8301,2.8301,2.8301,2.8228,2.7222,2.6554,2.5845,2.3505,2.2364,2.1891,2.0758,2.0388,2.0414,2.0601,2.0802,2.0975,2.1082,2.1109,2.1109,2.1109,2.1109,2.1109,2.1109,2.1109,2.1109,2.1109,2.1109,2.1109,2.1109,2.1109,2.1109,2.1109,2.1109,2.1109,2.1109,2.1109,2.1109,2.1109,2.1109,2.0526,1.8768,1.7538,1.656,1.5978,1.5063,1.4497,1.4497,1.3545,1.2962,1.3072,1.204,1.1382,1.1531,1.1545,1.1565,1.1619,1.1619,1.1619,1.1619,1.1619,1.1619,1.1619,1.1619,1.1667,1.1762,1.1762,1.1816,0.0,2.1401,2.1146,2.1103,2.0772,2.0864,2.237,2.24,2.2141,2.2228,2.199,2.1297,1.9601,1.9512,1.9746,1.9883,2.041,2.0801,2.0801,2.0801,2.0742,2.0625,2.0605,2.1016,0.0,0.0,0.0,2.3042,2.3237,2.3379,2.3379,2.3769,2.4277,2.4863,2.5,2.543,2.6142,2.5849,2.5693,2.5693,2.6328,2.6758,2.7031,2.7617,2.8047,2.8301,2.8301,2.8301,2.8174,2.6717,2.5844,2.5211,2.2897,2.1803,2.1487,2.089,2.0735,2.0828,2.0828,2.0949,2.1109,2.1109,2.1109,2.1109,2.1109,2.1109,2.1109,2.1109,2.1109,2.1109,2.1109,2.1109,2.1109,2.1109,2.1109,2.1109,2.1109,2.1109,2.1109,2.1109,2.1109,2.1109,2.1109,2.1109,2.0716,1.961,1.8583,1.7466,1.623,1.6287,1.641,1.6558,1.5082,1.4095,1.4206,1.2552,1.1511,1.1613,1.1619,1.1619,1.1619,1.1619,1.1619,1.1619,1.1619,1.1619,1.1619,1.1674,1.1742,1.183,1.1884,1.1965,2.2119,2.1926,2.201,2.2296,2.1134,2.0617,2.343,2.279,2.179,2.2527,2.198,2.0938,0.0,0.0,1.9375,1.9746,2.0566,2.1171,2.1171,2.1171,2.1055,0.0,0.0,0.0,0.0,0.0,0.0,2.312,0.0,2.3828,2.3828,2.4219,2.4797,2.5635,2.5332,2.5742,2.6973,2.6122,2.5732,2.5732,2.6621,2.7012,2.7051,2.791,2.8301,2.8301,2.8301,2.8301,2.8194,2.6735,2.5412,2.4138,2.2617,2.1515,2.0681,2.0695,2.0869,2.1109,2.1109,2.1109,2.1109,2.1109,2.1109,2.1109,2.1109,2.1109,2.1109,2.1109,2.1109,2.1109,2.1109,2.1109,2.1109,2.1109,2.1109,2.1109,2.1109,2.1109,2.1109,2.1109,2.1109,2.1109,2.1109,2.1109,2.1109,2.1136,2.1376,2.0423,1.7105,1.6664,1.6757,1.6907,1.5422,1.4301,1.4231,1.2585,1.1619,1.1619,1.1619,1.1619,1.1619,1.1619,1.1619,1.1619,1.1619,1.1619,1.1633,1.1769,1.1837,1.1857,1.2006,1.2081,2.3802,2.374,2.369,2.3607,2.2957,2.2873,2.4747,2.4614,2.377,2.2581,2.1902,2.0688,0.0,0.0,0.0,1.8535,1.9766,0.0,2.0742,2.0742,0.0,2.0625,0.0,2.1445,2.2422,2.275,0.0,0.0,2.4199,2.4258,2.4258,2.4668,2.5,2.5234,2.5762,2.6211,2.6543,2.6328,2.623,2.623,2.6758,2.7012,2.7051,2.791,2.8301,2.8301,2.8301,2.8301,2.8213,2.7049,2.5656,2.4204,2.3211,2.1976,2.0695,2.0922,2.1042,2.1109,2.1109,2.1109,2.1109,2.1109,2.1109,2.1109,2.1109,2.1109,2.1109,2.1109,2.1109,2.1109,2.1109,2.1109,2.1109,2.1109,2.1109,2.1109,2.1109,2.1109,2.1109,2.1109,2.1109,2.1109,2.1109,2.1109,2.1189,2.1403,2.1574,2.1291,2.0423,2.0646,2.0374,1.9016,1.7441,1.5906,1.4497,1.2652,1.1619,1.1619,1.1619,1.1619,1.1619,1.1619,1.1619,1.1619,1.1619,1.1674,1.1775,1.1816,1.1952,1.2176,1.2216,1.2291,2.4957,2.4998,2.5046,2.4478,2.4018,2.3972,2.5004,2.4725,2.3673,2.1595,2.0692,0.0,0.0,0.0,0.0,0.0,0.0,0.0,2.0859,2.0859,2.0781,0.0,2.0957,0.0,2.2695,2.3184,2.3867,0.0,2.4805,2.4707,2.4707,2.5117,2.5527,2.5918,2.623,2.6484,2.666,2.6855,2.6758,2.6387,2.7012,2.7207,2.7051,2.791,2.8301,2.8301,0.0,2.796,2.726,2.6089,2.4808,2.3403,2.2403,2.1602,2.0882,2.1042,2.1109,2.1109,2.1109,2.1109,2.1109,2.1109,2.1109,2.1109,2.1109,2.1109,2.1109,2.1109,2.1109,2.1109,2.1109,2.1109,2.1109,2.1109,2.1109,2.1109,2.1109,2.1109,2.1109,2.1109,2.1109,2.1109,2.1109,2.1216,2.1363,2.1588,2.1764,2.1937,2.1937,2.1471,2.0811,1.9896,1.7516,1.5557,1.4503,1.2674,1.1619,1.1619,1.1619,1.1619,1.1619,1.1619,1.1619,1.1619,1.1681,1.1748,1.183,1.1965,1.2121,1.2291,1.2352,1.2427,2.5769,2.5907,2.6104,2.5141,2.4664,2.4488,2.4738,2.4059,2.269,2.0242,0.0,1.7827,1.563,1.6367,1.7441,1.7852,0.0,2.1034,2.1093,2.1112,2.1016,2.0684,2.1094,2.1894,2.3169,2.3672,2.4453,2.5596,2.5371,2.5156,2.5156,2.5527,2.6083,2.6992,2.6719,2.6758,2.7187,2.7344,2.713,2.6562,2.715,2.7305,2.7129,2.793,2.8301,2.8301,2.8301,0.0,2.6027,2.5059,2.3837,2.2393,2.1449,2.107,2.1109,2.1109,2.1109,2.1109,2.1109,2.1109,2.1109,2.1109,2.1109,2.1109,2.1109,2.1109,2.1109,2.1109,2.1109,2.1109,2.1109,2.1109,2.1109,2.1109,2.1109,2.1109,2.1109,2.1109,2.1109,2.1109,2.1109,2.1122,2.1162,2.139,2.1641,2.1722,2.2098,2.2364,2.2122,2.0687,1.9667,1.9681,1.6545,1.429,1.4077,1.2538,1.1619,1.1619,1.1619,1.1619,1.1619,1.164,1.1647,1.1647,1.1789,1.187,1.1891,1.2162,1.2298,1.2325,1.244,1.2501,2.647,2.6514,2.6761,2.5735,2.5403,2.5261,2.4868,2.4329,0.0,0.0,1.8346,1.7197,1.4765,1.5693,1.696,1.7422,0.0,0.0,0.0,0.0,2.0781,0.0,0.0,0.0,0.0,0.0,0.0,0.0,0.0,2.5625,2.5625,2.5635,2.6083,2.6992,2.7305,2.7637,2.8066,2.6574,2.6368,2.7441,2.6315,2.6405,2.7578,2.8066,2.8301,2.8301,2.8301,0.0,2.6154,2.6483,2.4978,2.2543,2.2953,2.2298,2.1109,2.1109,2.1109,2.1109,2.1109,2.1109,2.1109,2.1109,2.1109,2.1109,2.1109,2.1109,2.1109,2.1109,2.1109,2.1109,2.1109,2.1109,2.1109,2.1109,2.1109,2.1109,2.1109,2.1109,2.1109,2.1109,2.1109,2.1189,2.1494,2.1588,2.1775,2.2191,2.2352,2.1958,2.0658,2.02,1.945,1.7879,1.5698,1.38,1.2252,1.1763,1.1619,1.1619,1.1619,1.1619,1.1619,1.1735,1.1796,1.1796,1.1945,1.2088,1.221,1.2264,1.2352,1.2467,1.2488,1.2501,2.7142,2.7473,2.7853,2.607,2.6146,2.6056,2.3573,0.0,0.0,0.0,1.6308,1.5575,1.3799,0.0,0.0,0.0,0.0,0.0,0.0,0.0,0.0,0.0,0.0,0.0,0.0,0.0,0.0,0.0,0.0,2.5693,2.5693,2.6103,2.6582,2.7012,2.7656,2.8086,2.8301,2.6621,2.6435,2.7656,2.6382,2.6435,2.7728,2.8105,2.8301,2.8301,2.8301,0.0,2.4944,2.5589,2.4034,2.1357,2.2038,2.179,2.1109,2.1109,2.1109,2.1109,2.1109,2.1109,2.1109,2.1109,2.1109,2.1109,2.1109,2.1109,2.1109,2.1109,2.1109,2.1109,2.1109,2.1109,2.1109,2.1109,2.1109,2.1109,2.1109,2.1109,2.1109,2.1109,2.1229,2.139,2.1588,2.1804,2.2098,2.2378,2.1713,2.0953,2.0178,1.8369,1.6756,1.5839,1.4085,1.2602,1.1691,1.1619,1.1619,1.1619,1.1619,1.1653,1.1728,1.1796,1.187,1.1952,1.2101,1.2216,1.2291,1.2366,1.2433,1.2501,1.2501,1.2501,2.7816,2.8294,2.8682,2.6367,2.6627,2.6381,2.2421,2.1456,0.0,0.0,1.4662,1.4321,1.3338,0.0,0.0,0.0,0.0,0.0,0.0,0.0,0.0,0.0,0.0,0.0,0.0,0.0,0.0,0.0,0.0,0.0,2.5693,2.6543,2.6858,2.6532,2.7357,2.7833,2.7833,2.6045,2.5883,2.7353,2.6263,2.6136,2.6877,2.7615,2.793,2.7833,2.7833,0.0,0.0,2.4425,2.2928,2.0233,2.0882,2.1109,2.1109,2.1109,2.1109,2.1109,2.1109,2.1109,2.1109,2.1109,2.1109,2.1109,2.1109,2.1109,2.1109,2.1109,2.1109,2.1109,2.1109,2.1109,2.1109,2.1109,2.1109,2.1109,2.1109,2.1109,2.1122,2.1189,2.139,2.1655,2.1775,2.2111,2.2445,2.2498,2.1102,1.9912,1.9495,1.6545,1.4219,1.3872,1.2466,1.1619,1.1619,1.1619,1.1619,1.1619,1.1619,1.1681,1.1823,1.1864,1.1952,1.2108,1.2257,1.2338,1.2338,1.2447,1.2501,1.2501,1.2501,1.2501,2.8372,2.845,2.8602,2.6849,2.6517,2.577,2.266,0.0,0.0,1.6094,1.4958,1.4562,1.4076,0.0,0.0,0.0,0.0,1.928,0.0,0.0,0.0,0.0,0.0,0.0,0.0,0.0,0.0,0.0,0.0,0.0,2.5693,2.6543,2.6378,2.5029,2.5845,2.6318,2.6318,2.3431,2.3471,2.6209,2.5164,2.4474,2.4233,2.6018,2.6627,2.6318,2.6318,0.0,0.0,2.4425,2.2928,2.0233,2.0882,2.1109,2.1109,2.1109,2.1109,2.1109,2.1109,2.1109,2.1109,2.1109,2.1109,2.1109,2.1109,2.1109,2.1109,2.1109,2.1109,2.1109,2.1109,2.1109,2.1109,2.1109,2.1109,2.1109,2.1109,2.1109,2.1189,2.1456,2.1601,2.1724,2.2245,2.2378,2.2512,2.2779,2.1296,1.9426,1.7669,1.5698,1.3729,1.2043,1.1691,1.1619,1.1619,1.1619,1.1619,1.1619,1.1619,1.1681,1.1823,1.1965,1.2115,1.2264,1.2413,1.2481,1.2481,1.2494,1.2501,1.2501,1.2501,1.2501,2.8851,2.9551,2.9844,2.7162,2.6619,2.573,2.1861,0.0,1.8137,1.4899,1.4088,1.392,1.3769,0.0,0.0,0.0,0.0,0.0,0.0,0.0,0.0,0.0,0.0,0.0,0.0,0.0,0.0,0.0,0.0,0.0,2.6113,2.585,2.5522,2.5145,2.5757,2.61,2.61,2.3989,2.3989,2.61,2.4991,2.4357,2.4152,2.5898,2.6066,2.4979,2.4812,0.0,0.0,2.3123,2.2111,2.0233,2.0882,2.1109,2.1109,2.1109,2.1109,2.1109,2.1109,2.1109,2.1109,2.1109,2.1109,2.1109,2.1109,2.1109,2.1109,2.1109,2.1109,2.1109,2.1109,2.1109,2.1109,2.1109,2.1109,2.1109,2.1109,2.1109,2.1203,2.1561,2.1762,2.1937,2.2352,2.2565,2.2726,2.2914,2.1321,1.9843,1.9077,1.6263,1.4077,1.3381,1.2252,1.1619,1.1619,1.1619,1.1619,1.1619,1.1701,1.1816,1.1965,1.2115,1.2271,1.2413,1.2474,1.2501,1.2501,1.2501,1.2501,1.2501,1.2501,1.2501,2.8789,2.9702,3.0086,2.7196,2.6314,2.5115,0.0,0.0,1.7013,1.4241,1.3629,1.3606,1.3678,0.0,0.0,0.0,0.0,1.8262,0.0,0.0,0.0,0.0,0.0,0.0,0.0,0.0,0.0,0.0,0.0,0.0,2.6543,2.547,2.4773,2.4737,2.4778,2.4765,2.4765,2.3263,2.3263,2.4765,2.4698,2.4064,2.3064,2.5224,2.5264,2.3607,2.3311,0.0,0.0,2.2259,2.1601,2.0233,2.0882,2.1109,2.1109,2.1109,2.1109,2.1109,2.1109,2.1109,2.1109,2.1109,2.1109,2.1109,2.1109,2.1109,2.1109,2.1109,2.1109,2.1109,2.1109,2.1109,2.1109,2.1109,2.1109,2.1136,2.1216,2.1243,2.1349,2.1737,2.1977,2.2205,2.2498,2.2726,2.2928,2.2928,2.1321,2.0132,2.0132,1.7248,1.5,1.4432,1.3238,1.218,1.1619,1.1619,1.1619,1.1619,1.1755,1.1898,1.2054,1.221,1.2359,1.2501,1.2501,1.2501,1.2501,1.2501,1.2501,1.2501,1.2501,1.2501,2.8135,2.8502,2.862,2.6918,2.5409,2.3722,0.0,0.0,0.0,1.47,1.3942,1.3845,1.407,1.4114,0.0,0.0,0.0,0.0,0.0,0.0,0.0,0.0,0.0,0.0,0.0,0.0,0.0,0.0,0.0,0.0,2.6973,2.5618,2.4298,2.3277,2.2193,2.1643,2.1643,2.0199,2.0199,2.1643,2.3972,2.3259,1.9978,2.3524,2.4001,0.0,0.0,0.0,0.0,2.2259,2.1601,2.0233,2.0882,2.1109,2.1109,2.1109,2.1109,2.1109,2.1109,2.1109,2.1109,2.1109,2.1109,2.1109,2.1109,2.1109,2.1109,2.1109,2.1109,2.1109,2.1109,2.1109,2.1109,2.1109,2.1109,2.1189,2.1547,2.1614,2.1724,2.2298,2.2405,2.2512,2.2806,2.2928,2.2928,2.2928,2.1321,2.0132,2.0132,1.8369,1.6474,1.4574,1.4361,1.3587,1.1756,1.1619,1.1619,1.1619,1.1755,1.1898,1.2054,1.221,1.2359,1.2501,1.2501,1.2501,1.2501,1.2501,1.2501,1.2501,1.2501,1.2501,2.5371,2.612,2.6198,2.4004,2.2812,2.1554,1.914,0.0,0.0,0.0,0.0,0.0,1.4082,1.4582,1.5527,1.7129,0.0,0.0,0.0,0.0,0.0,0.0,0.0,0.0,0.0,0.0,0.0,0.0,0.0,0.0,2.6973,2.4612,2.3834,2.5123,2.4861,2.4156,2.3095,2.2661,2.2153,2.1643,2.3972,2.3324,2.0167,2.3751,2.3719,0.0,0.0,0.0,0.0,2.069,2.0651,2.0233,2.0882,2.1109,2.1109,2.1109,2.1109,2.1109,2.1109,2.1109,2.1109,2.1109,2.1109,2.1109,2.1109,2.1109,2.1109,2.1109,2.1109,2.1109,2.1109,2.1109,2.1109,2.1109,2.1109,2.1136,2.1229,2.1403,2.1735,2.2044,2.2285,2.2512,2.2806,2.2928,2.2928,2.2928,2.2366,2.2022,2.2022,2.034,1.8938,1.8369,1.7107,1.5,1.19,1.1619,1.166,1.1755,1.1904,1.206,1.221,1.2359,1.2454,1.2501,1.2501,1.2501,1.2501,1.2501,1.2501,1.2501,1.2501,1.2556,0.0,2.4027,2.4262,2.2115,2.081,1.9604,0.0,0.0,0.0,0.0,0.0,0.0,0.0,0.0,1.5547,1.6731,1.7031,0.0,0.0,0.0,0.0,0.0,0.0,0.0,0.0,0.0,0.0,0.0,0.0,0.0,2.6167,2.4527,2.4345,2.6027,2.4986,2.3933,2.2983,2.2983,2.2209,2.0816,2.3135,2.281,2.0301,2.3263,2.3067,0.0,0.0,0.0,0.0,2.0321,2.0494,2.0454,2.1042,2.1203,2.1109,2.1109,2.1109,2.1109,2.1109,2.1109,2.1109,2.1109,2.1109,2.1109,2.1109,2.1109,2.1109,2.1109,2.1109,2.1109,2.1109,2.1109,2.1109,2.1109,2.1109,2.1176,2.139,2.159,2.1896,2.2231,2.2458,2.2645,2.2832,2.2928,2.2928,2.2928,2.2928,2.2928,2.2928,2.1872,2.0894,2.0201,1.8369,1.599,1.2888,1.2674,1.2388,1.1823,1.1979,1.2128,1.2284,1.2427,1.2501,1.2501,1.2501,1.2501,1.2501,1.2501,1.2501,1.2501,1.2562,1.2637,0.0,2.1933,2.2505,2.0927,1.9285,1.7858,0.0,0.0,0.0,0.0,0.0,0.0,0.0,0.0,1.5165,1.6085,1.6543,0.0,0.0,0.0,0.0,0.0,0.0,0.0,0.0,0.0,0.0,0.0,0.0,0.0,2.5011,2.5234,2.5631,2.6082,2.3263,2.1756,2.1756,2.1756,2.0988,1.9457,2.1656,2.1841,2.0267,2.2248,2.2256,0.0,0.0,0.0,0.0,2.0855,2.0949,2.0788,2.1373,2.1376,2.1162,2.1122,2.1136,2.1162,2.1122,2.1122,2.1136,2.1122,2.1109,2.1109,2.1109,2.1109,2.1109,2.1109,2.1109,2.1109,2.1109,2.1109,2.1109,2.1109,2.1109,2.1269,2.183,2.1977,2.2151,2.2726,2.2846,2.2928,2.2928,2.2928,2.2928,2.2928,2.2928,2.2928,2.2928,2.2928,2.2229,2.0479,1.8578,1.6615,1.4787,1.4361,1.3523,1.191,1.1979,1.2135,1.2298,1.2433,1.2501,1.2501,1.2501,1.2501,1.2501,1.2501,1.2508,1.2522,1.2651,1.2732,1.6903,0.0,1.8471,1.7554,1.6601,1.563,0.0,0.0,0.0,0.0,0.0,0.0,0.0,0.0,0.0,0.0,0.0,0.0,0.0,0.0,0.0,0.0,0.0,0.0,0.0,0.0,0.0,0.0,0.0,2.6412,2.6461,2.5779,2.5631,2.6082,2.4267,2.3263,2.3263,2.3263,2.2063,1.9706,2.1757,2.1956,2.0636,2.2581,2.2472,0.0,0.0,0.0,2.0588,2.0722,2.1002,2.14,2.1243,2.1443,2.1724,2.1269,2.139,2.171,2.1269,2.1256,2.1416,2.1189,2.1109,2.1109,2.1109,2.1109,2.1109,2.1109,2.1109,2.1109,2.1109,2.1109,2.1109,2.1109,2.1109,2.1203,2.1641,2.183,2.2084,2.2458,2.2712,2.2928,2.2928,2.2928,2.2928,2.2928,2.2928,2.2928,2.2928,2.2928,2.2722,2.2297,2.0548,1.8648,1.6685,1.3872,1.2156,1.2067,1.204,1.2182,1.244,1.2481,1.2501,1.2501,1.2501,1.2501,1.2501,1.2501,1.2562,1.2671,1.2589,1.2739,1.5798,1.6237,1.6866,1.6042,1.5256,1.4605,1.4208,0.0,0.0,0.0,0.0,0.0,0.0,0.0,0.0,0.0,0.0,0.0,0.0,0.0,0.0,0.0,0.0,0.0,0.0,0.0,0.0,0.0,0.0,2.6531,2.6295,2.5949,2.5829,2.61,2.4599,2.3487,2.2814,2.2814,2.175,1.98,2.098,2.1227,2.0743,2.1902,2.1881,0.0,0.0,0.0,2.1082,2.1229,2.1454,2.1628,2.167,2.1737,2.1764,2.1577,2.171,2.1924,2.147,2.1323,2.1323,2.1162,2.1109,2.1109,2.1109,2.1109,2.1109,2.1109,2.1109,2.1109,2.1109,2.1109,2.1109,2.1109,2.1216,2.139,2.1683,2.1977,2.2271,2.2565,2.2752,2.2928,2.2928,2.2928,2.2928,2.2928,2.2928,2.2928,2.2928,2.2928,2.2928,2.2928,2.0409,1.8412,1.7389,1.385,1.1816,1.2047,1.2128,1.2271,1.2494,1.2501,1.2501,1.2501,1.2501,1.2535,1.261,1.261,1.2684,1.2834,1.282,1.2942,1.5981,1.6378,1.6788,1.5578,1.4785,1.4367,0.0,0.0,0.0,0.0,0.0,0.0,0.0,0.0,0.0,0.0,0.0,0.0,0.0,0.0,0.0,0.0,0.0,0.0,0.0,0.0,0.0,0.0,0.0,2.6601,2.5804,2.6225,2.6318,2.61,2.4599,2.3095,2.1643,2.1586,2.1162,2.021,2.0227,2.0537,2.1107,2.1115,2.1109,2.1109,0.0,0.0,2.1695,2.1844,2.1857,2.1856,2.2191,2.2084,2.171,2.1911,2.1991,2.1937,2.1722,2.1363,2.1109,2.1109,2.1109,2.1109,2.1109,2.1109,2.1109,2.1109,2.1109,2.1109,2.1109,2.1109,2.1109,2.1109,2.1336,2.1695,2.1924,2.2218,2.2512,2.2806,2.2928,2.2928,2.2928,2.2928,2.2928,2.2928,2.2928,2.2928,2.2928,2.2928,2.2928,2.2928,1.9773,1.7611,1.7439,1.4285,1.2213,1.2128,1.2203,1.2352,1.2494,1.2501,1.2515,1.2535,1.2535,1.261,1.2766,1.2766,1.284,1.2996,1.3098,1.3166,1.6328,1.7309,1.7827,1.5428,1.5035,1.5048,0.0,0.0,0.0,0.0,0.0,0.0,0.0,0.0,0.0,0.0,0.0,0.0,0.0,0.0,0.0,0.0,0.0,0.0,0.0,0.0,0.0,0.0,0.0,0.0,2.7303,2.7728,2.7384,2.6155,2.4599,2.3095,2.1643,2.1586,2.1842,2.223,2.0865,2.123,2.3127,2.1699,2.1109,2.1109,0.0,2.1416,2.1897,2.1762,2.2097,2.2686,2.2218,2.2151,2.2258,2.2058,2.1991,2.1937,2.1722,2.1363,2.1109,2.1109,2.1109,2.1109,2.1109,2.1109,2.1109,2.1109,2.1109,2.1109,2.1109,2.1109,2.1109,2.1109,2.1336,2.1695,2.1924,2.2218,2.2512,2.2806,2.2928,2.2928,2.2928,2.2928,2.2928,2.2928,2.2928,2.2928,2.2928,2.2928,2.2928,2.2928,2.0963,1.9019,1.7369,1.5478,1.3784,1.221,1.2203,1.2352,1.2494,1.2501,1.2562,1.2691,1.2698,1.2773,1.2929,1.2929,1.2996,1.3139,1.3037,1.3125,1.6065,1.6953,1.7751,1.6785,1.7341,0.0,0.0,0.0,0.0,0.0,0.0,0.0,0.0,0.0,0.0,0.0,0.0,0.0,0.0,0.0,0.0,0.0,0.0,0.0,0.0,0.0,0.0,0.0,0.0,0.0,2.7988,2.8184,2.7618,2.6155,2.4599,2.3487,2.2814,2.2208,2.221,2.2647,2.1166,2.1547,2.3512,2.1853,2.1109,2.1109,0.0,2.1349,2.1815,2.1842,2.2017,2.2392,2.2445,2.2352,2.2164,2.2031,2.1991,2.1937,2.1722,2.1363,2.1109,2.1109,2.1109,2.1109,2.1109,2.1109,2.1109,2.1109,2.1109,2.1109,2.1109,2.1109,2.1109,2.1109,2.1456,2.1817,2.1951,2.2338,2.2699,2.2832,2.2928,2.2928,2.2928,2.2928,2.2928,2.2928,2.2928,2.2928,2.2928,2.2928,2.2928,2.2928,2.1252,1.9388,1.7592,1.5903,1.4191,1.2436,1.2366,1.2433,1.2501,1.2501,1.2535,1.2603,1.2684,1.2807,1.2963,1.3037,1.3152,1.3295,1.3227,1.3268,1.6122,1.6885,1.7884,0.0,0.0,0.0,0.0,0.0,0.0,0.0,0.0,0.0,0.0,0.0,0.0,0.0,0.0,0.0,0.0,0.0,0.0,0.0,0.0,0.0,0.0,0.0,0.0,0.0,0.0,0.0,2.8262,2.8301,2.7618,2.6155,2.4599,2.3822,2.3822,2.2782,2.2788,2.3771,2.2083,2.2276,2.4116,2.2027,2.1109,2.1109,2.1189,2.1376,2.1735,2.1964,2.2124,2.2231,2.2605,2.2485,2.2071,2.1937,2.1977,2.2031,2.1603,2.1349,2.1203,2.1136,2.1109,2.1122,2.1189,2.1162,2.1122,2.1189,2.1162,2.1109,2.1109,2.1109,2.1109,2.1109,2.1563,2.1991,2.1991,2.2445,2.2928,2.2928,2.2928,2.2928,2.2928,2.2928,2.2928,2.2928,2.2928,2.2928,2.2928,2.2928,2.2928,2.2928,2.166,2.0004,1.7945,1.5641,1.3785,1.2558,1.2501,1.2501,1.2501,1.2501,1.2535,1.261,1.2725,1.2874,1.3064,1.3173,1.3288,1.3403,1.3403,1.3403,1.713,1.808,0.0,0.0,0.0,0.0,0.0,0.0,0.0,0.0,0.0,0.0,0.0,0.0,0.0,0.0,0.0,0.0,0.0,0.0,0.0,0.0,0.0,0.0,0.0,0.0,0.0,0.0,0.0,0.0,2.8262,2.8301,2.7618,2.6155,2.4599,2.3822,2.3822,2.3045,2.4135,2.695,2.4221,2.3962,2.5741,2.2577,2.1109,2.1122,2.1403,2.1748,2.1977,2.2271,2.2552,2.2847,2.2539,2.2432,2.2325,2.1777,2.1924,2.2271,2.143,2.1309,2.1534,2.1203,2.1109,2.1162,2.1443,2.1323,2.1162,2.1507,2.1323,2.1109,2.1109,2.1109,2.1109,2.1109,2.1563,2.1991,2.1991,2.2445,2.2928,2.2928,2.2928,2.2928,2.2928,2.2928,2.2928,2.2928,2.2928,2.2928,2.2928,2.2928,2.2928,2.2928,2.2974,2.1719,1.8326,1.4659,1.2491,1.2494,1.2501,1.2501,1.2501,1.2501,1.2637,1.2922,1.2935,1.3085,1.337,1.3376,1.339,1.3403,1.3403,1.3403,1.6798,1.7879,0.0,0.0,0.0,0.0,0.0,0.0,0.0,0.0,0.0,0.0,0.0,0.0,0.0,0.0,0.0,0.0,0.0,0.0,0.0,0.0,0.0,0.0,0.0,0.0,0.0,0.0,0.0,0.0,0.0,2.8301,2.7618,2.6155,2.5535,2.5328,2.559,2.5583,2.625,2.7557,2.4795,2.3809,2.4409,2.2153,2.1109,2.1122,2.143,2.1681,2.175,2.2218,2.2485,2.2579,2.2458,2.2418,2.2352,2.1829,2.1924,2.2298,2.1416,2.1416,2.1737,2.1269,2.1229,2.1403,2.1588,2.1349,2.1176,2.1534,2.1336,2.1109,2.1109,2.1109,2.1109,2.1109,2.1563,2.1991,2.1991,2.2445,2.2928,2.2928,2.2928,2.2928,2.2928,2.2928,2.2928,2.2928,2.2928,2.2928,2.2928,2.2928,2.2928,2.2928,2.2154,2.0624,1.809,1.5679,1.3808,1.2572,1.2501,1.2501,1.2501,1.2501,1.2603,1.2813,1.2908,1.3057,1.3261,1.3356,1.3403,1.3403,1.3403,1.3403,1.7166,1.819,0.0,0.0,0.0,0.0,0.0,0.0,0.0,0.0,0.0,0.0,0.0,0.0,0.0,0.0,0.0,0.0,0.0,0.0,0.0,0.0,0.0,0.0,0.0,0.0,0.0,0.0,0.0,0.0,0.0,2.8301,2.7618,2.6155,2.6227,2.6425,2.6715,2.7239,2.7329,2.6994,2.5214,2.4116,2.3512,2.1853,2.1109,2.1136,2.1523,2.1762,2.1802,2.2325,2.2445,2.2298,2.2485,2.2445,2.2245,2.1937,2.2138,2.2432,2.155,2.1577,2.1884,2.1296,2.1243,2.143,2.1588,2.1349,2.1176,2.1534,2.1336,2.1109,2.1109,2.1109,2.1109,2.1109,2.1563,2.1991,2.1991,2.2445,2.2928,2.2928,2.2928,2.2928,2.2928,2.2928,2.2928,2.2928,2.2928,2.2928,2.2928,2.2928,2.3008,2.3126,2.1706,1.9944,1.8107,1.6446,1.4629,1.2656,1.2501,1.2501,1.2501,1.2501,1.2596,1.28,1.2908,1.3057,1.3247,1.3349,1.3403,1.3403,1.3403,1.3403,1.8541,0.0,0.0,0.0,0.0,0.0,0.0,0.0,0.0,0.0,0.0,0.0,0.0,0.0,0.0,0.0,0.0,0.0,0.0,0.0,0.0,0.0,0.0,0.0,0.0,0.0,0.0,0.0,0.0,0.0,0.0,0.0,2.7618,2.6155,2.6498,2.6733,2.6733,2.7567,2.7111,2.532,2.5803,2.513,2.3512,2.1853,2.1109,2.1136,2.1737,2.1991,2.2031,2.2619,2.2512,2.2044,2.2632,2.2498,2.2017,2.2311,2.2605,2.2794,2.1923,2.1815,2.1884,2.1309,2.1109,2.1176,2.1534,2.1349,2.1176,2.1534,2.1336,2.1109,2.1109,2.1109,2.1109,2.1109,2.1563,2.1991,2.1991,2.2445,2.2928,2.2928,2.2928,2.2928,2.2928,2.2928,2.2928,2.2928,2.2928,2.2928,2.2928,2.2928,2.3169,2.3701,2.1929,2.0151,1.8683,1.6675,1.4629,1.2656,1.2501,1.2501,1.2501,1.2501,1.2644,1.2956,1.2963,1.3105,1.3403,1.3403,1.3403,1.3403,1.3403,1.3403,1.6765,0.0,0.0,0.0,0.0,0.0,0.0,0.0,0.0,0.0,0.0,0.0,0.0,0.0,0.0,0.0,0.0,0.0,0.0,0.0,0.0,0.0,0.0,0.0,0.0,0.0,0.0,0.0,0.0,0.0,0.0,0.0,0.0,0.0,2.8172,2.8516,2.9164,2.9432,2.8851,2.7456,2.7621,2.5619,2.1853,2.1362,2.1109,2.1136,2.1737,2.1991,2.2031,2.2619,2.2512,2.2044,2.2632,2.2445,2.1737,2.2231,2.2472,2.2458,2.1856,2.1884,2.2164,2.1363,2.139,2.1737,2.183,2.1657,2.1523,2.2017,2.1657,2.1162,2.1363,2.1269,2.1109,2.1109,2.1563,2.1991,2.1991,2.2445,2.2928,2.2928,2.2928,2.2928,2.2928,2.2928,2.2928,2.2928,2.2928,2.2928,2.2928,2.2928,2.2995,2.3182,2.3007,2.1558,1.8244,1.7791,1.6227,1.2733,1.2501,1.2501,1.2501,1.2501,1.2644,1.2956,1.2963,1.3105,1.3403,1.3403,1.3403,1.3403,1.3403,1.3403,0.0,0.0,0.0,0.0,0.0,0.0,0.0,0.0,0.0,0.0,0.0,0.0,0.0,0.0,0.0,0.0,0.0,0.0,0.0,0.0,0.0,0.0,0.0,0.0,0.0,0.0,0.0,0.0,0.0,0.0,0.0,0.0,0.0,0.0,2.9082,2.9512,3.0195,3.0371,2.9754,2.8426,2.8426,2.6167,2.209,2.209,2.1727,2.1136,2.1737,2.2124,2.2365,2.2712,2.2579,2.2205,2.2686,2.2459,2.1856,2.2378,2.2512,2.2365,2.2017,2.2044,2.2138,2.1496,2.1523,2.179,2.167,2.1603,2.1695,2.1977,2.1603,2.1203,2.1617,2.1416,2.1109,2.1109,2.1563,2.1991,2.1991,2.2445,2.2928,2.2928,2.2928,2.2928,2.2928,2.2928,2.2928,2.2928,2.2928,2.2928,2.2928,2.2928,2.2913,2.3033,2.3487,2.2194,1.8183,1.8295,1.6828,1.2726,1.2501,1.2501,1.2501,1.2562,1.2705,1.2956,1.3017,1.3159,1.3403,1.3403,1.3403,1.3403,1.3403,1.3403,0.0,0.0,0.0,0.0,0.0,0.0,0.0,0.0,0.0,0.0,0.0,0.0,0.0,0.0,0.0,0.0,0.0,0.0,0.0,0.0,0.0,0.0,0.0,0.0,0.0,0.0,0.0,0.0,0.0,0.0,0.0,0.0,0.0,2.8965,2.9394,2.9824,3.0254,3.0684,3.0157,0.0,2.8605,2.697,2.3807,2.3698,2.2745,2.1216,2.1777,2.2338,2.2928,2.2928,2.2686,2.2445,2.2752,2.2485,2.2017,2.2605,2.2632,2.2378,2.2378,2.2205,2.1937,2.1708,2.1641,2.1601,2.1243,2.1376,2.1695,2.1695,2.1403,2.1283,2.1871,2.1563,2.1122,2.1149,2.1577,2.1991,2.1991,2.2445,2.2928,2.2928,2.2928,2.2928,2.2928,2.2928,2.2928,2.2928,2.2928,2.2928,2.2928,2.2928,2.2979,2.33,2.3594,2.2256,1.8441,1.8441,1.6828,1.2726,1.2501,1.2501,1.2501,1.2651,1.28,1.3036,1.3098,1.3247,1.3403,1.3403,1.3403,1.3403,1.3403,1.3403,0.0,0.0,0.0,0.0,0.0,0.0,0.0,0.0,0.0,0.0,0.0,0.0,0.0,0.0,0.0,0.0,0.0,0.0,0.0,0.0,0.0,0.0,0.0,0.0,0.0,0.0,0.0,0.0,0.0,0.0,0.0,0.0,0.0,2.9414,2.9844,3.0273,3.0742,3.084,3.0704,0.0,3.0333,2.8683,2.5436,2.4178,2.2912,2.1817,2.2178,2.2525,2.2928,2.2928,2.2686,2.2445,2.2752,2.2432,2.1775,2.2298,2.2325,2.2084,2.2084,2.2031,2.1937,2.1708,2.171,2.1844,2.1614,2.1817,2.2231,2.2231,2.1857,2.159,2.2178,2.1724,2.1162,2.1403,2.1724,2.1991,2.1991,2.2445,2.2928,2.2928,2.2928,2.2928,2.2928,2.2928,2.2928,2.2928,2.2928,2.2928,2.2928,2.2928,2.2979,2.33,2.3594,2.2256,1.8441,1.8441,1.6828,1.2726,1.2501,1.2501,1.2501,1.2651,1.28,1.3036,1.3098,1.3247,1.3403,1.3403,1.3403,1.3403,1.3403,1.3403,0.0,0.0,0.0,0.0,0.0,0.0,0.0,0.0,0.0,0.0,0.0,0.0,0.0,0.0,0.0,0.0,0.0,0.0,0.0,0.0,0.0,0.0,0.0,0.0,0.0,0.0,0.0,0.0,0.0,0.0,0.0,2.8809,2.9219,2.9844,3.0078,3.043,3.0879,3.0898,3.0898,3.0898,3.0664,2.8861,2.5616,2.3586,2.2387,2.2004,2.2298,2.2592,2.2914,2.2712,2.2645,2.2619,2.2498,2.2245,2.1991,2.2151,2.2111,2.2004,2.2151,2.2004,2.1804,2.1924,2.1884,2.175,2.1668,2.1857,2.2178,2.2044,2.179,2.1722,2.2098,2.1657,2.1189,2.1547,2.1777,2.1991,2.1991,2.2445,2.2928,2.2928,2.2928,2.2928,2.2928,2.2928,2.2928,2.2928,2.2928,2.2928,2.2928,2.2928,2.2979,2.33,2.2718,2.1161,1.8367,1.7463,1.5769,1.2733,1.2501,1.2501,1.2501,1.2718,1.2881,1.3043,1.3173,1.3322,1.3403,1.3403,1.3403,1.3403,1.3403,1.3403,0.0,0.0,0.0,0.0,0.0,0.0,0.0,0.0,0.0,0.0,0.0,0.0,0.0,0.0,0.0,0.0,0.0,0.0,0.0,0.0,0.0,0.0,0.0,0.0,0.0,0.0,0.0,0.0,0.0,0.0,2.8906,2.9062,2.9473,3.0176,3.0273,3.0508,3.0879,3.0898,3.0859,3.0762,2.9853,2.7885,2.4875,2.2687,2.1804,2.2004,2.2352,2.2632,2.2846,2.2539,2.2565,2.2739,2.2191,2.2138,2.2311,2.2017,2.1977,2.2084,2.2271,2.2031,2.1775,2.2245,2.2058,2.1681,2.1628,2.183,2.2071,2.1789,2.1735,2.1764,2.1991,2.163,2.1243,2.1561,2.1802,2.1924,2.1977,2.2445,2.2928,2.2928,2.2928,2.2928,2.2928,2.2928,2.2928,2.2928,2.2928,2.2928,2.2928,2.2913,2.306,2.3367,2.1842,2.0117,1.8353,1.6509,1.4629,1.2656,1.2501,1.2501,1.2501,1.28,1.2963,1.2963,1.3254,1.3403,1.3403,1.3403,1.3403,1.3403,1.3403,1.3403,0.0,0.0,0.0,0.0,0.0,0.0,0.0,0.0,0.0,0.0,0.0,0.0,0.0,0.0,0.0,0.0,0.0,0.0,0.0,0.0,0.0,0.0,0.0,0.0,0.0,0.0,0.0,0.0,0.0,0.0,2.8906,2.9629,3.0078,3.0195,3.0586,3.082,3.0898,3.0898,3.0684,3.0236,2.7641,2.5331,2.3354,2.2623,2.2191,2.2017,2.2565,2.2887,2.2846,2.2539,2.2445,2.2445,2.2111,2.2004,2.2004,2.1724,2.1924,2.2338,2.2111,2.1991,2.1977,2.2311,2.2191,2.1884,2.1695,2.2177,2.2632,2.2084,2.2111,2.2311,2.2352,2.1924,2.1574,2.1601,2.1641,2.1748,2.1937,2.2445,2.2928,2.2928,2.2928,2.2928,2.2928,2.2928,2.2928,2.2928,2.2928,2.2928,2.2928,2.31,2.338,2.3674,2.2199,2.045,1.8662,1.6657,1.4629,1.2656,1.2501,1.2501,1.2501,1.28,1.2963,1.2963,1.3254,1.3403,1.3403,1.3403,1.3403,1.3403,1.3403,1.3403,0.0,0.0,0.0,0.0,0.0,0.0,0.0,0.0,0.0,0.0,0.0,0.0,0.0,0.0,0.0,0.0,0.0,0.0,0.0,0.0,0.0,0.0,0.0,0.0,0.0,0.0,0.0,0.0,0.0,2.9023,2.9277,2.9863,3.0312,3.0586,3.0781,3.0762,3.0508,3.0762,3.0238,2.8836,2.6618,2.4642,2.2989,2.2245,2.1951,2.2017,2.2605,2.2766,2.2605,2.2472,2.2325,2.2164,2.2031,2.2084,2.2178,2.1724,2.1924,2.2378,2.2084,2.1884,2.1909,2.2472,2.2245,2.1777,2.1977,2.2191,2.2311,2.2058,2.2071,2.2138,2.1977,2.1815,2.1574,2.1336,2.1563,2.183,2.1951,2.2311,2.2659,2.2832,2.2928,2.2928,2.2928,2.2928,2.2928,2.2928,2.2928,2.2926,2.31,2.3247,2.3064,2.2403,2.0631,1.8777,1.7037,1.5012,1.3414,1.2579,1.2501,1.2542,1.2623,1.284,1.3077,1.3078,1.3295,1.3403,1.3403,1.3403,1.3403,1.3403,1.3403,1.3403,0.0,0.0,0.0,0.0,0.0,0.0,0.0,0.0,0.0,0.0,0.0,0.0,0.0,0.0,0.0,0.0,0.0,0.0,0.0,0.0,0.0,0.0,0.0,0.0,0.0,0.0,0.0,0.0,0.0,2.9219,2.9551,3.0078,3.0527,3.0879,3.0898,3.0664,3.0195,3.0332,2.9371,2.7329,2.5906,2.423,2.2447,2.1952,2.1737,2.1911,2.2498,2.2579,2.2311,2.2311,2.2138,2.1884,2.1884,2.2004,2.2151,2.1775,2.1924,2.2365,2.2004,2.1777,2.1856,2.2512,2.2258,2.1764,2.2258,2.2271,2.2084,2.2004,2.2044,2.2004,2.1708,2.1722,2.1657,2.1216,2.1563,2.2031,2.2178,2.2378,2.2592,2.2819,2.2928,2.2928,2.2928,2.2928,2.2928,2.2928,2.2928,2.2979,2.3287,2.3394,2.284,2.1386,1.9404,1.749,1.5675,1.3645,1.2501,1.2501,1.2501,1.2569,1.2725,1.2881,1.303,1.3166,1.3322,1.3403,1.3403,1.3403,1.3403,1.3403,1.3403,1.3403,0.0,0.0,0.0,0.0,0.0,0.0,0.0,0.0,0.0,0.0,0.0,0.0,0.0,0.0,0.0,0.0,0.0,0.0,0.0,0.0,0.0,0.0,0.0,0.0,0.0,0.0,0.0,0.0,0.0,2.9551,2.9626,3.0391,3.0859,3.0898,3.0898,3.0664,3.0195,2.9414,2.8049,2.6073,2.5425,2.3703,2.1235,2.1762,2.1817,2.1668,2.2191,2.2271,2.2004,2.2004,2.1844,2.1641,2.1641,2.1655,2.1655,2.1628,2.1924,2.2338,2.1777,2.1815,2.2017,2.2338,2.2218,2.2017,2.2325,2.2405,2.2338,2.2058,2.2178,2.2271,2.1762,2.1964,2.2164,2.1309,2.1563,2.2138,2.2699,2.2832,2.2914,2.2928,2.2928,2.2928,2.2928,2.2928,2.2928,2.2928,2.2928,2.2979,2.3287,2.3581,2.3132,2.141,1.9628,1.773,1.5693,1.3645,1.2501,1.2501,1.2501,1.2569,1.2725,1.2881,1.303,1.3166,1.3322,1.3403,1.3403,1.3403,1.3403,1.3403,1.3403,1.3403,0.0,0.0,0.0,0.0,0.0,0.0,0.0,0.0,0.0,0.0,0.0,0.0,0.0,0.0,0.0,0.0,0.0,0.0,0.0,0.0,0.0,0.0,0.0,0.0,0.0,0.0,0.0,0.0,0.0,0.0,2.9961,3.0273,3.0449,3.0449,3.0176,2.9961,2.9805,2.8945,2.7549,2.5561,2.5081,2.3505,2.1122,2.1323,2.1363,2.1296,2.1697,2.1804,2.1789,2.1911,2.1697,2.1323,2.1884,2.1884,2.1641,2.1764,2.2084,2.2338,2.1815,2.1815,2.2004,2.2111,2.1951,2.1764,2.2058,2.2004,2.1924,2.2191,2.2071,2.1857,2.1844,2.1844,2.183,2.1697,2.1977,2.2378,2.2847,2.2928,2.2928,2.2928,2.2928,2.2928,2.2928,2.2928,2.2928,2.2928,2.2928,2.3046,2.3541,2.3701,2.2692,1.9841,1.8974,1.7208,1.3868,1.2881,1.2501,1.2501,1.2501,1.2617,1.2868,1.2929,1.3071,1.3315,1.337,1.3403,1.3403,1.3403,1.3403,1.3403,1.3403,1.3403,0.0,0.0,0.0,0.0,0.0,0.0,0.0,0.0,0.0,0.0,0.0,0.0,0.0,0.0,0.0,0.0,0.0,0.0,0.0,0.0,0.0,0.0,0.0,0.0,0.0,0.0,0.0,0.0,0.0,0.0,3.0176,3.0059,2.998,2.998,2.957,2.9414,2.9626,2.8867,2.7772,2.6279,2.5906,2.4755,2.2909,2.2808,2.2452,2.1915,2.2187,2.202,2.1628,2.1764,2.1617,2.1309,2.1897,2.183,2.1443,2.1737,2.1964,2.2058,2.1577,2.159,2.1844,2.1844,2.1775,2.1668,2.1897,2.1777,2.1695,2.2017,2.1844,2.1641,2.167,2.1617,2.1722,2.2044,2.2271,2.2498,2.2806,2.2928,2.2928,2.2928,2.2928,2.2928,2.2928,2.2928,2.2928,2.2928,2.2953,2.3207,2.3701,2.3861,2.2832,1.9886,1.9025,1.7208,1.3799,1.2881,1.2501,1.2501,1.2501,1.2637,1.3029,1.2963,1.3098,1.3397,1.3403,1.3403,1.3403,1.3403,1.3403,1.3403,1.3403,1.3403,0.0,0.0,0.0,0.0,0.0,0.0,0.0,0.0,0.0,0.0,0.0,0.0,0.0,0.0,0.0,0.0,0.0,0.0,0.0,0.0,0.0,0.0,0.0,0.0,0.0,0.0,0.0,0.0,0.0,2.9297,3.0156,2.9785,2.9551,2.9531,2.9121,2.9101,2.9587,2.9121,2.8634,2.8134,2.7894,2.7337,2.6356,2.6133,2.513,2.3574,2.3574,2.2826,2.1614,2.1601,2.1601,2.1601,2.1614,2.1376,2.1149,2.1507,2.1614,2.1574,2.1216,2.1309,2.1614,2.1601,2.1614,2.1668,2.1884,2.1764,2.1614,2.1614,2.1614,2.1534,2.1189,2.1336,2.171,2.2271,2.2418,2.2512,2.2806,2.2928,2.2928,2.2928,2.2928,2.2928,2.2928,2.2928,2.2928,2.2928,2.3113,2.342,2.3728,2.4022,2.3559,2.1802,1.9779,1.7739,1.5693,1.3645,1.2501,1.2501,1.2501,1.2637,1.3029,1.2963,1.3098,1.3397,1.3403,1.3403,1.3403,1.3403,1.3403,1.3403,1.3403,1.3403,1.5455,0.0,0.0,0.0,0.0,0.0,0.0,0.0,0.0,0.0,0.0,0.0,0.0,0.0,0.0,0.0,0.0,0.0,0.0,0.0,0.0,0.0,0.0,0.0,0.0,0.0,0.0,0.0,2.9043,2.9297,3.0156,2.9492,2.8965,2.8652,2.8535,2.8516,2.8652,2.8828,2.8387,2.7387,2.7701,2.7197,2.6116,2.6017,2.513,2.3574,2.3574,2.2826,2.1601,2.1323,2.1229,2.1256,2.1534,2.1376,2.1149,2.1507,2.1614,2.1574,2.1216,2.1309,2.1574,2.1296,2.1376,2.1588,2.139,2.1443,2.1614,2.1614,2.1403,2.1216,2.1136,2.1483,2.1911,2.2071,2.2432,2.2766,2.2914,2.2928,2.2928,2.2928,2.2928,2.2928,2.2928,2.2928,2.2928,2.2928,2.2939,2.318,2.3701,2.3834,2.3339,2.1778,1.9779,1.7739,1.5693,1.3645,1.2501,1.2501,1.2501,1.2637,1.3029,1.2963,1.3098,1.3397,1.3403,1.3403,1.3403,1.3403,1.3403,1.3403,1.3403,1.3403,0.0,0.0,0.0,0.0,0.0,0.0,0.0,0.0,0.0,0.0,0.0,0.0,0.0,0.0,0.0,0.0,0.0,0.0,0.0,0.0,0.0,0.0,0.0,0.0,0.0,0.0,0.0,2.8746,2.8711,2.8867,2.9375,2.9101,2.873,2.8301,2.8301,2.8379,2.8555,2.8984,2.893,2.8424,2.8853,2.87,2.8051,2.8051,2.6789,2.4594,2.4594,2.3366,2.1349,2.1176,2.1189,2.1296,2.1349,2.1256,2.1136,2.1309,2.1363,2.1336,2.1162,2.1229,2.1336,2.1162,2.1229,2.1336,2.1162,2.1229,2.1363,2.1363,2.1243,2.1136,2.1256,2.1643,2.2017,2.2138,2.2525,2.2928,2.2928,2.2928,2.2928,2.2928,2.2928,2.2928,2.2928,2.2928,2.2928,2.2928,2.3086,2.3367,2.3728,2.3981,2.3812,2.293,2.0316,1.8118,1.6904,1.4176,1.2501,1.2501,1.2501,1.2637,1.3029,1.2963,1.3098,1.3397,1.3403,1.3403,1.3403,1.3403,1.3403,1.3403,1.3403,1.3403,0.0,0.0,0.0,0.0,0.0,0.0,0.0,0.0,0.0,0.0,0.0,0.0,0.0,0.0,0.0,0.0,0.0,0.0,0.0,0.0,0.0,0.0,0.0,0.0,0.0,2.707,2.763,2.7787,2.8125,2.834,2.8301,2.8652,2.8672,2.8301,2.8301,2.8496,2.8906,2.9355,2.9785,3.0195,3.0664,3.0898,3.0898,3.0704,2.892,2.5984,2.5802,2.3977,2.1109,2.1109,2.1269,2.1483,2.1216,2.1109,2.1109,2.1109,2.1109,2.1109,2.1109,2.1109,2.1109,2.1109,2.1136,2.1149,2.1122,2.1136,2.1149,2.1122,2.1109,2.1176,2.1534,2.1764,2.2058,2.2352,2.2645,2.2928,2.2928,2.2928,2.2928,2.2928,2.2928,2.2928,2.2928,2.2928,2.2928,2.2928,2.3354,2.3728,2.3768,2.4249,2.4596,2.4636,2.1216,1.8874,1.8648,1.5089,1.2733,1.2501,1.2501,1.263,1.2922,1.2949,1.3091,1.337,1.339,1.3403,1.3403,1.3403,1.3403,1.3403,1.3403,1.3403,0.0,0.0,0.0,0.0,0.0,0.0,0.0,0.0,0.0,0.0,0.0,0.0,0.0,0.0,0.0,0.0,0.0,0.0,0.0,0.0,0.0,0.0,0.0,0.0,0.0,2.6543,2.707,2.8086,2.8555,2.8652,2.832,2.8379,2.8379,2.8301,2.8301,2.8496,2.8906,2.9355,2.9785,3.0195,3.0664,3.0898,3.082,2.953,2.7811,2.5924,2.4655,2.2952,2.1109,2.1109,2.1149,2.1189,2.1136,2.1109,2.1109,2.1109,2.1109,2.1109,2.1109,2.1109,2.1109,2.1109,2.1269,2.143,2.1189,2.1269,2.148,2.1176,2.1109,2.1176,2.1534,2.1764,2.2058,2.2352,2.2645,2.2928,2.2928,2.2928,2.2928,2.2928,2.2928,2.2928,2.2928,2.2928,2.2928,2.2928,2.318,2.35,2.3741,2.4075,2.4382,2.4609,2.2434,2.0391,1.8723,1.6371,1.4253,1.2579,1.2501,1.2583,1.2766,1.2895,1.3044,1.3214,1.3336,1.3403,1.3403,1.3403,1.3403,1.3403,1.3403,1.3403,0.0,0.0,0.0,1.7488,0.0,0.0,0.0,0.0,0.0,0.0,0.0,0.0,0.0,0.0,0.0,0.0,0.0,0.0,0.0,0.0,0.0,0.0,0.0,0.0,0.0,2.625,2.6836,2.7891,2.8359,2.8516,2.8301,2.8301,2.8301,2.8301,2.8301,2.8594,2.9238,2.9453,2.9902,3.0547,3.0781,3.0898,3.084,2.9157,2.7494,2.5924,2.4301,2.2654,2.1109,2.1109,2.1109,2.1109,2.1109,2.1109,2.1109,2.1109,2.1109,2.1109,2.1109,2.1109,2.1109,2.1109,2.1203,2.1309,2.1149,2.1216,2.1296,2.1149,2.1109,2.1216,2.1657,2.1884,2.2098,2.2539,2.2752,2.2928,2.2928,2.2928,2.2928,2.2928,2.2928,2.2928,2.2928,2.2928,2.2913,2.3073,2.3354,2.3661,2.3941,2.4235,2.4476,2.4623,2.2806,2.0767,1.8799,1.6675,1.4629,1.2656,1.2501,1.2569,1.2725,1.2881,1.3064,1.3281,1.3363,1.3403,1.3403,1.3403,1.3403,1.3403,1.3403,1.3403,0.0,0.0,0.0,0.0,0.0,1.7936,0.0,0.0,0.0,0.0,0.0,0.0,0.0,0.0,0.0,0.0,0.0,0.0,0.0,0.0,0.0,0.0,0.0,0.0,0.0,2.5508,2.625,2.7441,2.7539,2.7773,2.8262,2.8301,2.8301,2.8301,2.8301,2.8711,2.957,2.9626,3.0019,3.0898,3.0898,3.0898,3.084,2.9157,2.7692,2.6349,2.4778,2.3139,2.1601,2.1601,2.1411,2.1109,2.1109,2.1109,2.1109,2.1109,2.1109,2.1109,2.1109,2.1109,2.1109,2.1109,2.1109,2.1109,2.1109,2.1109,2.1109,2.1109,2.1149,2.1323,2.1844,2.2031,2.2205,2.2807,2.2928,2.2928,2.2928,2.2928,2.2928,2.2928,2.2928,2.2928,2.2928,2.2928,2.2966,2.3287,2.3581,2.3875,2.4168,2.4449,2.4636,2.4636,2.3116,2.1365,1.9327,1.7284,1.5234,1.3182,1.2726,1.2556,1.2678,1.2861,1.3098,1.3397,1.3403,1.3403,1.3403,1.3403,1.3403,1.3403,1.3403,1.3403,0.0,0.0,0.0,0.0,2.0202,0.0,0.0,0.0,0.0,0.0,0.0,0.0,0.0,0.0,0.0,0.0,0.0,0.0,0.0,0.0,0.0,0.0,0.0,0.0,0.0,0.0,2.4465,2.6914,2.5703,2.5859,2.8164,2.8301,2.8301,2.8301,2.8301,2.8711,2.957,2.9626,3.0019,3.0898,3.0898,3.0898,3.084,2.9157,2.8289,2.8051,2.6409,2.484,2.3325,2.3325,2.2466,2.1109,2.1109,2.1109,2.1109,2.1109,2.1109,2.1109,2.1109,2.1109,2.1109,2.1109,2.1109,2.1109,2.1109,2.1109,2.1109,2.1109,2.1296,2.1641,2.1897,2.2178,2.2458,2.2779,2.2928,2.2928,2.2928,2.2928,2.2928,2.2928,2.2928,2.2928,2.2928,2.2928,2.2966,2.3287,2.3581,2.3875,2.4168,2.4449,2.4636,2.4636,2.4401,2.3426,2.1452,1.9403,1.736,1.531,1.3491,1.2508,1.2528,1.2807,1.3098,1.3397,1.3403,1.3403,1.3403,1.3403,1.3403,1.3403,1.3403,1.3403,0.0,0.0,0.0,0.0,0.0,0.0,1.7727,0.0,1.72,0.0,0.0,0.0,0.0,0.0,0.0,0.0,0.0,0.0,0.0,0.0,0.0,0.0,0.0,0.0,0.0,0.0,0.0,0.0,0.0,2.5547,2.8144,2.8301,2.8301,2.8301,2.8535,2.8945,2.957,2.9805,3.0254,3.0898,3.0898,3.0898,3.084,2.9157,2.8426,2.8289,2.6712,2.5619,2.4901,2.3993,2.3201,2.2466,2.1475,2.1109,2.1109,2.1109,2.1109,2.1109,2.1109,2.1109,2.1109,2.1109,2.1109,2.1109,2.1109,2.1109,2.1109,2.1109,2.1323,2.1681,2.1911,2.2205,2.2485,2.2792,2.2928,2.2928,2.2928,2.2928,2.2928,2.2928,2.2928,2.2928,2.2928,2.2928,2.302,2.3514,2.3688,2.3941,2.4396,2.4556,2.4636,2.4636,2.4636,2.3796,2.1751,1.9779,1.7739,1.5616,1.3645,1.2583,1.2759,1.2895,1.3098,1.3397,1.3403,1.3403,1.3403,1.3403,1.3403,1.3403,1.3403,1.3403,2.5398,0.0,0.0,0.0,0.0,0.0,0.0,0.0,0.0,0.0,0.0,0.0,0.0,0.0,0.0,0.0,0.0,0.0,0.0,0.0,0.0,0.0,0.0,0.0,0.0,0.0,0.0,0.0,0.0,0.0,2.8105,2.8301,2.8301,2.8301,2.8711,2.9121,2.9626,2.998,3.043,3.0898,3.0898,3.0898,3.084,2.9648,2.8842,2.8367,2.7632,2.6832,2.5924,2.4717,2.3993,2.345,2.1727,2.1109,2.1109,2.1109,2.1109,2.1109,2.1109,2.1109,2.1109,2.1109,2.1109,2.1109,2.1109,2.1109,2.1109,2.1109,2.1376,2.1724,2.1937,2.2258,2.2592,2.2806,2.2928,2.2928,2.2928,2.2928,2.2928,2.2928,2.2928,2.2928,2.2928,2.2928,2.3073,2.3674,2.3768,2.3981,2.4556,2.4636,2.4636,2.4636,2.4636,2.4031,2.2583,2.008,1.7512,1.4859,1.3337,1.2637,1.3029,1.2963,1.3098,1.3397,1.3403,1.3403,1.3403,1.3403,1.3403,1.3403,1.3403,1.3403,0.0,0.0,0.0,2.3444,0.0,0.0,0.0,0.0,1.9258,0.0,0.0,0.0,0.0,0.0,0.0,0.0,0.0,0.0,0.0,0.0,0.0,0.0,0.0,0.0,0.0,0.0,0.0,0.0,0.0,0.0,2.8027,2.8301,2.8301,2.8301,2.8711,2.9121,2.9626,2.998,3.043,3.0898,3.0898,3.0898,3.0898,3.082,2.9962,2.8486,3.0079,2.892,2.5984,2.5924,2.5024,2.345,2.1727,2.1109,2.1109,2.1109,2.1109,2.1109,2.1109,2.1109,2.1109,2.1109,2.1109,2.1109,2.1109,2.1109,2.1109,2.1109,2.1523,2.1977,2.1977,2.2418,2.2914,2.2928,2.2928,2.2928,2.2928,2.2928,2.2928,2.2928,2.2928,2.2928,2.2928,2.2928,2.3073,2.3674,2.3768,2.3981,2.4556,2.4636,2.4636,2.4636,2.4636,2.4562,2.4488,2.0916,1.6904,1.2881,1.2579,1.2637,1.3029,1.2963,1.3098,1.3397,1.3403,1.3403,1.3403,1.3403,1.3403,1.3403,1.3403,1.3403,0.0,0.0,3.2526,2.7198,0.0,0.0,0.0,0.0,0.0,0.0,0.0,0.0,0.0,0.0,0.0,0.0,0.0,0.0,0.0,0.0,0.0,0.0,0.0,0.0,0.0,0.0,0.0,0.0,0.0,0.0,0.0,2.8301,2.8301,2.8301,2.8984,2.9414,2.9626,3.0293,3.0742,3.0898,3.0898,3.0898,3.0898,3.0898,3.0587,3.0079,3.0645,3.0274,2.9039,2.6893,2.568,2.4901,2.2153,2.1109,2.1109,2.1109,2.1109,2.1109,2.1109,2.1109,2.1109,2.1109,2.1109,2.1109,2.1109,2.1109,2.1149,2.1349,2.1683,2.2031,2.2218,2.2565,2.2928,2.2928,2.2928,2.2928,2.2928,2.2928,2.2928,2.2928,2.2928,2.2928,2.2928,2.3033,2.33,2.3714,2.3768,2.3981,2.4556,2.4636,2.4636,2.4636,2.4636,2.4636,2.4636,2.0916,1.7436,1.4629,1.3259,1.2637,1.3029,1.2963,1.3098,1.3397,1.3403,1.3403,1.3403,1.3403,1.3403,1.3403,1.3403,1.3403,3.4113,3.4861,0.0,3.0015,2.8567,0.0,2.1811,0.0,0.0,0.0,0.0,0.0,0.0,0.0,0.0,0.0,0.0,0.0,0.0,0.0,0.0,0.0,0.0,0.0,0.0,0.0,0.0,0.0,0.0,0.0,0.0,0.0,2.8301,2.8301,2.9121,2.9626,2.9626,3.0449,3.0898,3.0898,3.0898,3.0898,3.0898,3.0898,3.0587,3.002,3.0645,3.0216,2.8979,2.6893,2.568,2.4901,2.2153,2.1109,2.1109,2.1109,2.1109,2.1109,2.1109,2.1109,2.1109,2.1109,2.1109,2.1109,2.1109,2.1109,2.1149,2.1336,2.1683,2.2031,2.2218,2.2565,2.2928,2.2928,2.2928,2.2928,2.2928,2.2928,2.2928,2.2928,2.2928,2.2928,2.2928,2.3113,2.342,2.3728,2.3861,2.4102,2.4569,2.4636,2.4636,2.4636,2.4636,2.4327,2.3574,2.0542,1.7739,1.5616,1.3645,1.2637,1.3029,1.2963,1.3071,1.3315,1.337,1.3376,1.3322,1.3376,1.3403,1.3403,1.3403,1.3403]}]]